[[{"header":{"parameterUnit":"m.s-1","parameterCategory":1,"la1":30.6,"la2":28.766,"lo1":-90.7593,"lo2":-88.6598,"dy":0.0162,"dx":0.0183,"nx":116,"ny":114,"refTime":"2023-09-28T18:00:00:Z","depth":0,"parameterNumber":2,"parameterNumberName":"U-component_of_WINDS"},"data":[0.0,0.0,0.0,0.0,0.0,0.0,0.0,0.0,0.0,0.0,0.0,0.0,0.0,0.0,0.0,0.0,0.0,0.0,0.0,0.0,0.0,0.0,0.0,0.0,0.0,0.0,0.0,0.0,0.0,0.0,0.0,0.0,0.0,0.0,0.0,0.0,0.0,0.0,0.0,0.0,0.0,0.0,0.0,0.0,0.0,0.0,0.0,0.0,0.0,0.0,0.0,0.0,0.0,0.0,0.0,0.0,0.0,0.0,0.0,0.0,0.0,0.0,0.0,0.0,0.0,0.0,0.0,0.0,0.0,0.0,0.0,0.0,0.0,0.0,0.0,0.0,0.0,0.0,0.0,0.0,0.0,0.0,0.0,0.0,0.0,0.0,0.0,0.0,0.0,0.0,0.0,0.0,0.0,0.0,0.0,0.0,0.0,0.0,0.0,0.0,0.0,0.0,0.0,0.0,0.0,0.0,0.0,0.0,0.0,0.0,0.0,0.0,0.0,0.0,0.0,0.0,0.0,0.0,0.0,0.0,0.0,0.0,0.0,0.0,0.0,0.0,0.0,0.0,0.0,0.0,0.0,0.0,0.0,0.0,0.0,0.0,0.0,0.0,0.0,0.0,0.0,0.0,0.0,0.0,0.0,0.0,0.0,0.0,0.0,0.0,0.0,0.0,0.0,0.0,0.0,0.0,0.0,0.0,0.0,0.0,0.0,0.0,0.0,0.0,0.0,0.0,0.0,0.0,0.0,0.0,0.0,0.0,0.0,0.0,0.0,0.0,0.0,0.0,0.0,0.0,0.0,0.0,0.0,0.0,0.0,0.0,0.0,0.0,0.0,0.0,0.0,0.0,0.0,0.0,0.0,0.0,0.0,0.0,0.0,0.0,0.0,0.0,0.0,0.0,0.0,0.0,0.0,0.0,0.0,0.0,0.0,0.0,0.0,0.0,0.0,0.0,0.0,0.0,0.0,0.0,0.0,0.0,0.0,0.0,0.0,0.0,0.0,0.0,0.0,0.0,0.0,0.0,0.0,0.0,0.0,0.0,0.0,0.0,0.0,0.0,0.0,0.0,0.0,0.0,0.0,0.0,0.0,0.0,0.0,0.0,0.0,0.0,0.0,0.0,0.0,0.0,0.0,0.0,0.0,0.0,0.0,0.0,0.0,0.0,0.0,0.0,0.0,0.0,0.0,0.0,0.0,0.0,0.0,0.0,0.0,0.0,0.0,0.0,0.0,0.0,0.0,0.0,0.0,0.0,0.0,0.0,0.0,0.0,0.0,0.0,0.0,0.0,0.0,0.0,0.0,0.0,0.0,0.0,0.0,0.0,0.0,0.0,0.0,0.0,0.0,0.0,0.0,0.0,0.0,0.0,0.0,0.0,0.0,0.0,0.0,0.0,0.0,0.0,0.0,0.0,0.0,0.0,0.0,0.0,0.0,0.0,0.0,0.0,0.0,0.0,0.0,0.0,0.0,0.0,0.0,0.0,0.0,0.0,0.0,0.0,0.0,0.0,0.0,0.0,0.0,0.0,0.0,0.0,0.0,0.0,0.0,0.0,0.0,0.0,0.0,0.0,0.0,0.0,0.0,0.0,0.0,0.0,0.0,0.0,0.0,0.0,0.0,0.0,0.0,0.0,0.0,0.0,0.0,0.0,0.0,0.0,0.0,0.0,0.0,0.0,0.0,0.0,0.0,0.0,0.0,0.0,0.0,0.0,0.0,0.0,0.0,0.0,0.0,0.0,0.0,0.0,0.0,0.0,0.0,0.0,0.0,0.0,0.0,0.0,0.0,0.0,0.0,0.0,0.0,0.0,0.0,0.0,0.0,0.0,0.0,0.0,0.0,0.0,0.0,0.0,0.0,0.0,0.0,0.0,0.0,0.0,0.0,0.0,0.0,0.0,0.0,0.0,0.0,0.0,0.0,0.0,0.0,0.0,0.0,0.0,0.0,0.0,0.0,0.0,0.0,0.0,0.0,0.0,0.0,0.0,0.0,0.0,0.0,0.0,0.0,0.0,0.0,0.0,0.0,0.0,0.0,0.0,0.0,0.0,0.0,0.0,0.0,0.0,0.0,0.0,0.0,0.0,0.0,0.0,0.0,0.0,0.0,0.0,0.0,0.0,0.0,0.0,0.0,0.0,0.0,0.0,0.0,0.0,0.0,0.0,0.0,0.0,0.0,0.0,0.0,0.0,0.0,0.0,0.0,0.0,0.0,0.0,0.0,0.0,0.0,0.0,0.0,0.0,0.0,0.0,0.0,0.0,0.0,0.0,0.0,0.0,0.0,0.0,0.0,0.0,0.0,0.0,0.0,0.0,0.0,0.0,0.0,0.0,0.0,0.0,0.0,0.0,0.0,0.0,0.0,0.0,0.0,0.0,0.0,0.0,0.0,0.0,0.0,0.0,0.0,0.0,0.0,0.0,0.0,0.0,0.0,0.0,0.0,0.0,0.0,0.0,0.0,0.0,0.0,0.0,0.0,0.0,0.0,0.0,0.0,0.0,0.0,0.0,0.0,0.0,0.0,0.0,0.0,0.0,0.0,0.0,0.0,0.0,0.0,0.0,0.0,0.0,0.0,0.0,0.0,0.0,0.0,0.0,0.0,0.0,0.0,0.0,0.0,0.0,0.0,0.0,0.0,0.0,0.0,0.0,0.0,0.0,0.0,0.0,0.0,0.0,0.0,0.0,0.0,0.0,0.0,0.0,0.0,0.0,0.0,0.0,0.0,0.0,0.0,0.0,0.0,0.0,0.0,0.0,0.0,0.0,0.0,0.0,0.0,0.0,0.0,0.0,0.0,0.0,0.0,0.0,0.0,0.0,0.0,0.0,0.0,0.0,0.0,0.0,0.0,0.0,0.0,0.0,0.0,0.0,0.0,0.0,0.0,0.0,0.0,0.0,0.0,0.0,0.0,0.0,0.0,0.0,0.0,0.0,0.0,0.0,0.0,0.0,0.0,0.0,0.0,0.0,0.0,0.0,0.0,0.0,0.0,0.0,0.0,0.0,0.0,0.0,0.0,0.0,0.0,0.0,0.0,0.0,0.0,0.0,0.0,0.0,0.0,0.0,0.0,0.0,0.0,0.0,0.0,0.0,0.0,0.0,0.0,0.0,0.0,0.0,0.0,0.0,0.0,0.0,0.0,0.0,0.0,0.0,0.0,0.0,0.0,0.0,0.0,0.0,0.0,0.0,0.0,0.0,0.0,0.0,0.0,0.0,0.0,0.0,0.0,0.0,0.0,0.0,0.0,0.0,0.0,0.0,0.0,0.0,0.0,0.0,0.0,0.0,0.0,0.0,0.0,0.0,0.0,0.0,0.0,0.0,0.0,0.0,0.0,0.0,0.0,0.0,0.0,0.0,0.0,0.0,0.0,0.0,0.0,0.0,0.0,0.0,0.0,0.0,0.0,0.0,0.0,0.0,0.0,0.0,0.0,0.0,0.0,0.0,0.0,0.0,0.0,0.0,0.0,0.0,0.0,0.0,0.0,0.0,0.0,0.0,0.0,0.0,0.0,0.0,0.0,0.0,0.0,0.0,0.0,0.0,0.0,0.0,0.0,0.0,0.0,0.0,0.0,0.0,0.0,0.0,0.0,0.0,0.0,0.0,0.0,0.0,0.0,0.0,0.0,0.0,0.0,0.0,0.0,0.0,0.0,0.0,0.0,0.0,0.0,0.0,0.0,0.0,0.0,0.0,0.0,0.0,0.0,0.0,0.0,0.0,0.0,0.0,0.0,0.0,0.0,0.0,0.0,0.0,0.0,0.0,0.0,0.0,0.0,0.0,0.0,0.0,0.0,0.0,0.0,0.0,0.0,0.0,0.0,0.0,0.0,0.0,0.0,0.0,0.0,0.0,0.0,0.0,0.0,0.0,0.0,0.0,0.0,0.0,0.0,0.0,0.0,0.0,0.0,0.0,0.0,0.0,0.0,0.0,0.0,0.0,0.0,0.0,0.0,0.0,0.0,0.0,0.0,0.0,0.0,0.0,0.0,0.0,0.0,0.0,0.0,0.0,0.0,0.0,0.0,0.0,0.0,0.0,0.0,0.0,0.0,0.0,0.0,0.0,0.0,0.0,0.0,0.0,0.0,0.0,0.0,0.0,0.0,0.0,0.0,0.0,0.0,0.0,0.0,0.0,0.0,0.0,0.0,0.0,0.0,0.0,0.0,0.0,0.0,0.0,0.0,0.0,0.0,0.0,0.0,0.0,0.0,0.0,0.0,0.0,0.0,0.0,0.0,0.0,0.0,0.0,0.0,0.0,0.0,0.0,0.0,0.0,0.0,0.0,0.0,0.0,0.0,0.0,0.0,0.0,0.0,0.0,0.0,0.0,0.0,0.0,0.0,0.0,0.0,0.0,0.0,0.0,0.0,0.0,0.0,0.0,0.0,0.0,0.0,0.0,0.0,0.0,0.0,0.0,0.0,0.0,0.0,0.0,0.0,0.0,0.0,0.0,0.0,0.0,0.0,0.0,0.0,0.0,0.0,0.0,0.0,0.0,0.0,0.0,0.0,0.0,0.0,0.0,0.0,0.0,0.0,0.0,0.0,0.0,0.0,0.0,0.0,0.0,0.0,0.0,0.0,0.0,0.0,0.0,0.0,0.0,0.0,0.0,0.0,0.0,0.0,0.0,0.0,0.0,0.0,0.0,0.0,0.0,0.0,0.0,0.0,0.0,0.0,0.0,0.0,0.0,0.0,0.0,0.0,0.0,0.0,0.0,0.0,0.0,0.0,0.0,0.0,0.0,0.0,0.0,0.0,0.0,0.0,0.0,0.0,0.0,0.0,0.0,0.0,0.0,0.0,0.0,0.0,0.0,0.0,0.0,0.0,0.0,0.0,0.0,0.0,0.0,0.0,0.0,0.0,0.0,0.0,0.0,0.0,0.0,0.0,0.0,0.0,0.0,0.0,0.0,0.0,0.0,0.0,0.0,0.0,0.0,0.0,0.0,0.0,0.0,0.0,0.0,0.0,0.0,0.0,0.0,0.0,0.0,0.0,0.0,0.0,0.0,0.0,0.0,0.0,0.0,0.0,0.0,0.0,0.0,0.0,0.0,0.0,0.0,0.0,0.0,0.0,0.0,0.0,0.0,0.0,0.0,0.0,0.0,0.0,0.0,0.0,0.0,0.0,0.0,0.0,0.0,0.0,0.0,0.0,0.0,0.0,0.0,0.0,0.0,0.0,0.0,0.0,0.0,0.0,0.0,0.0,0.0,0.0,0.0,0.0,0.0,0.0,0.0,0.0,0.0,0.0,0.0,0.0,0.0,0.0,0.0,0.0,0.0,0.0,0.0,0.0,0.0,0.0,0.0,0.0,0.0,0.0,0.0,0.0,0.0,0.0,0.0,0.0,0.0,0.0,0.0,0.0,0.0,0.0,0.0,0.0,0.0,0.0,0.0,0.0,0.0,0.0,0.0,0.0,0.0,0.0,0.0,0.0,0.0,0.0,0.0,0.0,0.0,0.0,0.0,0.0,0.0,0.0,0.0,0.0,0.0,0.0,0.0,0.0,0.0,0.0,0.0,0.0,0.0,0.0,0.0,0.0,0.0,0.0,0.0,0.0,0.0,0.0,0.0,0.0,0.0,0.0,0.0,0.0,0.0,0.0,0.0,0.0,0.0,0.0,0.0,0.0,0.0,0.0,0.0,0.0,0.0,0.0,0.0,0.0,0.0,0.0,0.0,0.0,0.0,0.0,0.0,0.0,0.0,0.0,0.0,0.0,0.0,0.0,0.0,0.0,0.0,0.0,0.0,0.0,0.0,0.0,0.0,0.0,0.0,0.0,0.0,0.0,0.0,0.0,0.0,0.0,0.0,0.0,0.0,0.0,0.0,0.0,0.0,0.0,0.0,0.0,0.0,0.0,0.0,0.0,0.0,0.0,0.0,0.0,0.0,0.0,0.0,0.0,0.0,0.0,0.0,0.0,0.0,0.0,0.0,0.0,0.0,0.0,0.0,0.0,0.0,0.0,0.0,0.0,0.0,0.0,0.0,0.0,0.0,0.0,0.0,0.0,0.0,0.0,0.0,0.0,0.0,0.0,0.0,0.0,0.0,0.0,0.0,0.0,0.0,0.0,0.0,0.0,0.0,0.0,0.0,1.5981,0.0,0.0,0.0,0.0,0.0,0.0,0.0,0.0,0.0,0.0,0.0,0.0,0.0,0.0,0.0,0.0,0.0,0.0,0.0,0.0,0.0,0.0,0.0,0.0,0.0,0.0,0.0,0.0,0.0,0.0,0.0,0.0,0.0,0.0,0.0,0.0,0.0,0.0,1.5808,1.641,1.7054,1.7661,1.641,1.5808,1.5808,0.0,0.0,0.0,0.0,0.0,0.0,0.0,0.0,0.0,0.0,0.0,0.0,0.0,0.0,0.0,0.0,0.0,0.0,0.0,0.0,0.0,0.0,0.0,0.0,0.0,0.0,0.0,0.0,0.0,0.0,0.0,0.0,0.0,0.0,0.0,0.0,0.0,0.0,0.0,0.0,0.0,0.0,0.0,0.0,0.0,0.0,0.0,0.0,0.0,0.0,0.0,0.0,0.0,0.0,0.0,0.0,0.0,0.0,0.0,0.0,0.0,0.0,0.0,0.0,0.0,0.0,0.0,0.0,0.0,0.0,0.0,1.638,0.0,0.0,0.0,0.0,0.0,0.0,0.0,0.0,0.0,0.0,0.0,0.0,0.0,0.0,0.0,0.0,0.0,0.0,0.0,0.0,0.0,0.0,0.0,1.5106,1.524,1.5444,1.5471,1.5471,0.0,0.0,0.0,0.0,0.0,0.0,1.5808,1.5808,1.5808,1.5808,1.7111,1.7627,1.7334,1.6583,1.6062,1.5808,1.5808,0.0,0.0,0.0,0.0,0.0,0.0,0.0,0.0,0.0,0.0,0.0,0.0,0.0,0.0,0.0,0.0,0.0,0.0,0.0,0.0,0.0,0.0,0.0,0.0,0.0,0.0,0.0,0.0,0.0,0.0,0.0,0.0,0.0,0.0,0.0,0.0,0.0,0.0,0.0,0.0,0.0,0.0,0.0,0.0,0.0,0.0,0.0,0.0,0.0,0.0,0.0,0.0,0.0,0.0,0.0,0.0,0.0,0.0,0.0,0.0,0.0,0.0,0.0,1.8249,1.8437,1.8679,1.8679,1.8664,1.8677,1.7956,1.7381,1.6902,1.6767,0.0,0.0,0.0,0.0,0.0,0.0,0.0,0.0,0.0,0.0,0.0,0.0,0.0,0.0,0.0,0.0,0.0,0.0,0.0,1.5297,1.5337,1.5565,1.5701,1.5741,1.5741,1.5741,1.5741,0.0,0.0,0.0,0.0,0.0,1.5808,1.5808,1.5808,1.5808,1.7304,1.7351,1.6092,1.7246,1.7089,1.5808,1.5808,1.5808,1.5808,0.0,0.0,0.0,0.0,0.0,0.0,0.0,0.0,0.0,0.0,0.0,0.0,0.0,0.0,0.0,0.0,0.0,0.0,0.0,0.0,0.0,0.0,0.0,0.0,0.0,0.0,0.0,0.0,0.0,0.0,0.0,0.0,0.0,0.0,0.0,0.0,0.0,0.0,0.0,0.0,0.0,1.6593,1.6593,0.0,0.0,0.0,0.0,0.0,0.0,0.0,0.0,0.0,0.0,0.0,0.0,0.0,1.7969,1.825,1.8826,1.9013,1.8783,1.9319,1.9452,1.9281,1.9281,1.9415,1.9626,1.9506,0.0,1.7756,1.7009,0.0,0.0,0.0,0.0,0.0,0.0,0.0,0.0,0.0,0.0,0.0,0.0,0.0,0.0,0.0,0.0,0.0,0.0,0.0,0.0,0.0,1.5511,1.5635,1.5795,1.5979,1.6005,1.5821,1.5979,0.0,0.0,0.0,1.5808,1.5808,1.6504,1.7368,1.8375,1.9435,1.914,1.7615,1.8434,1.7939,1.6302,1.6302,1.6115,1.5808,1.5808,0.0,0.0,0.0,0.0,0.0,0.0,0.0,0.0,0.0,0.0,0.0,0.0,0.0,0.0,0.0,0.0,0.0,0.0,0.0,0.0,0.0,0.0,0.0,0.0,0.0,0.0,0.0,0.0,0.0,0.0,0.0,0.0,0.0,0.0,0.0,0.0,0.0,0.0,0.0,1.6605,1.6859,1.6524,1.6779,1.6739,0.0,0.0,0.0,0.0,0.0,0.0,0.0,0.0,0.0,1.833,1.8916,1.9303,1.9437,2.0054,2.0361,2.0431,2.0699,2.0833,2.0873,2.0873,2.094,2.1015,2.0681,2.0334,1.992,1.8732,1.7903,1.7409,0.0,0.0,0.0,0.0,1.7209,1.7422,0.0,0.0,0.0,0.0,0.0,0.0,0.0,0.0,0.0,0.0,0.0,0.0,1.5591,1.5685,1.5818,1.6008,1.6259,1.6259,1.5941,1.6072,1.6059,1.5821,1.5808,1.5808,1.5808,1.7259,1.8931,2.0826,2.104,2.0515,1.9363,1.9084,1.8212,1.6927,1.6847,1.6486,1.5915,1.5915,1.5875,1.5808,0.0,0.0,0.0,0.0,0.0,0.0,0.0,0.0,0.0,0.0,0.0,0.0,0.0,0.0,0.0,0.0,0.0,0.0,0.0,0.0,0.0,0.0,0.0,0.0,0.0,0.0,0.0,0.0,0.0,0.0,0.0,0.0,0.0,0.0,0.0,0.0,0.0,1.7046,1.7301,1.6698,1.7354,1.7474,0.0,0.0,0.0,0.0,0.0,0.0,1.8677,1.917,1.9557,1.9783,2.0424,2.0797,2.0909,2.1336,2.171,2.2037,2.1957,2.2077,2.2325,2.2245,2.2164,2.2071,2.171,2.1643,2.1689,2.0137,1.9132,1.8528,1.8329,1.8143,1.8077,1.8103,1.8236,1.8369,0.0,0.0,0.0,0.0,0.0,0.0,0.0,0.0,0.0,0.0,0.0,1.5899,1.6217,1.6473,1.6647,1.666,1.6673,1.6567,1.6297,1.6005,1.5821,1.5808,1.5808,1.5808,1.5808,1.78,1.9877,2.2005,2.0903,2.0393,2.0377,1.8547,1.7634,1.7528,1.73,1.6832,1.627,1.627,1.6086,1.5808,1.5808,0.0,0.0,0.0,0.0,0.0,0.0,0.0,0.0,0.0,0.0,0.0,0.0,0.0,0.0,0.0,0.0,0.0,0.0,0.0,0.0,0.0,0.0,0.0,0.0,0.0,0.0,0.0,0.0,0.0,0.0,0.0,0.0,0.0,0.0,0.0,0.0,0.0,0.0,1.7622,1.8784,0.0,0.0,0.0,0.0,1.8756,1.9105,1.9682,2.0525,2.0828,2.1376,2.2218,2.2285,2.2445,2.276,2.28,2.296,2.3198,2.2974,2.2987,2.3212,2.2953,2.2659,2.2418,2.2659,2.2653,2.2245,2.0494,1.992,2.001,1.917,1.9038,1.9241,1.8664,1.8853,1.9254,0.0,0.0,0.0,0.0,0.0,0.0,0.0,0.0,1.5498,1.5768,1.5992,1.6233,1.6513,1.6846,1.7086,1.7248,1.7275,1.7167,1.6911,1.6553,1.6393,1.6393,1.6219,1.7109,1.924,2.0548,2.2204,2.4219,2.426,2.3283,2.1324,2.0529,1.9457,1.8197,1.809,1.7782,1.7355,1.7033,1.6578,1.6112,1.6112,1.6005,0.0,0.0,0.0,0.0,0.0,0.0,0.0,0.0,0.0,0.0,0.0,0.0,0.0,0.0,0.0,0.0,0.0,0.0,0.0,0.0,0.0,0.0,0.0,0.0,0.0,0.0,0.0,0.0,0.0,0.0,0.0,0.0,0.0,0.0,0.0,0.0,0.0,1.9319,2.0428,0.0,1.984,2.0204,2.0539,2.0632,2.1274,2.1957,2.2666,2.2939,2.3327,2.3799,2.4035,2.4088,2.4008,2.4008,2.3968,2.3888,2.3629,2.3536,2.3607,2.3536,2.3429,2.3287,2.3193,2.3207,2.3233,2.2405,2.179,2.1323,2.1015,2.0735,2.0468,2.0254,2.0307,2.0454,0.0,0.0,0.0,0.0,0.0,0.0,0.0,1.5538,1.5595,1.5781,1.6179,1.6551,1.6846,1.7327,1.7702,1.7903,1.7796,1.7609,1.7341,1.6859,1.6567,1.6567,1.7122,1.8741,2.1586,2.3074,2.4819,2.6825,2.68,2.5497,2.3048,2.2184,2.083,1.9078,1.8971,1.8824,1.8583,1.813,1.7487,1.6725,1.6632,1.6513,1.6339,0.0,0.0,0.0,0.0,0.0,0.0,0.0,0.0,0.0,0.0,0.0,0.0,0.0,0.0,0.0,0.0,0.0,0.0,0.0,0.0,0.0,0.0,0.0,0.0,0.0,0.0,0.0,0.0,0.0,0.0,0.0,0.0,0.0,0.0,0.0,2.0931,2.0931,2.2191,2.2686,2.1836,2.2278,2.2666,2.2773,2.3415,2.4058,2.466,2.4836,2.5077,2.532,2.5464,2.5424,2.5224,2.513,2.4983,2.4796,2.4502,2.4356,2.4356,2.4356,2.4302,2.4245,2.4102,2.4115,2.4231,2.3995,2.3514,2.2846,2.2552,2.2205,2.1844,2.1737,2.1643,2.1537,0.0,0.0,0.0,0.0,0.0,0.0,1.5715,1.5808,1.5808,1.5821,1.6342,1.6847,1.7192,1.801,1.8517,1.8517,1.8209,1.7902,1.7662,1.6805,1.6324,1.6337,1.8427,2.0515,2.253,2.5129,2.7509,2.9618,2.8031,2.6702,2.5542,2.3245,2.1464,2.0197,1.9947,1.9813,1.98,1.9548,1.8759,1.7662,1.7367,1.7354,1.7501,0.0,0.0,0.0,0.0,0.0,0.0,0.0,0.0,0.0,0.0,0.0,0.0,0.0,0.0,0.0,0.0,0.0,0.0,0.0,0.0,0.0,0.0,0.0,0.0,0.0,0.0,0.0,0.0,0.0,0.0,0.0,0.0,0.0,1.9933,2.139,2.2465,2.2525,2.4075,2.4834,2.3991,2.4382,2.4799,2.5117,2.5411,2.5825,2.64,2.6426,2.6547,2.68,2.656,2.6413,2.6413,2.6172,2.6024,2.6024,2.5678,2.5545,2.5545,2.5531,2.5371,2.5117,2.5398,2.5358,2.509,2.509,2.493,2.4546,2.3665,2.3319,2.3265,2.3027,2.2699,2.2405,0.0,0.0,0.0,0.0,0.0,0.0,1.5715,1.5808,1.5888,1.6126,1.6872,1.7462,1.7742,1.8597,1.916,1.916,1.8664,1.833,1.825,1.7208,1.6805,1.7234,1.8235,2.0426,2.3867,2.4958,2.6975,3.0019,2.7558,2.6113,2.5529,2.2524,2.0804,2.0197,2.0117,2.0077,2.0077,1.9997,1.977,1.937,1.8236,1.7582,1.7274,0.0,0.0,0.0,0.0,0.0,0.0,0.0,0.0,0.0,0.0,0.0,0.0,0.0,0.0,0.0,0.0,0.0,0.0,0.0,0.0,0.0,0.0,0.0,0.0,0.0,0.0,0.0,0.0,0.0,0.0,0.0,0.0,2.2331,2.2091,2.318,2.4262,2.4941,2.5785,2.6253,2.5999,2.6319,2.6493,2.636,2.6613,2.6947,2.7321,2.7134,2.7202,2.7442,2.7175,2.7068,2.7068,2.6734,2.6587,2.6587,2.6293,2.6146,2.6146,2.5932,2.5824,2.5743,2.5571,2.5464,2.5398,2.5398,2.5344,2.5184,2.4302,2.3834,2.3607,2.3313,2.314,2.2998,0.0,0.0,0.0,0.0,0.0,0.0,1.5741,1.5808,1.5915,1.6257,1.7154,1.7822,1.7982,1.8945,1.9481,1.9199,1.8758,1.8384,1.813,1.81,1.8457,1.9236,2.0546,2.2451,2.497,2.5426,2.6559,2.8447,2.7667,2.6861,2.5962,2.4208,2.2918,2.2012,2.1398,2.1051,2.0931,2.0931,2.0895,2.0695,1.9586,1.8865,1.8424,1.8063,1.7889,1.7782,1.7542,1.7488,1.7475,1.7181,0.0,0.0,0.0,0.0,0.0,0.0,0.0,0.0,0.0,0.0,0.0,0.0,0.0,0.0,0.0,0.0,0.0,0.0,0.0,0.0,0.0,0.0,0.0,0.0,2.322,2.4396,2.486,2.5264,2.5879,2.6814,2.7281,2.7615,2.7694,2.7802,2.7762,2.7589,2.7615,2.775,2.7924,2.7764,2.775,2.7883,2.7764,2.767,2.767,2.7335,2.7188,2.7188,2.6894,2.68,2.6747,2.6626,2.6546,2.6533,2.6319,2.6253,2.6239,2.6119,2.5985,0.0,0.0,0.0,0.0,0.0,2.3981,2.3799,0.0,0.0,0.0,0.0,0.0,0.0,1.5768,1.5808,1.5928,1.631,1.7302,1.8009,1.7996,1.9052,1.9533,1.8943,1.8651,1.8263,1.7742,1.9072,2.0332,2.1407,2.3488,2.5061,2.592,2.631,2.6537,2.6709,2.8349,2.8329,2.6709,2.6818,2.5992,2.434,2.304,2.2325,2.2084,2.2084,2.197,2.1689,2.1167,2.0641,2.0117,1.9303,1.9172,1.9321,1.8799,1.8437,1.8169,1.7889,0.0,0.0,0.0,0.0,0.0,0.0,0.0,0.0,0.0,0.0,0.0,0.0,0.0,0.0,0.0,0.0,0.0,0.0,0.0,0.0,0.0,0.0,0.0,0.0,2.5251,2.6346,2.7749,2.7495,2.7442,2.8205,2.8511,2.8804,2.9028,2.8831,2.8671,2.8698,2.846,2.8272,2.8232,0.0,0.0,0.0,0.0,2.8179,2.8179,2.7883,2.7749,2.7749,2.7523,2.7403,2.7403,2.7376,2.7362,2.7349,2.7322,2.7309,2.7282,2.6987,2.672,2.6426,2.5772,2.5518,2.5478,2.5224,2.4943,2.4613,0.0,0.0,0.0,0.0,0.0,0.0,1.5768,1.5808,1.5995,1.6553,1.7422,1.7995,1.8009,1.8891,1.9305,1.893,1.8651,1.8437,1.8317,1.8836,1.9522,2.0427,2.1374,2.343,2.6792,2.6909,2.8307,3.0998,3.0058,2.8793,2.7292,2.6064,2.4687,2.3229,2.2923,2.2773,2.2733,2.2733,2.2693,2.2639,2.2519,2.155,2.0157,1.9786,1.9519,1.9388,1.9267,1.9305,1.9412,1.9147,1.9174,1.9185,1.8597,1.8116,0.0,0.0,0.0,0.0,0.0,0.0,0.0,0.0,0.0,0.0,0.0,0.0,0.0,0.0,0.0,0.0,0.0,0.0,0.0,2.5732,2.7121,2.835,2.9352,2.9392,2.9205,2.8855,2.9138,2.9339,2.9392,2.9125,2.9015,2.9299,2.9032,2.8764,2.8524,2.8524,2.8404,2.8192,2.8179,2.8179,2.8179,2.8125,2.8098,2.8098,0.0,0.0,2.8005,2.7764,2.7615,2.7602,2.7403,2.7309,2.7309,2.7242,2.7188,2.7028,2.5932,2.5518,2.5504,2.5451,2.5251,2.5024,0.0,0.0,0.0,0.0,0.0,0.0,1.5781,1.5808,1.5968,1.6433,1.7261,1.7756,1.7609,1.8424,1.8719,1.809,1.8036,1.8223,1.8677,2.1046,2.2929,2.4003,2.5483,2.6777,2.7915,2.6937,2.6776,2.7554,2.757,2.7312,2.6722,2.6053,2.5349,2.4628,2.3868,2.3496,2.3375,2.3621,2.3581,2.3348,2.3348,2.2699,2.1704,2.1283,2.1015,2.0869,2.0766,2.0712,2.0659,2.0334,2.0134,1.992,1.9332,1.8931,1.8571,0.0,0.0,0.0,0.0,0.0,0.0,0.0,0.0,0.0,0.0,0.0,0.0,0.0,0.0,2.2746,0.0,0.0,2.656,2.7749,2.8804,2.9686,3.0274,3.0354,3.0194,2.9753,2.9833,2.998,3.0127,2.9873,2.9766,2.9958,2.9646,2.9352,2.9058,2.9045,2.8911,2.8604,2.8591,2.8524,2.8419,2.8419,2.8339,2.8179,2.8179,2.8179,2.8179,2.8031,2.7965,2.7951,2.7804,2.775,2.7737,2.759,2.7482,2.7415,2.668,2.6306,2.6172,2.6172,2.5892,2.5583,0.0,0.0,0.0,0.0,0.0,0.0,0.0,1.5808,1.5915,1.6257,1.6966,1.7354,1.7139,1.7782,1.797,1.7259,1.7541,1.8156,1.909,2.2913,2.5867,2.7507,2.9524,3.0067,2.8908,2.735,2.5767,2.419,2.5597,2.6303,2.633,2.6563,2.65,2.6162,2.4984,2.4329,2.4178,2.4572,2.4543,2.4151,2.4151,2.3968,2.3652,2.3052,2.2712,2.2472,2.2178,2.1917,2.1622,2.1296,2.0882,2.0401,1.9963,1.9776,1.9575,1.8691,1.9052,0.0,0.0,0.0,0.0,0.0,0.0,0.0,0.0,0.0,2.2058,2.2712,2.387,2.5128,2.6372,2.7509,2.8657,2.9726,3.04,3.0841,3.1089,3.1129,3.1095,3.0855,3.0734,3.0748,3.0942,3.0702,3.0574,3.0574,3.0247,2.994,2.9579,2.9566,2.9379,2.8921,2.8961,2.8855,2.8604,2.8671,2.8564,2.8366,2.8366,2.8366,2.8353,2.8299,2.8272,2.8272,2.8205,2.8179,2.8165,2.7924,2.7789,2.7762,2.7563,2.7255,2.6987,2.6934,2.6573,2.6172,0.0,0.0,0.0,0.0,0.0,0.0,0.0,0.0,1.5915,1.6257,1.658,1.6794,1.6754,1.7113,1.7313,1.7206,1.7943,1.8878,1.9983,2.1343,2.3377,2.6273,2.72,2.8148,2.9136,2.9348,2.9218,2.8766,2.894,2.8519,2.7518,2.7548,2.6852,2.5569,2.542,2.5344,2.5317,2.5384,2.5371,2.5317,2.5317,2.5304,2.5197,2.4572,2.3728,2.2813,2.2472,2.2178,2.193,2.1636,2.1489,2.1422,2.1368,2.1154,2.0788,2.0144,1.972,1.9361,1.8931,1.9305,2.004,2.1047,2.1368,2.1984,0.0,0.0,2.4877,2.5718,2.7054,2.819,2.8575,2.9659,3.0662,3.1316,3.169,3.2011,3.2353,3.2393,3.2393,3.2353,3.1885,3.1577,3.1617,3.1303,3.1129,3.1129,3.0862,3.0448,2.99,2.9873,2.9499,2.8684,2.8868,2.8855,2.8604,2.8815,2.8935,2.8895,2.8895,2.8895,2.8895,2.8671,2.8551,2.8537,2.8312,2.8179,2.8179,2.8152,2.8138,2.8138,2.8098,2.7898,2.7562,2.7308,2.7014,2.672,0.0,0.0,0.0,0.0,0.0,0.0,0.0,0.0,1.5848,1.6005,1.6273,1.6393,1.6195,1.6299,1.6446,1.6645,1.7796,1.9454,2.174,2.34,2.6121,3.0221,3.1015,3.1069,3.0491,3.0496,2.9433,2.7165,2.7013,2.6768,2.6438,2.6438,2.6188,2.5772,2.5772,2.5865,2.6039,2.6199,2.6172,2.6039,2.6213,2.6066,2.5718,2.5304,2.4516,2.3541,2.2712,2.2231,0.0,2.1689,2.1475,2.1355,2.1529,2.1122,2.049,2.0107,2.0054,2.0244,2.0601,2.1002,2.1523,2.2378,2.3388,2.4459,2.5623,2.6507,2.7335,2.8043,2.9232,3.0221,3.0515,3.1249,3.1938,0.0,3.2474,3.2652,3.2835,3.2554,3.2291,3.2291,3.2078,3.1917,3.1917,3.165,3.149,3.149,3.137,3.1116,3.0702,3.0515,3.0181,2.9646,2.9579,2.9406,2.9125,2.9406,2.9335,2.9001,2.9219,2.9205,2.8988,2.8738,2.8511,2.8366,2.8245,2.8179,2.8179,2.8179,2.8179,2.8179,2.8179,2.8112,2.7938,2.7483,2.7081,2.68,0.0,0.0,0.0,0.0,0.0,0.0,0.0,0.0,0.0,0.0,1.6019,1.6072,1.5821,1.5808,1.5928,1.627,1.7555,1.9696,2.2853,2.4366,2.761,3.3098,3.3589,3.307,3.1548,3.1555,2.97,2.5879,2.5665,2.5718,2.5999,2.5999,2.6145,2.6359,2.6359,2.6479,2.664,2.6854,2.6827,2.664,2.6774,2.652,2.6051,2.5478,2.4676,2.3714,2.2752,2.2124,2.167,2.1261,2.0975,2.0895,2.106,2.0788,2.037,2.0027,2.0281,2.0886,2.1676,2.2258,2.2852,2.3821,2.5355,2.672,2.7134,2.839,2.9579,2.9993,3.0955,3.177,3.1998,3.25,3.2835,3.2835,3.2959,3.3066,3.2986,3.2545,3.2171,3.1998,3.1837,3.177,3.1851,3.181,3.1805,3.1724,3.1711,3.1543,3.1236,3.1022,3.0742,3.0413,3.0234,3.002,2.9726,3.0007,2.994,2.9482,2.974,2.9686,2.9392,2.8938,2.8564,2.8312,2.8219,2.8179,2.8179,2.8179,2.8179,2.8179,2.8179,2.8179,2.8125,2.7617,2.7295,2.7134,0.0,0.0,0.0,0.0,0.0,0.0,0.0,0.0,0.0,0.0,0.0,1.5821,1.5808,1.5808,1.5928,1.627,1.7342,1.9417,2.269,2.2668,2.5703,3.2906,3.2662,3.2168,3.1794,3.2621,3.0965,2.6747,2.6734,2.6921,2.7255,2.7255,2.7255,2.7269,2.7269,2.7269,2.7282,2.7282,2.7282,2.7255,2.6934,2.664,2.6253,2.5066,2.3928,2.2893,2.2539,2.1871,2.1002,2.0147,2.004,2.0184,1.9933,2.0414,2.0975,2.0357,2.0441,2.0833,2.1435,2.2418,2.3714,2.5489,2.7028,2.8353,2.9192,3.0574,3.1631,3.1644,3.2305,3.2933,3.2933,3.3187,3.3387,3.3387,3.3387,3.3293,3.3013,3.2768,3.2367,3.1791,3.1183,3.0942,0.0,3.1757,3.1971,3.1738,3.1711,3.1543,3.1236,3.1176,3.0955,3.0426,3.0621,3.0621,3.0386,3.0621,3.0755,3.0742,3.0755,3.0595,3.0333,2.9419,2.8828,2.8577,2.8312,2.8179,2.8179,2.8179,2.8179,2.8179,2.8179,2.8179,2.8152,2.7802,2.7898,2.8058,0.0,0.0,0.0,0.0,0.0,0.0,0.0,0.0,0.0,0.0,0.0,0.0,0.0,0.0,0.0,0.0,1.861,2.0899,2.5275,2.5609,2.8213,3.3956,3.436,3.3678,3.2172,3.2995,3.1352,2.7121,2.7121,2.7202,2.7309,2.7309,2.7403,2.7549,2.7549,2.7697,2.7884,2.7884,2.7884,2.7831,2.7094,2.6653,2.6239,2.4863,2.3487,2.2164,0.0,2.0535,1.988,1.9386,1.925,1.9356,1.9479,1.9573,1.9663,1.9893,2.0708,2.1804,2.2993,2.4315,2.5825,2.7844,2.9155,3.0127,3.1022,3.1904,3.2532,3.2532,3.2353,3.2152,3.2152,3.2024,3.2024,3.2225,3.2746,3.3093,3.2986,3.2781,3.2166,3.0988,3.0841,0.0,0.0,0.0,0.0,3.1684,3.149,3.1423,3.1517,3.133,3.1129,3.0942,3.0849,3.0742,3.0648,3.0929,3.0982,3.0795,3.0595,3.0293,2.9766,2.9259,2.8841,2.8591,2.8326,2.8179,2.8179,2.8179,2.8179,2.8179,2.8179,2.8179,2.8179,2.8072,2.8098,2.8098,0.0,0.0,0.0,0.0,0.0,0.0,0.0,0.0,0.0,0.0,0.0,0.0,0.0,0.0,0.0,0.0,0.0,2.1384,2.5901,2.6126,2.8327,3.3338,3.3388,3.272,3.1551,3.1636,3.0059,2.6763,2.6487,2.644,2.664,2.6961,2.7201,2.7388,2.7495,2.7697,2.7857,2.7764,2.759,2.7322,2.64,2.5706,2.513,2.3661,2.2378,0.0,2.0027,1.9305,1.8851,1.8544,1.8584,1.8784,1.8865,1.9052,1.9412,2.0321,2.155,2.302,2.481,2.6226,2.7682,2.9753,3.0768,3.1463,3.2238,3.2786,3.304,3.2732,3.2051,3.141,3.1102,3.0715,3.0522,3.0982,3.1436,3.1877,3.2291,3.1917,3.1376,3.0654,3.0488,3.0301,0.0,0.0,0.0,3.145,3.1436,3.1517,3.181,3.1744,3.1704,3.1704,3.1517,3.137,3.1263,3.145,3.1396,3.1102,3.0748,3.0314,2.994,2.9432,2.9045,2.8751,2.8444,2.8286,2.8179,2.8179,2.8179,2.8179,2.8179,2.8179,2.8179,2.8179,2.8179,2.8112,0.0,0.0,0.0,0.0,0.0,0.0,0.0,0.0,0.0,0.0,0.0,0.0,0.0,0.0,0.0,0.0,0.0,0.0,2.4781,2.4425,2.6267,3.1161,3.0131,2.9659,3.0119,2.8935,2.7506,2.5866,2.5132,2.4999,2.5525,2.6345,2.6707,2.668,2.6961,2.7122,2.7108,2.6787,2.6346,2.5784,2.4863,2.3959,2.3065,2.163,2.0677,2.0037,1.8931,1.8303,1.7996,1.7729,1.809,1.8557,1.8276,1.901,2.0267,2.1724,2.3041,2.4512,2.68,2.8056,2.9245,3.1236,3.1944,3.2291,3.2853,3.3173,3.3093,3.2211,3.1503,3.0782,0.0,0.0,2.9121,2.9735,2.9726,3.002,3.1156,3.0595,3.0261,0.0,0.0,0.0,0.0,0.0,0.0,3.1162,0.0,3.1784,3.2078,3.2433,3.2594,3.2594,3.2594,3.246,3.2131,3.2104,3.1944,3.1684,3.1062,3.0782,3.0742,2.9873,2.9325,2.9001,2.8751,2.8457,2.8205,2.8205,2.8205,2.8179,2.8179,2.8179,2.8179,2.8179,2.8179,2.8138,0.0,0.0,0.0,0.0,0.0,0.0,0.0,0.0,0.0,0.0,0.0,0.0,0.0,0.0,0.0,0.0,0.0,0.0,2.5273,2.6269,2.7601,2.9475,3.0768,3.0748,2.9259,2.9535,2.8675,2.662,2.676,2.6334,2.5364,2.5941,2.5601,2.4556,2.466,2.47,2.47,2.4619,2.4342,2.3915,2.302,2.2525,2.2191,2.0935,2.0197,1.984,1.9361,1.8839,1.837,1.829,1.9092,2.0217,2.0579,2.147,2.2672,2.3928,2.5438,2.7028,2.8511,2.9887,3.1169,3.2345,3.2706,3.2799,3.2946,3.2692,3.2185,3.1303,2.978,2.839,0.0,0.0,0.0,2.9081,3.0488,0.0,3.2425,3.2345,0.0,3.155,0.0,3.1169,3.1022,3.0929,0.0,0.0,3.1543,3.1557,3.2078,3.2433,3.2594,3.2594,3.2594,3.2554,3.2487,3.2211,3.1851,3.133,3.0969,3.0675,3.0493,2.9838,2.9446,2.9352,2.9058,2.8764,2.8484,2.8484,2.8393,2.8179,2.8179,2.8179,2.8179,2.8179,2.8179,2.8179,0.0,0.0,0.0,0.0,0.0,0.0,0.0,0.0,0.0,0.0,0.0,0.0,0.0,0.0,0.0,0.0,0.0,0.0,0.0,2.543,2.6543,2.7207,2.8223,2.8282,2.7252,2.7125,2.6487,2.5321,2.5452,2.5094,2.4304,2.4417,2.4018,2.3228,2.2809,2.2706,2.2813,2.2559,2.2245,0.0,0.0,2.0762,2.0561,1.9773,1.9533,1.9589,1.916,1.9374,1.9923,2.0311,2.0869,2.1657,2.2934,2.3834,2.4796,2.636,2.7696,2.8951,3.0274,3.1423,3.2447,3.3013,3.3066,3.2812,3.2171,3.1664,3.0902,2.9366,2.7923,2.6707,2.596,2.6346,0.0,0.0,0.0,0.0,3.2238,3.2185,3.2024,0.0,3.1992,0.0,3.1623,3.161,3.1744,0.0,3.1917,3.2011,3.2465,3.2772,3.2969,3.2969,3.2969,3.2848,3.2594,3.2166,3.1744,3.1423,3.1129,3.0835,3.0574,3.0074,2.9726,2.9472,0.0,2.8991,2.8604,2.8604,2.843,2.8179,2.8179,2.8179,2.8179,2.8179,2.8179,2.8179,0.0,0.0,0.0,0.0,0.0,0.0,0.0,0.0,0.0,0.0,0.0,0.0,0.0,0.0,0.0,0.0,0.0,0.0,0.0,0.0,2.4531,2.4984,2.4609,2.459,2.5004,2.3826,2.3275,2.3464,2.3043,2.2825,2.272,2.233,2.2036,2.1811,2.0999,2.0788,2.102,2.0512,2.012,1.981,1.9386,1.9065,1.881,0.0,1.8946,1.9388,1.8891,1.995,2.1703,2.2813,2.3113,2.3394,2.5317,2.6213,2.6961,2.8871,2.9788,3.0568,3.1957,3.2706,3.316,3.3414,3.316,3.2492,3.1062,3.0354,2.9396,2.7068,2.6092,2.5449,2.4556,2.4983,2.5879,2.7215,0.0,2.9566,3.1664,3.153,3.1597,3.2701,3.2519,3.2358,3.2398,3.2318,3.2291,3.2332,3.2594,3.2808,3.2973,3.3253,3.3414,3.3414,3.3374,3.3093,3.2594,3.2045,3.1751,3.1711,3.137,3.1076,3.0782,3.0533,3.0105,2.9539,2.9539,2.9205,2.8671,2.8671,2.8457,2.8179,2.8179,2.8179,2.8179,2.8179,2.8179,2.8179,0.0,0.0,0.0,0.0,0.0,0.0,0.0,0.0,0.0,0.0,1.6895,1.7358,0.0,0.0,0.0,0.0,0.0,0.0,0.0,0.0,0.0,2.4512,2.443,2.443,2.4531,2.428,2.4179,2.4209,2.3542,2.2554,2.134,2.0605,1.9611,1.8428,1.8279,1.8251,1.8291,1.8184,1.809,1.805,1.8183,1.8369,1.8584,1.8743,0.0,0.0,1.985,2.0468,2.155,2.3937,2.5503,2.6653,2.7722,2.8778,2.9905,3.1183,3.181,3.2353,3.3307,3.3654,3.3748,3.3788,3.3026,3.1931,3.0761,2.9303,2.7629,2.5772,2.4767,2.3991,2.3322,2.4298,2.581,2.7724,2.9195,3.0908,3.3173,3.3414,3.3521,0.0,3.3761,0.0,0.0,0.0,0.0,0.0,3.3374,3.3173,3.2986,3.3253,3.3414,3.3414,3.3173,3.2942,3.2594,3.2198,3.1904,3.1711,3.137,3.1076,3.0782,3.0533,3.0167,2.9847,2.9847,0.0,2.8921,2.8921,2.8644,2.8179,2.8179,2.8179,2.8179,2.8179,2.8179,2.8179,0.0,0.0,0.0,0.0,0.0,0.0,0.0,1.6645,1.7198,1.7512,1.9129,1.964,1.8071,1.7789,1.8195,0.0,0.0,0.0,0.0,0.0,0.0,2.2813,2.2787,2.2473,2.1856,2.2054,2.2054,2.1856,0.0,2.1145,2.0201,1.9193,1.8331,1.763,1.6959,1.6754,1.6926,1.6926,1.6994,1.7168,1.7622,1.7983,1.8317,1.8918,0.0,0.0,2.0361,2.1136,2.2271,2.3897,2.5917,2.8058,2.9717,3.0841,3.1751,3.2732,3.3133,3.3424,3.3961,3.4002,3.3881,3.3881,3.2879,3.137,2.9419,2.7843,2.6199,2.4128,2.3247,2.2827,2.2659,2.3728,2.5104,2.6573,2.8016,2.9793,3.2171,3.2639,0.0,3.3988,3.4108,3.4108,0.0,0.0,0.0,0.0,3.3494,3.3347,3.3213,3.3334,3.3414,3.3414,3.3133,3.2955,3.2822,3.2332,3.2038,3.1891,3.1597,3.1303,3.1009,3.0715,3.0421,3.014,2.998,0.0,2.9001,2.9001,2.8684,2.8179,2.8179,2.8179,2.8179,2.8179,2.8179,2.8179,0.0,0.0,0.0,0.0,0.0,0.0,0.0,1.7433,1.8432,1.875,2.0854,2.1503,1.9256,1.855,1.8558,0.0,0.0,0.0,0.0,0.0,0.0,0.0,0.0,0.0,1.9906,0.0,0.0,1.9589,1.9702,0.0,0.0,0.0,0.0,0.0,1.6272,1.6032,1.6391,1.6324,1.6498,0.0,0.0,1.7889,1.8317,0.0,0.0,0.0,0.0,2.1542,2.2666,2.3589,2.5476,2.7831,3.0132,3.1577,3.2554,3.328,3.3681,3.3948,3.4242,3.4148,3.3948,3.3814,3.2625,3.0868,2.8283,2.6653,2.505,2.2873,2.2138,2.2004,2.2352,2.3233,2.4289,2.5424,2.668,2.8404,3.0955,3.1637,3.246,0.0,3.4282,0.0,3.4095,3.3961,0.0,3.3534,3.3454,3.3414,3.3414,3.3414,3.3414,3.3414,3.3133,3.2973,3.2973,3.2398,3.2104,3.2104,3.181,3.1476,3.1129,3.0902,3.0595,3.0293,3.002,0.0,0.0,2.9001,2.8684,2.8179,2.8179,2.8179,2.8179,2.8179,2.8179,2.8179,0.0,0.0,0.0,0.0,0.0,0.0,0.0,1.7433,1.8508,1.9065,2.0521,2.1647,2.1972,2.0725,1.9774,0.0,0.0,0.0,0.0,0.0,0.0,0.0,0.0,0.0,0.0,0.0,0.0,1.9858,1.9061,0.0,0.0,0.0,0.0,0.0,0.0,1.6115,1.6647,1.6404,0.0,0.0,0.0,0.0,0.0,0.0,0.0,0.0,0.0,2.1162,2.1563,2.3514,2.4516,2.528,2.7402,2.9766,3.1872,3.2171,3.304,3.3948,3.4242,3.4295,3.4148,3.3587,3.2158,3.0314,2.8177,2.6172,2.4279,2.2705,2.1977,2.1796,2.2311,2.2726,2.3669,2.5636,2.6466,2.8016,3.1183,3.2152,3.3062,3.4561,0.0,0.0,3.4735,3.4202,0.0,3.3841,3.3574,3.3414,3.3414,3.3414,3.3414,3.3414,3.3133,3.2973,3.2973,3.2398,3.2104,3.2104,3.181,3.1383,3.0835,3.0808,3.0488,2.9953,2.9927,0.0,0.0,2.9001,2.8684,2.8179,2.8179,2.8179,2.8179,2.8179,2.8179,2.8179,0.0,0.0,0.0,0.0,0.0,0.0,1.7221,1.8505,1.9885,2.1285,2.2961,2.381,2.3353,2.1848,2.0806,2.0591,0.0,0.0,0.0,0.0,0.0,0.0,0.0,0.0,0.0,0.0,1.7731,1.7731,1.7527,0.0,0.0,0.0,0.0,0.0,0.0,1.6486,1.6714,1.6805,0.0,0.0,0.0,0.0,0.0,0.0,0.0,0.0,0.0,0.0,2.1502,2.2124,2.2972,2.3892,2.4382,2.6226,2.8714,3.0915,3.2158,3.3066,3.4269,3.4456,3.4255,3.4015,3.2091,2.982,2.8096,2.5838,2.3794,2.2645,2.1951,2.1756,2.2311,2.2512,2.2979,2.4182,2.4716,2.5865,2.8404,2.9259,3.0501,3.2879,3.3531,0.0,0.0,0.0,3.4269,3.3908,3.3587,3.3414,3.3414,3.3414,3.3414,3.3414,3.3133,3.2973,3.2973,3.2398,3.2104,3.2104,3.181,3.145,3.1049,3.0875,3.0568,3.0181,2.9993,0.0,0.0,2.9232,2.8888,2.8205,2.8393,2.8353,2.8179,2.8179,2.8179,2.8179,0.0,0.0,0.0,0.0,0.0,1.6885,1.8388,1.9807,2.1175,2.2643,2.4395,2.5024,2.3717,2.2173,2.1055,2.0655,2.0372,0.0,0.0,0.0,0.0,0.0,0.0,0.0,0.0,0.0,1.6417,1.6417,1.678,1.6927,0.0,0.0,1.6859,1.6834,0.0,0.0,0.0,0.0,0.0,0.0,0.0,0.0,0.0,0.0,0.0,0.0,0.0,0.0,0.0,0.0,0.0,2.2739,2.2392,2.35,2.5571,2.8938,3.0768,3.2024,3.3504,3.4015,3.4122,3.3855,3.1904,2.9606,2.7949,2.5732,2.3741,2.2752,2.2117,2.189,2.2445,2.2472,2.2585,2.3198,2.3647,2.4583,2.6547,2.7402,2.8764,3.1289,0.0,3.2799,0.0,3.44,3.4387,3.3921,3.3587,3.3414,3.3414,3.3414,3.3414,3.3414,3.3213,3.3066,3.2973,3.2478,3.2185,3.2104,3.181,3.1517,3.1162,3.0929,3.0635,3.0386,3.0047,0.0,0.0,2.9299,2.8925,2.8339,2.8417,2.8379,2.8179,2.8179,2.8179,2.8179,0.0,0.0,0.0,0.0,0.0,0.0,1.9671,2.1067,2.2077,2.238,2.3985,2.4536,2.2984,2.1624,2.033,1.9129,1.8252,0.0,0.0,0.0,0.0,0.0,0.0,0.0,0.0,0.0,1.67,1.67,1.7314,1.7448,1.7192,1.7192,1.7192,1.7179,0.0,0.0,0.0,0.0,0.0,0.0,0.0,0.0,0.0,0.0,0.0,0.0,0.0,0.0,0.0,0.0,0.0,0.0,0.0,2.2205,2.3033,2.5999,2.8738,3.0942,3.1543,3.2822,3.3681,3.2835,3.1497,2.9864,2.7791,2.5905,2.4252,2.3134,2.2425,2.2198,2.2786,2.2619,2.2585,2.3198,2.3821,2.481,2.6533,2.7617,2.8741,0.0,0.0,3.1276,3.25,3.3424,3.3895,3.3881,3.3587,0.0,3.3414,3.3414,3.3414,3.3414,3.3414,3.3267,3.2986,3.2741,3.2447,3.2104,3.181,3.1517,3.1162,3.0929,3.0635,3.0386,0.0,0.0,0.0,2.9121,2.8828,2.8577,2.8312,2.8192,2.8179,2.8179,2.8179,2.8179,0.0,0.0,0.0,0.0,0.0,0.0,0.0,2.1234,2.1961,2.3203,2.3387,2.3341,2.3166,2.0954,1.9494,1.9546,1.8411,0.0,0.0,0.0,0.0,0.0,0.0,0.0,0.0,0.0,1.6807,1.7033,1.7609,1.7956,1.809,1.7862,1.7876,1.8077,1.7729,1.7702,0.0,0.0,0.0,0.0,0.0,0.0,0.0,0.0,0.0,0.0,0.0,0.0,0.0,0.0,0.0,0.0,0.0,0.0,0.0,2.342,2.5838,2.8337,2.9539,3.0368,3.0715,3.002,2.8738,2.7375,2.6306,2.4863,2.3581,2.3014,2.2552,2.2405,2.2827,2.2813,2.3046,2.4026,2.4346,2.4903,2.6105,0.0,0.0,3.0226,3.2273,3.3705,0.0,0.0,3.3881,3.3881,3.3587,3.3414,3.3414,3.3414,3.3414,3.3414,3.3213,3.2973,3.2741,3.2433,3.2091,3.181,3.1764,3.1517,3.1162,3.0929,3.0635,0.0,0.0,0.0,0.0,2.9593,2.9232,2.8617,2.8711,2.8511,2.8179,2.8179,2.8179,2.8179,0.0,0.0,0.0,0.0,0.0,0.0,0.0,2.0612,2.101,2.2047,2.1736,2.1461,2.1475,1.9653,1.8592,1.8933,1.7879,0.0,0.0,0.0,0.0,0.0,0.0,0.0,1.5992,1.646,1.6967,1.7515,1.7942,1.8343,1.8651,1.8584,1.8531,1.849,1.8383,1.8289,0.0,0.0,0.0,0.0,0.0,0.0,2.0739,0.0,0.0,0.0,0.0,0.0,0.0,0.0,0.0,0.0,0.0,0.0,0.0,0.0,2.3634,2.5558,2.7375,2.8417,2.8901,2.8377,2.7321,2.6213,2.5504,2.4382,2.338,2.2987,2.2712,2.2645,2.2867,2.2893,2.3134,2.3848,2.4155,2.4623,2.5543,0.0,0.0,3.0199,0.0,0.0,0.0,3.4002,3.4002,3.3895,3.3587,3.3414,3.3414,3.3414,3.3414,3.3414,3.324,3.2946,3.2594,3.2407,3.2064,3.1711,3.1711,3.157,3.1383,3.0982,3.0702,0.0,0.0,0.0,0.0,2.9673,2.9299,2.8631,2.8761,2.8577,2.8179,2.8179,2.8179,2.8179,0.0,0.0,0.0,0.0,0.0,0.0,0.0,1.9497,1.9497,1.9497,1.9428,1.9134,1.8521,1.7924,1.7558,1.7552,0.0,0.0,0.0,0.0,0.0,0.0,0.0,0.0,1.6284,1.6553,1.7129,1.7995,1.8343,1.8651,1.893,1.9212,1.908,1.8557,1.8811,1.8756,0.0,0.0,0.0,0.0,1.9983,2.0428,0.0,0.0,0.0,0.0,0.0,0.0,0.0,0.0,0.0,0.0,0.0,0.0,0.0,0.0,0.0,0.0,0.0,2.672,2.7737,2.7375,2.6694,2.5892,2.5088,2.4285,0.0,2.296,2.284,2.284,2.2893,2.2867,2.288,2.3,2.3496,0.0,0.0,2.656,0.0,0.0,3.1845,0.0,3.2607,3.3601,3.4162,3.3881,3.3574,3.3414,3.3414,3.3414,3.3414,3.3414,3.3387,3.3106,3.2607,3.2567,3.2273,3.1711,3.1711,3.1711,3.1698,3.1062,3.0795,0.0,0.0,0.0,2.9486,2.9486,2.9138,2.8604,2.8604,2.846,2.8179,2.8179,2.8179,2.8179,0.0,0.0,0.0,0.0,0.0,0.0,0.0,0.0,0.0,0.0,1.8711,1.807,1.7893,1.6919,1.6426,0.0,0.0,0.0,0.0,0.0,0.0,0.0,0.0,0.0,1.6284,1.6553,1.7129,1.7995,1.8343,1.8758,1.9294,1.9105,1.9078,1.9187,1.8998,1.9011,0.0,0.0,0.0,0.0,2.0144,2.0517,0.0,0.0,0.0,0.0,2.0855,2.0922,0.0,0.0,0.0,0.0,0.0,0.0,0.0,0.0,2.1555,2.1917,2.2465,0.0,2.4017,2.346,2.334,2.3233,0.0,2.2726,2.2632,2.2271,2.2224,2.2358,2.2813,2.2532,2.2632,2.3995,0.0,2.4823,2.5932,0.0,0.0,3.1912,3.3133,3.3547,3.2688,3.3464,3.3855,3.3547,3.3454,3.3414,3.3414,3.3414,3.3414,3.3414,3.32,3.2906,3.2594,3.2367,3.2024,3.1711,3.1711,3.1711,3.1698,3.1062,3.0795,0.0,0.0,2.9753,2.9486,2.9486,2.9138,2.8604,2.8604,2.846,2.8179,2.8179,2.8179,2.8179,0.0,0.0,0.0,0.0,0.0,0.0,0.0,0.0,0.0,0.0,0.0,0.0,0.0,0.0,0.0,0.0,0.0,0.0,0.0,0.0,0.0,0.0,0.0,1.6166,1.6484,1.6779,1.7422,1.8423,1.8583,1.9052,1.976,1.957,1.9546,1.9589,1.9265,1.9212,0.0,0.0,0.0,0.0,2.0321,0.0,0.0,0.0,0.0,0.0,2.0806,2.0869,0.0,2.0806,2.0869,2.1109,0.0,0.0,0.0,0.0,2.1229,2.1381,2.1381,2.2024,2.2579,2.2271,2.2298,2.2345,2.2218,2.2205,2.2178,2.2017,2.1991,2.2084,2.2439,2.2452,2.2752,0.0,2.4452,0.0,0.0,0.0,3.0828,3.2407,3.3169,3.3414,0.0,3.3601,3.3761,3.344,3.3414,3.3414,3.3414,3.3414,3.3414,3.3414,3.3,3.2755,3.2594,3.2251,3.1957,3.1711,3.1711,3.1597,3.145,3.0996,3.0715,0.0,0.0,2.9673,2.9285,2.9432,2.9058,2.8446,2.8551,2.846,2.8179,2.8179,2.8179,2.8179,0.0,0.0,0.0,0.0,0.0,0.0,0.0,0.0,0.0,0.0,0.0,0.0,0.0,0.0,0.0,0.0,0.0,0.0,0.0,0.0,0.0,0.0,1.6351,1.6471,1.6834,1.702,1.7689,1.8836,1.8876,1.9303,2.0077,2.0157,2.005,1.9786,1.9575,1.9468,0.0,0.0,0.0,0.0,2.0481,0.0,0.0,0.0,0.0,0.0,0.0,0.0,0.0,2.0695,2.0802,2.1042,2.0989,0.0,0.0,0.0,0.0,0.0,2.1149,2.1817,2.2445,2.2258,2.2258,2.2271,2.2198,2.2031,2.1844,2.1844,2.1844,2.1911,2.2084,2.2519,0.0,0.0,0.0,0.0,2.8684,2.9513,3.0528,3.2313,3.2688,0.0,3.3561,3.3788,3.3761,3.344,3.3374,3.3347,3.3347,3.3307,3.328,3.328,3.2808,3.2527,3.2527,3.2185,3.1904,3.1711,3.1671,3.1463,3.1162,3.0875,3.0595,3.0386,0.0,0.0,2.9015,2.9312,2.8955,2.8205,2.843,2.8419,2.8179,2.8179,2.8179,2.8179,0.0,0.0,0.0,0.0,0.0,0.0,0.0,0.0,0.0,0.0,0.0,0.0,0.0,0.0,0.0,0.0,0.0,0.0,0.0,0.0,0.0,1.7072,1.6565,1.6658,1.7435,1.7007,1.7355,1.8557,1.8783,1.9118,1.9535,2.0,2.005,1.98,1.976,1.9733,1.9733,0.0,0.0,2.0579,2.0672,0.0,0.0,0.0,0.0,0.0,0.0,0.0,0.0,2.029,2.0494,2.0695,2.041,0.0,0.0,0.0,0.0,0.0,2.1381,2.2158,2.2586,2.1563,2.1496,2.1649,2.1363,2.1283,2.1243,2.1243,2.1243,2.155,2.2572,2.2592,2.2993,0.0,0.0,2.8446,0.0,0.0,3.1824,3.2131,0.0,3.3334,3.2465,3.3293,3.3761,3.344,3.3187,3.304,3.304,3.2862,3.2728,3.2728,3.2345,3.2171,3.2171,3.1877,3.1764,3.1711,3.141,3.1276,3.1162,3.0675,3.0453,3.0386,0.0,2.9535,2.9001,2.9041,2.8724,2.8192,2.8232,2.8232,2.8179,2.8179,2.8179,2.8179,0.0,0.0,0.0,0.0,0.0,0.0,0.0,0.0,0.0,0.0,0.0,0.0,0.0,0.0,0.0,0.0,0.0,0.0,0.0,0.0,1.7635,1.7635,1.7368,1.7328,1.7582,1.7635,1.809,1.9,1.9252,1.9626,2.011,2.0347,2.0227,1.9813,1.996,1.9947,1.9826,2.0134,2.0458,2.0726,0.0,0.0,0.0,0.0,0.0,0.0,0.0,0.0,0.0,0.0,2.0201,2.0414,2.025,0.0,0.0,0.0,0.0,0.0,2.0762,2.1363,2.1857,2.1643,2.2044,2.2392,2.1924,2.1784,2.1784,2.1784,2.1951,2.2358,2.3228,0.0,2.4823,2.7094,0.0,2.9771,3.0835,3.1223,3.157,0.0,0.0,3.2893,3.2812,3.3307,3.3574,3.3427,3.3146,3.2973,3.2973,3.2755,3.2594,3.2594,3.2251,3.2104,3.2104,3.165,3.1423,3.1423,3.1129,3.0902,3.0755,3.0533,3.0239,2.9918,0.0,2.9352,2.8761,2.8761,2.8537,2.8052,2.68,2.6321,2.6151,2.4892,2.5245,2.6321,0.0,0.0,0.0,0.0,0.0,0.0,0.0,0.0,0.0,0.0,0.0,0.0,0.0,0.0,0.0,0.0,0.0,0.0,0.0,1.7809,1.7995,1.7995,1.8129,1.8103,1.7903,1.829,1.8812,1.9401,1.972,2.0201,2.0775,2.0775,2.0468,1.992,2.017,2.0174,1.9933,2.0454,2.0753,2.0802,0.0,0.0,0.0,0.0,0.0,0.0,0.0,0.0,0.0,0.0,0.0,0.0,0.0,0.0,0.0,2.0197,2.0197,2.0237,2.037,2.0837,2.1416,2.1871,2.2458,2.2899,2.2812,2.2672,2.2605,2.2852,2.3113,2.3482,0.0,2.5197,0.0,2.9205,3.0247,3.0935,3.1249,3.137,3.165,3.2332,3.2412,3.2679,3.3347,3.3414,3.3387,3.332,3.304,3.2853,3.2772,3.2554,3.2393,3.2393,3.2051,3.1891,3.1891,3.1316,3.1089,3.1223,3.0862,3.0627,3.04,3.0266,2.9958,2.9486,2.9406,2.9085,2.8604,2.8604,2.843,2.7968,2.5641,2.4337,2.3652,2.1868,2.2342,2.3867,0.0,0.0,0.0,0.0,0.0,0.0,0.0,0.0,0.0,0.0,0.0,0.0,0.0,0.0,0.0,0.0,0.0,0.0,0.0,1.7702,1.7995,1.7995,1.8543,1.8823,1.8796,1.8611,1.8812,1.9401,1.992,2.0477,2.1082,2.1082,2.0731,2.0184,2.0508,2.0481,2.0197,2.0535,2.0828,2.1082,2.1096,0.0,0.0,0.0,0.0,0.0,0.0,0.0,0.0,0.0,0.0,0.0,0.0,0.0,2.0197,2.0197,2.0197,2.0317,2.0864,2.147,2.1937,2.1977,2.1863,2.2131,2.3714,2.3434,2.314,2.4212,2.4452,0.0,0.0,2.6653,2.8419,2.9673,3.1062,3.2171,3.2746,0.0,3.3253,3.3307,3.332,3.3347,3.34,3.3414,3.3293,3.3026,3.2795,3.25,3.2185,3.1891,3.1778,3.1778,3.1436,3.1243,3.1243,3.0715,3.0688,3.1176,3.0662,3.0426,3.0386,2.9838,2.9526,2.9472,2.9192,2.8855,2.8604,2.8604,2.843,2.7968,2.5641,2.3384,2.1437,2.1264,2.1307,2.1437,0.0,0.0,0.0,0.0,0.0,0.0,0.0,0.0,0.0,0.0,0.0,0.0,0.0,0.0,0.0,0.0,0.0,0.0,0.0,1.7889,1.8303,1.8303,1.8891,1.9199,1.9199,1.9452,1.9773,2.0217,2.0588,2.0989,2.1408,2.1047,2.0628,2.021,2.0548,2.0508,2.0237,2.0748,2.1002,2.1109,2.1109,2.1109,0.0,0.0,0.0,0.0,0.0,0.0,0.0,0.0,1.9746,1.9786,1.972,1.9813,1.9933,1.9746,1.9693,1.9746,1.996,2.0886,2.1743,2.1743,2.2224,2.2979,2.4159,2.4636,2.5048,2.5825,2.6587,0.0,0.0,0.0,2.9838,3.0595,3.181,3.2786,3.3187,3.3347,3.3414,3.3414,3.3414,3.3414,3.3414,3.3253,3.3093,3.2986,3.2532,3.2144,3.1851,3.1557,3.1303,3.1129,3.1009,3.0955,3.0955,3.0381,3.0194,3.0408,3.0194,2.9993,2.9806,2.9579,2.9285,2.8938,2.8818,2.8604,2.8225,2.6795,2.6123,2.5629,2.1868,1.8976,1.6904,1.6904,1.7807,1.9106,0.0,0.0,0.0,0.0,0.0,0.0,0.0,0.0,0.0,0.0,0.0,0.0,0.0,0.0,0.0,0.0,0.0,0.0,1.7179,1.7836,1.829,1.8477,1.908,1.9441,1.9535,2.008,2.0468,2.0712,2.1056,2.1309,2.1435,2.1034,2.0655,2.0388,2.0681,2.0655,2.037,2.0895,2.1109,2.1109,2.1109,2.1109,0.0,0.0,0.0,0.0,0.0,0.0,0.0,0.0,1.9693,1.9907,1.9706,1.984,2.0013,1.972,1.9736,1.9789,1.9666,2.0472,2.1355,2.1542,2.2445,2.3665,2.5106,2.5865,2.6533,2.7589,2.823,2.8684,2.8965,0.0,0.0,0.0,3.2291,3.3187,3.3387,3.3414,3.3374,3.328,3.328,3.324,3.3146,3.2959,3.2808,3.2572,3.2198,3.1797,3.1457,3.1196,3.0996,3.0795,3.0608,3.0515,3.0515,2.994,2.9633,2.9633,2.9633,2.9539,2.9339,2.9245,2.8991,2.8604,2.8497,2.7941,2.6969,2.5373,2.3824,2.2223,1.9063,1.6378,1.4299,1.4299,1.5344,1.6685,0.0,0.0,0.0,0.0,0.0,0.0,0.0,0.0,0.0,0.0,0.0,0.0,0.0,0.0,0.0,0.0,0.0,0.0,1.7166,1.7448,1.7876,1.8464,1.908,1.9522,1.9786,2.0405,2.0712,2.0712,2.1288,2.1435,2.1109,2.1109,2.0949,2.0712,2.0975,2.0949,2.0726,2.0989,2.1109,2.1109,2.1109,2.1109,2.1109,0.0,0.0,0.0,0.0,0.0,0.0,0.0,1.997,2.021,2.0197,2.0441,2.0628,2.029,2.0441,2.0646,2.0277,2.0454,2.086,2.1448,2.2458,2.4035,2.6707,2.7041,2.7387,2.9499,2.9232,2.8898,2.9766,2.9927,0.0,3.1042,3.2452,3.34,3.3414,3.34,3.3293,3.3013,3.2973,3.2915,3.2621,3.2594,3.234,3.1764,3.1711,3.1457,3.0808,3.0782,3.0782,3.0768,3.0207,2.9913,2.9913,2.9282,2.8988,2.8988,2.8988,2.8988,2.8988,2.8738,2.8604,2.8591,2.827,2.6842,2.4691,2.4648,2.1922,1.7763,1.7763,1.6334,1.4299,1.4299,1.4299,1.4299,0.0,0.0,0.0,0.0,0.0,0.0,0.0,0.0,0.0,0.0,0.0,0.0,0.0,0.0,0.0,0.0,0.0,0.0,1.7179,1.7448,1.7756,1.8129,1.8744,1.9092,1.9185,1.993,2.0668,2.1328,2.1087,2.1141,2.1435,2.0788,2.0561,2.0712,2.0762,2.0762,2.0712,2.0762,2.0922,2.1096,2.0882,2.0922,2.1109,0.0,0.0,0.0,0.0,0.0,0.0,0.0,0.0,0.0,2.0264,2.0722,2.1141,2.0201,2.0281,2.0552,1.9813,2.0472,2.1422,2.1796,2.338,2.5344,2.7161,2.771,2.8446,3.0675,3.0608,3.0287,3.0755,0.0,0.0,3.149,3.2251,3.2929,3.308,3.2982,3.2822,3.2728,3.2492,3.2412,3.2581,3.2219,3.1898,3.1724,3.1336,3.0795,3.0207,2.998,2.978,2.9522,2.9348,2.9255,2.9255,2.8881,2.8738,2.8738,2.8511,2.8524,2.8738,2.8644,2.8484,2.8228,2.6498,2.5331,2.4434,2.1178,1.8069,1.5337,1.5337,1.4903,1.4299,1.4299,1.4299,1.4299,0.0,0.0,0.0,0.0,0.0,0.0,0.0,0.0,0.0,0.0,1.5979,1.6246,0.0,0.0,0.0,0.0,0.0,0.0,0.0,1.7234,1.7475,1.7969,1.8476,1.8918,1.9265,1.9877,2.0494,2.1029,2.082,2.0886,2.1221,2.0775,2.0735,2.106,2.1269,2.1176,2.0869,2.1096,2.1096,2.0949,2.1034,2.1056,2.1122,0.0,0.0,0.0,0.0,0.0,0.0,0.0,0.0,0.0,2.033,2.0681,2.11,2.0361,2.0307,2.0468,2.0311,2.0993,2.1943,2.2672,2.4382,2.6306,2.8016,0.0,0.0,0.0,3.1717,3.1236,3.1517,3.1623,0.0,3.1711,3.2313,3.2781,3.2848,3.2701,3.2554,3.2433,3.2104,3.1957,3.2059,3.1537,3.1149,3.0982,3.0541,3.0074,2.9548,2.9406,2.9219,2.9001,2.8881,2.8828,2.8828,2.8577,2.8417,2.8417,2.8272,2.8286,2.8417,2.8417,2.8366,2.801,2.4722,2.2783,2.1653,1.7938,1.5557,1.4299,1.4299,1.4299,1.4299,1.4299,1.4299,1.4299,0.0,0.0,0.0,0.0,0.0,0.0,0.0,0.0,0.0,0.0,1.5808,1.6021,0.0,0.0,0.0,0.0,0.0,0.0,0.0,1.6939,1.7102,1.7955,1.8384,1.8971,1.9826,2.0037,2.0157,2.0157,2.0468,2.0659,2.0712,2.0949,2.1274,2.1609,2.2111,2.1884,2.1136,2.1617,2.1408,2.0753,2.1261,2.1328,2.1136,2.1435,0.0,0.0,0.0,0.0,0.0,0.0,0.0,0.0,2.045,2.0535,2.0806,2.0726,2.0521,2.0504,2.1368,2.181,2.2405,2.3968,2.5571,2.7255,2.9205,3.0915,3.2318,3.3093,0.0,3.1864,3.2131,3.1944,3.1791,3.1791,3.2398,3.2799,3.2554,3.2487,3.2367,3.2024,3.173,3.1436,3.1169,3.0648,3.0194,2.99,2.9606,2.9312,2.8975,2.8935,2.8908,2.8908,2.8698,2.8564,2.8564,2.8326,2.8179,2.8179,2.8179,2.8179,2.8179,2.8179,2.8094,2.7617,2.3158,1.9922,1.7632,1.5256,1.4299,1.4299,1.4299,1.4299,1.4299,1.4299,1.4299,1.4299,0.0,0.0,0.0,0.0,0.0,0.0,0.0,0.0,0.0,0.0,0.0,0.0,0.0,0.0,0.0,0.0,0.0,0.0,0.0,1.7247,1.7355,1.7969,1.8771,1.9479,2.009,1.9943,1.9893,1.9893,1.996,2.0258,2.0712,2.0766,2.1074,2.1628,2.1716,2.151,2.1082,2.0717,2.0641,2.0699,2.0561,2.0762,2.1122,2.1176,2.1162,0.0,0.0,0.0,0.0,0.0,0.0,0.0,2.0962,2.1283,2.1596,2.0913,2.0993,2.1341,2.1529,2.197,2.2846,2.5074,2.7603,2.9784,3.0648,3.1503,3.2091,3.2051,3.2398,3.2719,3.2772,3.2607,3.2407,3.2407,3.2318,3.2185,3.1952,3.165,3.1396,3.1102,3.0868,3.0667,3.06,3.0221,2.9887,2.9606,2.9299,2.8961,2.8711,2.847,2.8379,2.8379,2.8312,2.8286,2.8286,2.8219,2.8179,2.8179,2.8179,2.8179,2.8179,2.8179,2.7194,2.5288,2.2428,1.9922,1.7632,1.5256,1.4299,1.4299,1.4299,1.4299,1.4299,1.4299,1.4299,1.4285,0.0,0.0,0.0,0.0,0.0,0.0,0.0,0.0,0.0,0.0,0.0,0.0,0.0,0.0,0.0,0.0,0.0,0.0,0.0,0.0,1.7568,1.8396,1.9305,1.9853,2.0027,2.0013,1.9867,1.9629,1.9629,1.9893,2.0468,2.0615,2.102,2.1596,2.1877,2.1577,2.0909,2.1029,2.0842,2.0481,2.0762,2.0962,2.1109,2.1109,2.1109,2.1096,2.0949,0.0,0.0,0.0,0.0,0.0,0.0,0.0,2.1355,2.1181,2.1141,2.1355,2.2211,2.2832,2.3915,2.656,2.8848,3.052,3.0915,3.1583,3.2064,3.1904,3.2407,3.2781,3.2585,3.2438,3.2286,3.1957,3.1664,3.137,3.1136,3.0782,3.0595,3.0581,3.0253,3.0038,3.014,2.9633,2.9232,2.9072,2.8778,2.8551,2.8433,2.8272,2.8179,2.8179,2.8179,2.8179,2.8179,2.8179,2.8179,2.8179,2.8179,2.8179,2.8179,2.8179,2.6321,2.2955,2.1739,1.928,1.6034,1.4822,1.4299,1.4299,1.4299,1.4251,1.419,1.419,1.419,1.4177,0.0,0.0,0.0,0.0,0.0,0.0,0.0,0.0,0.0,0.0,0.0,0.0,0.0,0.0,0.0,0.0,0.0,0.0,0.0,0.0,0.0,1.8958,1.9717,2.0094,1.996,2.005,1.992,1.9468,1.9428,1.9693,2.0277,2.0561,2.102,2.1609,2.2058,2.167,2.0753,2.139,2.1096,2.0197,2.0993,2.1194,2.1029,2.1029,2.1029,2.1002,2.0815,2.0869,2.1042,2.1096,0.0,0.0,0.0,0.0,2.0873,2.1368,2.1167,2.1109,2.2692,2.3861,2.5224,2.7936,2.9459,3.04,3.0648,3.1316,3.1877,3.1877,3.2206,3.2367,3.2078,3.1944,3.1704,3.1156,3.0875,3.0595,3.0306,2.9993,2.9913,3.0114,2.97,2.9486,2.9673,2.9032,2.8591,2.8537,2.8326,2.8179,2.8179,2.8179,2.8179,2.8179,2.8179,2.8165,2.8112,2.8112,2.8085,2.8031,2.8031,2.8031,2.8031,2.8031,2.5755,2.1782,2.1353,1.8757,1.4824,1.4434,1.4265,1.4265,1.4265,1.4183,1.4112,1.4041,1.4048,1.4105,0.0,0.0,0.0,0.0,0.0,0.0,0.0,0.0,0.0,0.0,1.6297,0.0,0.0,0.0,0.0,0.0,0.0,0.0,1.71,0.0,0.0,1.9308,1.9666,2.008,2.0579,2.0094,1.9813,1.9746,1.9522,1.9829,2.0615,2.0686,2.102,2.1582,2.1662,2.1328,2.0699,2.049,2.0197,1.9867,1.9987,2.0321,2.0766,2.0766,2.0766,2.0793,2.0975,2.0909,2.0806,2.1029,2.1109,0.0,0.0,0.0,2.1069,2.1149,2.1109,2.1269,2.2238,2.4275,2.6507,2.819,2.9299,3.0047,3.04,0.0,3.0969,0.0,3.141,3.1818,3.1778,3.1316,3.0862,3.0574,3.0493,3.0279,2.9717,2.9566,2.9459,2.9202,2.9108,2.8975,2.8804,2.8671,2.8497,2.8272,2.8205,2.8179,2.8179,2.8179,2.8179,2.8179,2.8179,2.8058,2.7762,2.7762,2.7629,2.7429,2.7429,2.7429,2.7429,2.7429,2.6258,2.4112,2.1959,1.9528,1.693,1.4916,1.4146,1.4146,1.4146,1.4132,1.4098,1.3919,1.3953,1.4078,0.0,0.0,0.0,0.0,0.0,0.0,0.0,0.0,0.0,0.0,0.0,1.6513,0.0,0.0,0.0,1.6046,1.6286,1.6685,1.7166,1.8023,1.8677,1.9105,1.9559,1.992,2.0174,1.9933,1.972,1.9589,1.9455,1.9936,2.0922,2.1114,2.1422,2.1823,2.1662,2.1355,2.0895,2.0601,2.0307,2.001,2.001,2.0294,2.0686,2.0494,2.0628,2.0895,2.0664,0.0,2.0909,2.0882,2.0975,2.1109,2.1109,0.0,0.0,0.0,2.1229,2.1697,2.3212,2.4877,2.6546,2.8018,2.9018,2.9713,2.9878,3.0266,3.06,3.06,3.0533,3.0641,3.1089,3.0702,3.0261,3.014,2.97,2.9285,2.9032,2.8888,2.8751,2.8791,2.8644,2.8551,2.8604,2.8444,2.8326,2.8192,2.8179,2.8179,2.8179,2.8179,2.8112,2.7938,2.7938,2.7791,2.7455,2.7496,2.7429,2.7309,2.7309,2.7309,2.7309,2.7309,2.6141,2.4088,2.1758,1.9438,1.7093,1.4981,1.4119,1.4119,1.4119,1.4021,1.3926,1.3734,1.372,1.3817,0.0,0.0,0.0,0.0,0.0,0.0,0.0,0.0,0.0,0.0,0.0,0.0,0.0,0.0,0.0,0.0,1.6072,1.6431,1.702,1.7876,1.8544,1.8876,1.9345,1.9653,1.98,1.9733,1.9615,1.9401,1.9468,2.012,2.1336,2.1662,2.2117,2.2645,2.2238,2.1743,2.1203,2.0909,2.0615,2.029,2.0107,2.0187,2.0441,2.0264,2.0424,2.0748,2.0504,0.0,0.0,0.0,0.0,0.0,2.1109,2.1109,0.0,0.0,0.0,2.1863,2.3559,2.4716,2.581,2.7349,2.8406,2.9085,2.9312,2.9713,3.002,0.0,2.9673,2.9566,3.0221,2.9993,2.9673,2.9593,2.9032,2.8577,2.8497,2.8326,2.8272,2.8457,2.8326,2.8272,2.847,2.8326,2.8179,2.8179,2.8112,2.8098,2.8179,2.8045,2.7898,2.7709,2.7629,2.7455,2.7202,2.7122,2.6798,2.6257,2.6784,2.65,2.5458,2.6,2.4968,2.2729,2.1201,1.8894,1.6071,1.4593,1.396,1.396,1.396,1.3892,1.3727,1.3585,1.3551,1.3599,0.0,0.0,0.0,0.0,0.0,0.0,0.0,0.0,0.0,0.0,0.0,0.0,1.7152,1.6645,1.6284,1.627,1.6005,1.6075,1.6687,1.7542,1.8303,1.8863,1.893,0.0,1.9786,1.9562,1.9415,1.9401,1.9639,2.0521,2.1951,2.2231,2.3105,2.4426,2.3572,2.2605,2.1542,2.1216,2.0922,2.0619,1.9776,1.9586,1.9867,2.0104,0.0,0.0,0.0,0.0,0.0,0.0,0.0,0.0,0.0,0.0,2.1109,0.0,0.0,0.0,2.2251,2.3193,2.4338,2.6039,2.7148,2.8016,2.8828,2.9041,2.9068,2.9068,2.9041,2.9028,2.9081,2.9068,2.8948,2.8724,2.8631,2.8497,2.8245,2.8192,2.8192,2.8205,2.8192,2.8192,2.8205,2.8192,2.8179,2.8179,2.7924,2.7843,2.8165,2.7657,2.7469,2.7696,2.7428,2.7148,2.6854,2.6573,2.5368,2.3336,2.5461,2.428,2.0343,2.2372,2.2131,2.012,2.0242,1.7817,1.3767,1.369,1.3612,1.3612,1.3612,1.3605,1.3578,1.3471,1.3505,1.3565,0.0,0.0,0.0,0.0,0.0,0.0,0.0,0.0,0.0,0.0,0.0,0.0,0.0,1.6673,1.6498,1.631,1.6538,1.6792,1.7006,1.7635,1.8183,1.8624,1.8824,1.9105,1.9548,1.9455,1.9401,1.9401,1.9495,2.011,2.1194,2.1676,2.2245,2.2939,2.3006,2.2827,2.2345,2.1069,2.045,0.0,0.0,0.0,0.0,0.0,0.0,0.0,0.0,0.0,0.0,0.0,0.0,0.0,0.0,0.0,0.0,0.0,2.1109,2.1296,2.2145,2.2659,2.3287,2.4863,2.6066,2.6947,2.7268,2.8083,2.8711,2.8511,2.8513,2.8524,2.8724,2.8721,2.8724,2.8631,2.8444,2.8312,2.8205,2.8179,2.8179,2.8179,2.8179,2.8179,2.8179,2.8179,2.8112,2.7911,2.7762,2.7669,2.763,2.7416,2.7269,2.7134,2.6854,2.6466,2.5985,2.5879,2.4791,2.2725,2.3519,2.2454,1.9815,2.0564,1.9765,1.7792,1.7864,1.6996,1.541,1.4126,1.3585,1.3585,1.3585,1.3585,1.3565,1.3458,1.3437,1.3492,0.0,0.0,0.0,0.0,0.0,0.0,0.0,0.0,0.0,1.6834,0.0,0.0,0.0,0.0,1.6765,1.6471,1.6886,1.7206,1.7206,1.7622,1.8063,1.8477,1.8677,1.8958,1.9388,1.9294,1.9225,1.9225,1.9348,1.9843,2.0726,2.1315,2.1903,2.2432,2.2465,2.2559,2.2666,2.1363,0.0,2.0601,0.0,0.0,1.9973,0.0,0.0,0.0,0.0,0.0,0.0,0.0,0.0,0.0,0.0,0.0,0.0,0.0,0.0,2.1243,2.1817,2.2124,2.2632,2.4079,2.501,2.5692,2.6373,2.7148,2.7749,2.7871,2.7965,2.8098,2.8257,2.8297,2.8297,2.8297,2.8165,2.8005,2.7898,2.7884,2.7884,2.7884,2.7884,2.7884,2.7884,2.7884,2.7844,2.7709,2.7522,0.0,2.7415,2.7175,2.6841,2.6547,2.6253,2.5905,2.5518,2.5518,2.4137,2.1384,2.2133,2.0732,1.7483,1.8191,1.7747,1.634,1.5723,1.55,1.5399,1.4083,1.3511,1.3511,1.3511,1.3511,1.3539,1.3437,1.3403,1.3417,0.0,0.0,0.0,0.0,0.0,0.0,0.0,0.0,1.7219,1.7219,0.0,0.0,0.0,0.0,0.0,1.6754,1.7033,1.7233,1.7219,1.7461,1.7889,1.8464,1.8504,1.8799,1.9388,1.9078,1.8903,1.8903,1.9225,1.9829,2.0686,2.1261,2.2158,2.3145,2.2077,2.1877,2.2352,0.0,2.181,2.1475,0.0,1.9987,2.0304,0.0,0.0,0.0,2.1977,2.1811,0.0,0.0,0.0,0.0,0.0,0.0,0.0,0.0,0.0,0.0,0.0,0.0,0.0,2.3754,2.3928,2.4262,2.6253,2.6293,2.6198,2.7081,2.7442,2.7655,2.7682,2.7682,2.7682,2.7669,2.7682,2.7589,2.7349,2.7309,2.7309,2.7309,2.7309,2.7309,2.7309,2.7309,2.7416,2.7655,2.7148,2.7068,2.7629,2.6841,2.6279,2.5984,2.5651,2.5491,2.5491,2.5491,2.3407,1.9298,2.144,1.918,1.3149,1.5233,1.6089,1.5829,1.3981,1.3254,1.3397,1.3397,1.3403,1.3403,1.3403,1.3403,1.3403,1.3403,1.3403,1.3403,0.0,0.0,0.0,0.0,0.0,0.0,1.7555,1.7488,1.7488,0.0,0.0,0.0,1.7622,1.7702,1.7662,1.7394,1.7822,1.7956,1.7515,1.7756,1.8063,1.8477,1.8691,1.8985,1.9388,1.9321,1.9267,1.9267,1.9361,1.9522,1.9762,2.0137,2.0575,2.1051,2.0975,2.1034,2.1122,2.0615,0.0,2.1149,2.0187,2.0107,0.0,0.0,0.0,0.0,0.0,2.1724,2.1991,0.0,2.1657,2.1884,0.0,0.0,0.0,0.0,0.0,0.0,2.0557,0.0,0.0,0.0,0.0,0.0,2.387,2.4502,2.5197,2.5865,2.6239,2.6667,2.7309,2.7429,2.7308,2.7094,2.7241,2.7403,2.7322,2.7309,2.7309,2.7309,2.7309,2.7309,2.7309,2.7309,2.7255,0.0,2.6867,2.68,2.6747,2.6359,2.5891,2.5382,2.5237,2.509,2.4839,2.4839,2.3542,2.0932,2.1537,1.9458,1.5057,1.5629,1.5161,1.3789,1.3278,1.3146,1.3247,1.3356,1.3403,1.3403,1.3403,1.3403,1.3403,1.3403,1.3403,1.3403,0.0,0.0,0.0,0.0,0.0,1.845,1.805,1.8063,1.8103,0.0,0.0,0.0,1.7983,1.8223,1.8277,1.801,1.817,1.8156,1.7796,1.7796,1.8022,1.8477,1.8651,1.8931,1.9388,1.9267,1.9185,1.9185,1.9185,1.9185,1.9185,1.9479,1.9773,2.0024,2.0107,2.0298,2.0468,0.0,0.0,0.0,2.0508,0.0,0.0,2.1411,2.1817,0.0,0.0,0.0,2.306,2.2372,2.2198,0.0,0.0,0.0,0.0,0.0,0.0,0.0,0.0,0.0,0.0,0.0,0.0,0.0,2.2886,2.33,2.3808,0.0,2.5197,2.5598,2.6279,2.6453,2.648,2.6306,2.6426,2.6653,2.6907,2.6841,2.68,2.6921,2.6827,2.676,2.676,2.676,2.6734,2.664,2.5634,2.4585,2.3584,2.4042,2.4176,2.3807,2.4494,2.4387,2.3351,2.3339,2.2262,2.0124,1.9367,1.7736,1.5404,1.4683,1.4206,1.3916,1.3195,1.3427,1.4233,1.3581,1.3342,1.3403,1.3403,1.3437,1.3498,1.3498,1.3532,1.3573,0.0,0.0,1.9321,1.9065,1.9212,1.9227,1.8704,1.8824,1.8891,0.0,1.8637,1.8651,1.8677,1.885,1.8905,1.8611,1.8316,1.8143,1.8076,1.7862,1.7969,1.8517,1.8571,1.8866,1.9388,1.9105,1.8971,1.8971,1.8971,1.8971,1.8956,1.9267,1.9535,1.9746,1.9508,1.9653,2.009,0.0,0.0,2.0655,2.1015,2.151,0.0,0.0,2.3487,0.0,2.4102,2.4222,2.4115,2.3295,2.2559,0.0,0.0,0.0,0.0,0.0,2.0882,0.0,0.0,0.0,0.0,0.0,0.0,0.0,2.2699,2.2485,2.2365,0.0,2.4182,2.4466,2.4863,2.5144,2.5317,2.5317,2.5371,2.5638,2.6253,2.6131,2.6038,2.6266,2.6105,2.5944,2.5944,2.5944,2.6051,2.6266,2.3936,2.1683,1.9863,2.1176,2.2004,2.198,2.3665,2.3746,2.1902,2.1666,2.0634,1.8716,1.6824,1.5692,1.5166,1.3649,1.3672,1.4877,1.3303,1.3713,1.5321,1.3745,1.3207,1.3376,1.3397,1.3492,1.3585,1.3585,1.3673,1.3781,0.0,1.9158,1.9455,1.9599,1.9508,1.9441,1.9533,1.9428,1.9374,1.9519,1.9546,1.9626,1.9837,1.9703,1.9519,1.9254,1.9174,1.8905,1.8437,1.8571,1.8718,1.8838,1.9065,1.9281,1.9388,1.9348,1.9308,1.9308,1.9308,1.9308,1.9308,1.9374,1.9428,1.9481,1.9428,1.9455,1.9589,0.0,0.0,2.0357,2.1194,0.0,2.2378,2.2792,2.3335,2.3843,2.4102,2.4356,2.4412,0.0,2.2907,2.1951,0.0,0.0,0.0,0.0,0.0,0.0,0.0,0.0,0.0,0.0,0.0,0.0,2.1336,2.1636,2.2071,2.2365,2.2645,2.3086,2.3888,2.4111,2.4151,2.4151,2.4502,2.5104,2.5971,2.5785,2.5625,2.5678,2.5638,2.5598,2.5598,2.5598,2.5625,2.5678,2.3686,2.2194,2.1563,2.181,2.1883,2.1672,2.3562,2.4295,2.3692,2.2178,2.1861,2.2675,2.0716,1.893,1.7285,1.6957,1.53,1.27,1.235,1.2554,1.3123,1.2759,1.2861,1.3268,1.3356,1.3492,1.3585,1.3585,1.3673,1.3795,1.9145,1.9386,1.9626,1.9773,1.98,1.984,2.0,2.0013,2.0057,1.9983,2.0147,2.0241,2.0197,2.0077,1.9893,1.9613,1.9481,1.9214,1.8731,1.881,1.889,1.889,1.9065,1.9279,1.9573,1.9468,1.9468,1.9615,1.9468,1.9401,1.9401,1.9401,1.9321,1.9158,1.9334,1.9321,1.9199,0.0,2.0197,2.029,2.1349,0.0,2.2686,2.3174,2.3897,2.4623,2.4476,2.4479,2.4492,2.3794,2.3153,0.0,0.0,2.1884,2.1683,0.0,2.1355,2.139,0.0,0.0,0.0,2.1181,0.0,0.0,0.0,2.1109,2.1243,2.1716,2.1689,2.1777,2.2559,2.2813,2.3014,2.3308,2.3688,2.4159,2.482,2.5117,2.5017,2.4301,2.484,2.4911,2.3846,2.4708,2.4808,2.3656,2.2756,2.1245,1.8897,1.9724,2.0156,1.9879,2.1989,2.2878,2.2465,2.0729,2.0129,2.0638,1.7743,1.6275,1.611,1.5232,1.3793,1.1952,1.2064,1.2227,1.24,1.2474,1.2678,1.2976,1.32,1.3376,1.3526,1.3558,1.3673,1.3788,1.9401,1.9629,1.9813,1.9867,2.009,2.0304,2.0357,2.0561,2.0588,2.0317,2.0628,2.0779,2.0508,2.0397,2.0344,2.0307,1.9816,1.9468,0.0,0.0,1.9011,1.9011,1.9011,1.917,1.9626,1.9481,1.9508,1.972,1.9508,1.9401,1.9401,1.9401,1.9267,1.9025,1.9294,1.9265,1.9116,0.0,0.0,2.0464,0.0,2.2305,2.28,2.3536,2.4396,2.5211,2.4813,2.4679,2.4546,2.3701,0.0,2.3145,2.2338,2.2231,0.0,0.0,0.0,0.0,0.0,0.0,0.0,0.0,0.0,2.1181,0.0,0.0,0.0,2.1301,2.1034,2.086,0.0,0.0,0.0,2.2305,0.0,0.0,0.0,2.4165,0.0,2.2632,2.348,2.3415,2.1441,2.2743,2.3154,2.1714,2.1395,1.9573,1.5693,1.7474,1.8303,1.7638,1.9788,2.0706,2.0177,1.8843,1.7941,1.7404,1.4299,1.3578,1.4893,1.3486,1.2649,1.2299,1.2463,1.2447,1.2257,1.2372,1.2542,1.272,1.3057,1.3268,1.3417,1.3531,1.3673,1.3781,1.9441,1.9629,1.988,2.0104,2.0428,2.0708,2.0975,2.0815,2.0699,2.0659,2.1141,2.1475,2.1435,0.0,0.0,0.0,0.0,0.0,2.1221,0.0,1.9348,1.9348,1.9348,1.9225,1.8996,1.9252,1.9415,1.9441,1.9415,1.9401,1.9401,1.9401,1.9374,1.9348,1.9388,1.9522,1.972,0.0,2.0504,0.0,2.1724,2.2031,0.0,2.3375,2.4008,2.4409,2.4863,2.5024,2.489,0.0,2.3541,2.3185,0.0,2.2392,0.0,0.0,0.0,0.0,0.0,0.0,0.0,0.0,2.2117,0.0,0.0,0.0,2.159,2.0953,0.0,0.0,0.0,0.0,0.0,0.0,0.0,0.0,2.2184,2.276,2.2558,2.0959,2.0936,2.0374,1.8701,1.8642,1.9533,2.1431,1.9719,1.7659,1.5599,1.7474,1.773,1.5849,1.7686,1.8517,1.8233,1.7924,1.7602,1.7218,1.6795,1.668,1.6861,1.668,1.5664,1.411,1.4135,1.3369,1.2125,1.2145,1.2352,1.272,1.3057,1.3268,1.3417,1.3531,1.3673,1.3795,1.9428,1.9733,2.001,1.9987,2.0374,2.0753,2.0842,2.1189,2.1408,2.1234,2.1582,2.197,0.0,0.0,0.0,0.0,0.0,2.1309,0.0,0.0,0.0,1.988,0.0,0.0,1.965,1.9508,1.9481,1.9626,1.9481,1.9401,1.9401,1.9401,1.9401,1.9401,1.9401,0.0,1.9813,0.0,2.0481,0.0,0.0,0.0,0.0,2.3281,2.4062,2.4479,2.493,2.497,2.4716,0.0,2.3723,0.0,0.0,0.0,0.0,0.0,0.0,0.0,0.0,0.0,0.0,0.0,0.0,0.0,0.0,0.0,2.1208,0.0,0.0,0.0,0.0,0.0,0.0,0.0,2.0695,0.0,0.0,0.0,2.0261,0.0,0.0,0.0,1.8045,1.782,1.8212,1.9263,1.85,1.7709,1.7019,1.6814,1.6766,1.6992,1.6794,1.701,1.7677,1.6703,1.5984,1.5557,1.4476,1.3951,1.3951,1.3951,1.3523,1.2781,1.2781,1.2503,1.2098,1.2098,1.2325,1.2713,1.2963,1.318,1.3288,1.3437,1.3532,1.3587,1.9401,0.0,0.0,1.9947,2.0334,2.0726,2.0788,2.1336,2.1729,0.0,0.0,0.0,2.2947,2.2719,0.0,0.0,0.0,2.2552,0.0,0.0,2.0935,0.0,0.0,0.0,0.0,0.0,1.9575,1.9679,1.9495,1.9441,1.9522,1.9522,1.9562,1.9613,1.9722,1.987,2.0067,0.0,2.0762,2.1114,2.1622,2.197,2.2305,2.3308,2.4008,2.4519,2.485,2.4823,2.4519,2.4062,2.3924,0.0,2.383,0.0,0.0,0.0,0.0,0.0,2.2425,0.0,0.0,0.0,0.0,0.0,0.0,0.0,0.0,0.0,0.0,0.0,0.0,0.0,0.0,0.0,0.0,2.0548,0.0,1.9556,0.0,0.0,0.0,0.0,0.0,1.7489,1.6837,1.7508,1.7137,1.7017,1.7275,1.5999,1.59,1.7348,1.5573,1.5065,1.6012,1.5347,1.4536,1.3622,1.2781,1.2359,1.2359,1.2359,1.2359,1.2359,1.2446,1.2328,1.2104,1.2145,1.2366,1.2706,1.2901,1.3091,1.3234,1.3342,1.3403,1.3403,1.9401,1.9613,0.0,0.0,2.0468,2.0806,2.1056,0.0,0.0,0.0,0.0,0.0,0.0,0.0,0.0,0.0,0.0,2.3834,2.4088,0.0,2.1181,0.0,0.0,1.996,0.0,0.0,1.9653,1.9415,1.9401,1.9535,1.9786,1.9786,1.9933,2.0184,2.0508,2.0672,2.0712,2.1301,2.1716,2.1964,2.2271,2.2913,2.371,0.0,2.3701,2.4249,2.4506,0.0,0.0,2.4289,2.4195,0.0,0.0,0.0,0.0,0.0,0.0,0.0,0.0,0.0,0.0,2.2205,0.0,0.0,0.0,0.0,2.1475,0.0,0.0,0.0,0.0,0.0,0.0,0.0,0.0,0.0,0.0,0.0,0.0,0.0,0.0,0.0,0.0,1.6876,1.4631,1.7032,1.5408,1.457,1.5177,1.5146,1.5242,1.5561,1.3497,1.2368,1.2277,1.3908,1.3705,1.1727,1.3488,1.4326,1.4326,1.4326,1.4326,1.4334,1.4527,1.366,1.2111,1.2223,1.2461,1.2706,1.2901,1.3091,1.3234,1.3342,1.3403,1.3403,0.0,0.0,0.0,0.0,0.0,0.0,0.0,2.1443,0.0,0.0,0.0,0.0,0.0,0.0,2.5785,0.0,0.0,2.5304,2.4823,2.371,0.0,0.0,0.0,2.1047,0.0,0.0,0.0,0.0,1.9947,1.9987,2.005,1.9893,2.0054,2.0508,2.0227,2.0414,0.0,0.0,0.0,0.0,0.0,2.2966,2.3817,0.0,0.0,2.4466,2.4559,2.4599,0.0,2.4492,2.4369,2.4222,2.4315,2.4075,2.383,2.3875,2.3848,0.0,0.0,0.0,2.3688,2.2827,0.0,0.0,0.0,0.0,0.0,0.0,0.0,0.0,0.0,0.0,0.0,0.0,0.0,0.0,0.0,0.0,0.0,0.0,0.0,0.0,0.0,0.0,1.4768,1.4645,1.3921,1.3764,1.4474,1.3501,1.3643,1.5205,1.3406,1.2311,1.2098,1.2674,1.2516,1.1619,1.2252,1.2538,1.2538,1.2538,1.2538,1.2545,1.2699,1.25,1.2111,1.223,1.2467,1.2693,1.2786,1.2956,1.3234,1.3342,1.3403,1.3403,1.9973,0.0,0.0,0.0,0.0,0.0,0.0,0.0,0.0,0.0,2.4569,0.0,2.6827,0.0,2.6854,0.0,2.7028,2.6346,2.5195,2.478,0.0,2.3207,2.2666,0.0,0.0,0.0,0.0,0.0,0.0,2.0388,2.0357,2.0201,2.0374,2.0815,2.0579,2.0681,2.1136,2.1443,2.163,0.0,0.0,2.2993,0.0,0.0,2.4142,2.4439,0.0,2.4329,2.4342,2.4412,2.4356,2.4249,2.4506,2.4302,2.3968,2.4155,2.4075,2.3937,2.383,2.3981,0.0,2.322,2.2806,0.0,2.1877,0.0,0.0,0.0,0.0,0.0,0.0,0.0,0.0,0.0,0.0,0.0,0.0,1.9481,0.0,0.0,0.0,0.0,0.0,0.0,1.5991,1.4913,1.3708,1.359,1.4895,1.2909,1.2751,1.5018,1.3398,1.2359,1.2104,1.2098,1.1911,1.1584,1.1584,1.1584,1.1584,1.1584,1.1584,1.1626,1.1732,1.1918,1.2111,1.223,1.2433,1.2618,1.2773,1.2929,1.3159,1.3268,1.3356,1.3403,0.0,0.0,0.0,0.0,2.1194,0.0,0.0,0.0,2.3924,0.0,2.5331,2.6426,2.7322,2.7403,2.7603,2.8138,2.7924,0.0,2.5355,2.5743,0.0,0.0,2.3589,2.3335,2.2164,0.0,0.0,0.0,0.0,2.0739,2.0753,2.0712,2.0815,2.1122,2.1422,2.1395,2.1162,2.2031,2.2245,2.2058,2.2666,2.306,2.3305,2.3278,2.3639,2.4142,2.391,2.3803,2.3843,2.4088,2.4195,2.4249,2.4492,2.4399,2.4222,2.4222,2.4222,2.4168,2.3924,2.4008,2.4062,2.3452,0.0,0.0,0.0,0.0,2.1943,0.0,0.0,0.0,0.0,0.0,0.0,0.0,0.0,0.0,0.0,0.0,0.0,0.0,0.0,0.0,0.0,1.9144,1.8026,1.7637,1.4828,1.4032,0.0,1.3362,1.2706,1.4846,1.3346,1.2352,1.2104,1.2098,1.1911,1.1584,1.1584,1.1584,1.1584,1.1584,1.1584,1.1626,1.1732,1.1918,1.2111,1.223,1.2372,1.2528,1.286,1.2989,1.3016,1.3166,1.3275,1.3403,2.0615,2.0922,2.1274,0.0,2.1127,2.1154,0.0,0.0,0.0,0.0,2.6787,2.7669,2.8791,2.8711,2.847,2.8205,2.8112,0.0,0.0,0.0,0.0,2.5825,2.5117,2.4633,2.4289,2.3241,0.0,2.2224,0.0,2.1109,2.1341,2.0655,2.0584,2.1109,2.0993,2.0975,2.1149,2.1817,2.2178,2.2338,2.2746,2.3215,0.0,0.0,2.3388,2.391,2.383,2.3803,2.3817,2.3897,2.4022,2.4222,2.4289,2.4372,2.4492,2.4492,2.4492,2.4479,2.4399,2.4315,2.4115,2.3741,2.3086,2.2498,0.0,0.0,0.0,0.0,0.0,0.0,0.0,0.0,0.0,0.0,0.0,0.0,0.0,0.0,0.0,2.0037,0.0,0.0,0.0,1.9754,1.8877,1.7694,1.687,1.5616,1.3884,0.0,1.3117,1.2511,1.2391,1.225,1.2098,1.2098,1.1911,1.1584,1.1584,1.1584,1.1584,1.1584,1.1584,1.1626,1.1732,1.1918,1.2111,1.223,1.2372,1.2508,1.2589,1.2799,1.303,1.3247,1.337,1.3403,2.1127,0.0,0.0,2.2158,0.0,0.0,2.3086,0.0,0.0,2.652,2.7442,0.0,2.8861,2.9098,2.9045,2.8577,2.846,0.0,2.7362,0.0,0.0,2.6653,2.6119,2.5598,2.5128,2.3924,0.0,2.2519,0.0,2.1355,2.1381,2.0855,2.0757,2.1096,2.0935,2.0962,2.1136,2.1636,2.2144,2.2619,2.2645,2.2987,0.0,2.3027,2.3108,2.3415,2.3415,2.3415,2.3429,2.3527,2.3688,2.3861,2.4128,2.4315,2.4439,2.4559,2.4506,2.4412,2.4412,2.4235,2.3981,2.3843,2.3287,2.2745,2.2645,2.2378,2.2138,0.0,0.0,0.0,0.0,0.0,0.0,0.0,0.0,0.0,0.0,0.0,0.0,0.0,1.9826,0.0,1.9997,1.9893,1.9466,1.8615,1.8091,1.6713,0.0,0.0,1.3346,1.1553,1.2081,1.2277,1.2098,1.2166,1.2047,1.1809,1.1681,1.1617,1.1671,1.1647,1.1584,1.159,1.1665,1.1864,1.2104,1.2193,1.2311,1.2515,1.2651,1.2887,1.3125,1.3315,1.3403,1.3403,0.0,0.0,0.0,0.0,0.0,0.0,0.0,2.5066,0.0,2.6987,0.0,2.8513,2.8473,2.9142,2.9392,2.8975,0.0,2.815,2.7068,2.7764,2.7724,2.6667,2.6787,2.64,2.5422,2.4352,0.0,0.0,0.0,2.1422,2.1162,2.1082,2.1069,2.1109,2.1109,2.1109,0.0,2.1462,2.2024,2.2706,2.2445,2.2539,2.284,2.28,2.2786,2.2786,2.2827,2.2867,2.2934,2.318,2.3265,2.3385,2.3928,2.4115,2.4195,2.4412,2.416,2.3766,2.3766,2.3556,2.3381,2.3381,2.3311,2.3193,2.296,2.2632,2.2352,2.2098,2.181,2.1569,0.0,0.0,0.0,0.0,0.0,0.0,0.0,0.0,0.0,0.0,0.0,0.0,0.0,1.9645,1.9526,1.9526,1.8422,0.0,0.0,0.0,1.3612,1.2156,1.2314,1.2426,1.2499,1.2374,1.2223,1.2125,1.1809,1.1692,1.1793,1.1665,1.164,1.1584,1.1604,1.1803,1.2098,1.2118,1.2264,1.2562,1.2887,1.3091,1.3234,1.3342,1.3403,1.3403,0.0,0.0,0.0,0.0,0.0,2.5825,2.6987,2.7589,2.8177,2.8925,2.978,3.0234,3.0038,2.99,2.9526,2.8751,2.8631,0.0,0.0,0.0,0.0,2.7884,2.7456,2.7135,2.6921,2.4874,2.3781,0.0,0.0,0.0,2.1502,2.1007,2.0882,2.1109,2.1109,2.1109,2.1122,2.1462,0.0,2.1836,2.1991,2.2231,2.2472,2.2231,2.2171,2.2211,2.2405,2.2659,2.2907,2.296,2.3113,2.3305,2.3412,2.3647,2.3897,2.395,2.2773,2.1474,2.1474,2.1281,2.1088,2.1088,2.2027,2.296,2.2907,2.2632,2.2405,2.2352,2.1957,2.1515,2.1229,0.0,0.0,0.0,0.0,0.0,0.0,0.0,0.0,0.0,0.0,2.013,0.0,0.0,0.0,0.0,0.0,0.0,0.0,0.0,1.4343,0.0,1.3285,0.0,0.0,0.0,1.2277,1.225,1.2104,1.1932,1.1793,1.1766,1.1692,1.1626,1.1705,1.1898,1.2111,1.2234,1.2427,1.2705,1.2888,1.3091,1.3234,1.3342,1.3403,1.3403,0.0,0.0,0.0,0.0,0.0,0.0,0.0,2.9526,0.0,2.9753,2.9806,2.9766,2.9486,2.986,2.9793,2.8911,2.8831,2.8631,2.8219,2.8179,2.8179,2.8179,2.7764,0.0,2.7041,2.5184,2.4062,2.3719,0.0,0.0,2.1309,2.1029,2.0975,2.1096,2.0949,2.1087,0.0,0.0,0.0,2.181,2.1796,2.1937,2.2178,2.2044,2.1991,2.2004,2.2151,2.2285,2.2492,2.28,2.2859,2.2878,2.3198,2.342,2.3567,2.3763,2.2342,2.0912,2.1896,2.1227,2.0519,2.1508,2.2332,2.2893,2.2893,2.2786,2.2565,2.2258,2.201,2.1622,2.1002,2.0655,0.0,0.0,0.0,0.0,0.0,0.0,0.0,0.0,0.0,0.0,0.0,0.0,0.0,0.0,0.0,0.0,0.0,0.0,1.561,0.0,0.0,0.0,1.5005,0.0,1.3457,1.24,1.2207,1.2057,1.1945,1.187,1.1759,1.1698,1.1766,1.1965,1.2234,1.2427,1.2556,1.2644,1.2949,1.3105,1.3132,1.3315,1.3403,1.3403,0.0,2.5079,0.0,0.0,2.7697,0.0,2.9597,3.0855,3.1343,3.0408,2.9887,2.9415,2.9112,2.9847,3.0007,2.9068,2.8935,2.8724,2.8219,2.8179,2.8179,2.8179,2.7802,2.7388,2.6921,2.5386,2.4172,0.0,0.0,0.0,0.0,2.1082,2.1082,2.1002,0.0,0.0,0.0,0.0,2.1141,2.1777,2.1582,2.1662,2.1917,2.183,2.1804,2.1817,2.1937,2.1951,2.201,2.2599,2.2565,2.2418,2.2932,2.3105,2.3158,2.3522,2.2029,2.0636,2.2106,2.1269,2.0245,2.1295,2.1932,2.2181,2.1761,2.1932,2.2062,2.1521,2.1621,2.1577,2.0846,2.0753,0.0,0.0,0.0,0.0,0.0,0.0,0.0,0.0,0.0,0.0,0.0,0.0,0.0,0.0,0.0,0.0,1.802,0.0,0.0,0.0,0.0,1.501,1.493,0.0,1.4076,1.2549,1.2284,1.2179,1.2145,1.1986,1.1874,1.1884,1.1874,1.2081,1.2352,1.2584,1.2618,1.2589,1.301,1.3146,1.3077,1.3302,1.3403,1.3403,0.0,0.0,0.0,0.0,0.0,0.0,3.0266,3.1109,3.1671,3.1564,3.1463,3.1209,3.0648,3.0493,3.0007,2.9068,2.8804,2.8497,2.8205,2.8179,2.8179,2.8179,2.7643,2.7322,2.7269,2.5518,2.4172,0.0,0.0,0.0,0.0,0.0,0.0,0.0,0.0,0.0,0.0,2.0619,2.0882,2.1189,2.1162,2.1323,2.1596,2.1296,2.1189,2.1269,2.179,2.185,2.1716,2.2258,2.2271,2.2084,2.2405,2.2465,2.2565,2.2893,2.1414,1.9711,1.9916,1.979,1.9232,1.7618,1.8776,1.9854,1.7996,1.8765,1.9832,1.9513,2.0371,2.1082,2.0766,2.0895,2.0975,0.0,0.0,0.0,0.0,0.0,0.0,0.0,0.0,0.0,0.0,2.0085,0.0,0.0,1.801,0.0,0.0,0.0,0.0,1.8909,1.6202,1.4869,1.5085,1.3556,1.2763,1.2665,1.2542,1.2393,1.2271,1.225,1.2176,1.2084,1.2189,1.2338,1.2494,1.2625,1.2679,1.2739,1.3051,1.3207,1.3214,1.3342,1.3403,1.3403,0.0,0.0,0.0,0.0,0.0,0.0,0.0,3.1597,3.1864,3.1738,3.1517,3.1183,3.0595,3.0274,2.9806,2.9055,2.8735,2.847,2.8205,2.8179,2.8179,2.8179,2.7791,2.7442,2.7309,2.5879,2.4649,0.0,0.0,0.0,0.0,0.0,0.0,0.0,0.0,2.0708,2.0762,2.0695,2.0842,2.1122,2.1309,2.1368,2.1296,2.1381,2.1269,2.1162,2.1609,2.1689,2.1649,2.2017,2.2205,2.2231,2.2178,2.2405,2.2672,2.2619,2.1313,2.0151,2.1261,2.0769,1.9703,1.8912,2.0254,2.1249,1.93,2.0276,2.1493,2.1179,2.1417,2.1246,1.9907,1.9784,1.974,0.0,0.0,0.0,0.0,0.0,0.0,0.0,0.0,0.0,0.0,0.0,0.0,0.0,0.0,0.0,0.0,0.0,0.0,1.9109,0.0,1.4756,1.498,1.4524,1.3713,1.2589,1.2528,1.2427,1.2291,1.2291,1.2257,1.2247,1.2352,1.2501,1.2611,1.2807,1.2868,1.2901,1.3193,1.3254,1.3234,1.3342,1.3403,1.3403,2.9325,0.0,2.9566,0.0,3.0855,3.1136,3.1704,3.1891,3.1864,3.157,3.1209,3.0808,3.0453,3.002,2.9553,2.8921,2.8644,2.8419,2.8205,2.8179,2.8179,2.8179,2.7817,0.0,2.7309,2.6119,2.4983,2.3937,2.3086,0.0,0.0,0.0,0.0,0.0,2.0873,2.0922,2.1096,2.0802,2.0927,2.1256,2.1408,2.1381,2.1256,2.1408,2.1328,2.1162,2.1582,2.1716,2.1756,2.2017,2.2311,2.2498,2.2205,2.2392,2.2746,2.2579,2.1701,2.1059,2.2385,2.1791,2.0622,2.0057,2.1052,2.1672,1.9658,2.0756,2.2207,2.2364,2.2191,2.1384,1.9415,1.951,1.945,1.8109,0.0,0.0,0.0,0.0,0.0,0.0,1.9735,1.9541,1.957,1.8185,0.0,0.0,0.0,0.0,0.0,0.0,0.0,0.0,0.0,0.0,1.5068,1.4768,1.3929,1.2569,1.2522,1.2447,1.2352,1.2352,1.2352,1.2359,1.2461,1.2589,1.2706,1.2935,1.3003,1.303,1.3288,1.3308,1.3234,1.3342,1.3403,1.3403,3.0159,3.0568,3.0955,3.1591,3.1891,3.2078,3.2091,3.1851,3.157,3.1276,3.0728,3.0413,3.04,2.9878,2.9259,2.8657,2.8366,2.8192,2.8179,2.8179,2.8179,0.0,0.0,2.7309,2.7309,2.6119,2.5077,2.4195,0.0,0.0,2.1582,0.0,2.1569,2.1569,2.1229,2.1109,2.1096,2.0802,2.1047,2.1555,2.1229,2.1283,2.1542,2.1229,2.1109,2.1189,2.1764,2.201,2.2031,2.2311,2.2605,2.284,2.2512,2.2385,2.2485,2.2813,2.2645,2.2385,2.2385,2.2385,2.1902,1.9893,1.9966,1.9911,1.7569,1.8833,2.0894,2.212,2.2191,2.145,1.9554,2.0696,2.0762,1.7042,0.0,0.0,0.0,0.0,0.0,0.0,1.8179,1.7997,1.8101,1.7462,0.0,0.0,0.0,0.0,0.0,0.0,0.0,1.7066,1.7127,0.0,1.5485,1.3529,1.2576,1.2686,1.2576,1.2501,1.2501,1.2501,1.2501,1.2501,1.2501,1.2589,1.2706,1.2935,1.3003,1.303,1.3288,1.3308,1.3234,1.3342,1.3403,1.3403,3.1149,3.149,3.1677,3.1724,3.2126,3.2313,3.1864,3.173,3.1557,3.1216,3.0541,2.998,2.9824,2.9245,2.8818,0.0,2.8366,2.8179,0.0,2.8179,2.8179,2.8179,2.7617,2.7309,2.7309,2.6346,2.5384,2.4466,0.0,0.0,0.0,2.2385,2.2265,2.189,2.1951,2.1777,2.1435,2.1341,2.1301,2.1256,2.1395,2.1381,2.1256,2.1408,2.1283,2.1162,2.1582,2.1729,2.177,2.2031,2.2325,2.2539,2.2411,2.2565,2.2733,2.2592,2.2632,2.276,2.276,2.276,2.233,2.0571,2.1289,2.187,1.9842,1.9831,1.9959,1.9057,1.8795,1.8134,1.6147,1.6289,1.6191,1.4666,1.5899,0.0,0.0,0.0,0.0,0.0,1.9156,1.973,0.0,1.7295,0.0,0.0,0.0,0.0,0.0,0.0,0.0,0.0,1.6913,0.0,1.5501,1.3601,1.2732,1.2888,1.2732,1.2657,1.2618,1.2549,1.2501,1.2501,1.2501,1.2589,1.2706,1.2935,1.3057,1.3166,1.3322,1.337,1.3336,1.3383,1.3403,1.3403,3.1604,3.1904,3.2011,3.1764,3.2112,3.2233,3.1597,3.1503,3.1356,3.0955,3.0327,2.9766,2.9366,2.8898,0.0,2.8444,2.8299,2.8179,2.8179,2.8179,2.8179,2.8179,2.7617,2.7309,2.7309,2.6453,0.0,2.513,2.4502,2.3768,2.2926,2.3006,2.2846,2.2498,2.2552,2.2291,2.1743,2.1636,2.1475,2.1315,2.1395,2.1368,2.1315,2.1395,2.1269,2.1149,2.1475,2.1582,2.1622,2.1917,2.2178,2.2385,2.2385,2.2699,2.2979,2.2672,2.2746,2.292,2.3006,2.3033,2.2649,2.0982,2.153,2.2008,2.0038,1.9382,1.8829,1.7566,1.7298,1.6709,1.464,1.4841,1.4771,1.3072,1.4205,1.5262,1.513,0.0,0.0,0.0,0.0,0.0,0.0,1.5648,1.4743,0.0,0.0,0.0,0.0,0.0,0.0,1.9945,1.7643,0.0,1.7002,1.4253,1.2942,1.3077,1.2888,1.282,1.2813,1.2657,1.2589,1.2589,1.2589,1.2671,1.2827,1.3016,1.3166,1.3268,1.3363,1.3403,1.3397,1.3336,1.3349,1.339,3.1604,3.1891,3.1984,0.0,3.1891,0.0,3.1316,3.1162,3.0996,3.048,3.006,2.9615,2.9081,2.8778,2.847,2.8245,0.0,0.0,0.0,2.8179,2.8179,2.8179,2.7617,2.7309,2.7309,2.6466,2.6011,2.5998,2.4823,2.4128,2.3884,2.3554,2.3359,2.3305,2.306,2.2626,2.1991,2.1756,2.1622,2.1569,2.1269,2.1355,2.1555,2.1269,2.1176,2.1203,2.1515,2.1609,2.1662,2.193,2.2178,2.2385,2.2445,2.2825,2.3238,2.3014,2.2844,2.2807,2.3064,2.3038,2.2528,2.0922,2.0769,2.0464,1.837,1.7709,1.7418,1.7175,1.7126,1.653,1.459,1.5655,1.5681,1.2158,1.2936,1.3908,1.3602,0.0,0.0,0.0,0.0,0.0,0.0,1.3157,1.3779,0.0,0.0,0.0,0.0,0.0,1.9847,2.0639,1.8937,1.8386,1.9274,1.5214,1.3214,1.3214,1.3077,1.3016,1.3009,1.282,1.2706,1.2706,1.2706,1.2827,1.3009,1.3152,1.3254,1.339,1.3397,1.3403,1.3383,1.3268,1.3268,1.3376,0.0,0.0,3.1744,3.1724,3.173,3.165,3.1276,3.1036,3.0768,3.0453,2.9713,2.9242,2.9366,2.8754,2.8366,2.8484,2.8326,2.8179,2.8179,2.8179,2.8179,2.8179,2.7617,2.7309,2.7309,2.6667,2.6225,2.5998,2.5262,2.4836,2.477,2.4462,2.4052,2.3661,2.3629,2.3121,2.2311,2.2245,2.1951,2.1596,2.1756,2.1716,2.1609,2.1756,2.1777,2.179,2.189,2.1917,2.193,2.1964,2.2178,2.2425,2.2686,2.302,2.3278,2.3233,2.2253,2.1233,2.1305,2.0194,1.9028,1.8963,1.8987,1.8539,1.6574,1.5817,1.5157,1.3695,1.3399,1.3199,1.2525,1.2787,1.2697,1.1496,1.2746,1.3272,1.165,1.3671,0.0,0.0,1.4552,1.5393,1.5441,1.419,1.4305,0.0,0.0,0.0,1.7582,1.9293,2.0319,2.053,1.799,1.6752,1.6972,1.4452,1.3214,1.3214,1.318,1.3166,1.3159,1.3016,1.2948,1.2948,1.2948,1.2969,1.3009,1.3152,1.3234,1.3282,1.3356,1.3403,1.3383,1.3268,1.3268,1.3376,3.161,3.1711,3.1711,3.1711,3.1557,3.137,3.1076,3.0782,3.0488,3.0194,2.9619,2.9245,2.9272,2.8724,2.8406,2.8433,2.8286,2.8179,2.8179,2.8179,2.8179,2.8179,2.775,2.7443,2.7309,2.6814,2.6373,2.5998,2.5409,2.5115,2.5077,2.4783,2.4329,2.3803,2.3803,2.3273,2.2385,2.2385,2.2164,2.1796,2.1957,2.193,2.1796,2.1924,2.1991,2.1991,2.1991,2.1991,2.1991,2.1991,2.2271,2.2672,2.2979,2.3474,2.3919,2.4088,2.3264,2.232,2.2444,2.1787,2.0671,1.9081,1.7961,1.6755,1.4614,1.3953,1.3506,1.2402,1.2207,1.2159,1.1965,1.184,1.1692,1.1423,1.2073,1.2198,1.0954,1.2369,0.0,1.2432,1.3234,1.39,1.4036,1.3237,1.3188,1.4362,1.5358,0.0,1.591,1.7532,1.8799,1.959,1.7563,1.6467,1.6508,1.4443,1.3383,1.3383,1.3383,1.3342,1.3275,1.3166,1.3098,1.3098,1.3098,1.3098,1.3111,1.3254,1.3275,1.3288,1.337,1.3356,1.3275,1.3173,1.3166,1.318,3.161,3.1711,3.1711,3.1711,3.1463,3.1183,3.0849,3.0627,3.0346,2.9967,2.9619,2.9339,2.9081,2.8764,2.8444,2.8272,2.8219,2.8179,2.8179,2.8179,2.8165,2.8125,2.7789,2.7495,2.7242,2.6907,2.6493,2.5998,2.5449,2.5117,2.5077,2.4783,2.4356,2.387,2.383,2.3313,2.2518,2.2512,2.2311,2.2058,2.2131,2.2131,2.2058,2.2131,2.2158,2.2124,2.2164,2.2191,2.2191,2.2245,2.2653,2.3148,2.342,2.4026,2.4719,2.5064,2.4823,2.4429,2.4332,2.4295,2.3466,1.9972,1.7544,1.5515,1.3552,1.2795,1.2508,1.2413,1.2372,1.2311,1.2193,1.1986,1.1766,1.1613,1.1348,1.1104,1.0907,0.0,1.0853,1.1166,1.1254,1.1375,1.166,1.1816,1.1919,1.2029,1.4064,1.5092,1.4666,1.5505,1.6551,1.7774,1.6783,1.6284,1.6442,1.4575,1.3619,1.3619,1.3619,1.3551,1.3464,1.3336,1.3275,1.3275,1.3254,1.3241,1.3247,1.3356,1.3403,1.3403,1.3403,1.3322,1.3227,1.3064,1.3016,1.3009,3.161,3.1711,3.1711,3.1711,3.1684,3.1423,3.0875,3.0755,3.0528,2.998,2.9402,2.9192,2.9392,2.8741,2.8339,2.8524,2.8339,2.8179,2.8179,2.8179,2.8072,2.7776,2.7495,2.7188,2.6894,2.66,2.6293,2.5998,2.5611,2.5317,2.5077,2.4783,2.4412,2.4128,2.391,2.3554,2.3132,2.2913,2.2619,2.2378,2.2653,2.2579,2.2378,2.2666,2.276,2.28,2.302,2.3092,2.3153,2.3442,2.3714,2.4048,2.4306,2.4703,2.5064,2.5358,2.5558,2.5279,2.3358,2.1685,2.0382,1.9739,1.7871,1.6089,1.5865,1.4171,1.2725,1.2873,1.2752,1.2617,1.2461,1.2247,1.1928,1.1491,1.1315,1.1104,1.0792,0.0,1.0941,1.1179,1.1497,1.1796,1.2009,1.2128,1.3013,1.4982,1.5114,1.5316,1.5732,1.5808,1.5321,1.4259,1.4131,1.4147,1.4266,1.3932,1.3761,1.3761,1.3761,1.3754,1.3727,1.3707,1.3693,1.3687,1.3607,1.3559,1.3553,1.3444,1.3403,1.3403,1.3403,1.339,1.3336,1.3105,1.3077,1.3098,3.1196,3.1497,3.1617,3.1249,3.1196,3.1049,3.0667,3.0421,3.0221,2.9953,2.9362,2.9041,2.9232,2.8634,2.8245,2.8379,2.8272,2.8179,2.8179,2.8179,2.8125,2.7991,2.7697,2.7281,2.6787,2.6386,2.6131,2.5998,2.5504,2.5211,2.5077,2.4783,2.4439,2.4195,2.3937,2.3607,2.3265,2.2993,2.2813,2.2672,2.284,2.2813,2.2672,2.284,2.2893,2.2934,2.322,2.3434,2.3607,2.3901,2.4302,2.473,2.5024,2.5304,2.565,2.5905,2.6079,2.6029,2.5071,2.3361,2.1523,2.0218,1.8104,1.601,1.4815,1.3662,1.2874,1.2989,1.2941,1.2807,1.2651,1.2386,1.2125,1.1832,1.1458,0.0,0.0,1.107,1.1212,1.1635,1.1904,1.2203,1.2554,1.2649,1.3102,1.4046,1.4033,1.4055,1.423,1.4323,1.4058,1.3316,1.358,1.3815,1.4089,1.4007,1.3966,1.3966,1.3966,1.3919,1.3795,1.3795,1.3795,1.3795,1.3727,1.37,1.3693,1.3626,1.3551,1.3526,1.3526,1.3424,1.3261,1.3166,1.3017,1.2929,3.0835,3.1156,3.1316,3.0875,3.0795,3.0702,3.0453,3.0114,2.9887,2.982,2.9255,2.8895,2.8895,2.8457,2.8179,2.8179,2.8179,2.8179,2.8179,2.8179,2.8152,2.8085,2.7682,2.7255,2.6734,2.6279,2.6024,2.5891,2.5436,2.5117,2.497,2.4676,2.4422,2.4182,2.3821,2.3541,2.3265,2.2993,2.2893,2.2893,2.2893,2.2893,2.2907,2.2974,2.3,2.3067,2.3474,2.3781,2.4022,2.4382,2.4903,2.5411,2.5571,2.5919,2.6201,2.5753,2.534,2.5175,2.5786,2.4385,2.2348,2.0525,1.8204,1.5957,1.4235,1.3433,1.3064,1.3098,1.3077,1.3016,1.2854,1.2562,1.2277,1.2132,0.0,0.0,0.0,1.1417,1.1594,1.2091,1.2311,1.2635,1.3016,1.3084,1.3017,1.2855,1.2996,1.301,1.2855,1.3098,1.3295,1.3329,1.3619,1.3944,1.4299,1.4183,1.4166,1.4166,1.4166,1.4061,1.3903,1.3903,1.3903,1.3903,1.3869,1.3849,1.3849,1.3815,1.3734,1.3632,1.3599,1.3485,1.3268,1.32,1.3003,1.284,3.0795,3.0835,3.0849,3.0795,3.0795,3.0702,3.0453,3.0114,2.982,2.9553,2.9005,2.8644,2.8644,2.8379,2.8179,2.8179,2.8179,2.8179,2.8179,2.8179,2.8058,2.7749,2.7188,2.6734,2.6426,2.6373,2.6092,2.5545,2.5504,2.5159,2.4626,2.4369,2.4222,2.4182,2.3607,2.3319,2.3265,2.2993,2.2893,2.2893,2.2893,2.2893,2.2934,2.318,2.3252,2.3372,2.4199,2.4519,2.4626,2.5224,2.5812,2.6253,2.6038,2.6533,2.6689,2.4085,2.2237,2.1377,2.2959,2.1912,2.0293,1.9998,1.8133,1.6387,1.6335,1.4705,1.3241,1.3342,1.3254,1.3193,1.3186,1.2779,1.2393,1.2145,0.0,0.0,1.143,1.1778,1.2104,1.225,1.269,1.3016,1.318,1.3288,1.3363,1.3349,1.3363,1.3363,1.3349,1.337,1.3512,1.3741,1.3781,1.3944,1.4299,1.4292,1.4285,1.4285,1.4285,1.4278,1.4265,1.4265,1.4265,1.4258,1.4116,1.4098,1.4041,1.3899,1.3795,1.3768,1.3639,1.3572,1.3546,1.3132,1.3084,1.3105,3.0574,3.0675,3.0742,3.06,3.0574,3.0467,3.0127,2.9833,2.9606,2.9499,2.8978,2.8604,2.8604,2.8366,2.8179,2.8179,2.8179,2.8179,2.8179,2.8179,2.7978,2.7455,2.7215,2.6881,2.64,2.6386,2.6106,2.5518,2.5518,2.5173,2.4599,2.4492,2.4439,2.4412,2.4012,2.3875,2.3848,2.3589,2.3348,2.3153,2.3153,2.3153,2.3166,2.3252,2.3519,2.3941,2.4412,2.4983,2.5313,2.4231,2.428,2.4519,2.2964,2.2673,2.274,2.1685,2.0022,1.8666,1.9237,1.8927,1.8485,1.8412,1.6575,1.4781,1.4744,1.4068,1.3444,1.341,1.3356,1.3288,1.3234,1.3003,1.2792,1.2676,0.0,1.2142,1.221,1.2284,1.2427,1.2717,1.2975,1.3193,1.3302,1.337,1.3403,1.3403,1.3403,1.3403,1.3403,1.3403,1.3539,1.3788,1.3795,1.3944,1.4299,1.4299,1.4299,1.4299,1.4299,1.4299,1.4299,1.4299,1.4299,1.4299,1.4238,1.4211,1.4211,1.415,1.4068,1.3966,1.3774,1.3666,1.3558,1.3336,1.3248,1.3173,3.0234,3.0381,3.0448,3.0306,3.0221,3.0154,2.994,2.9593,2.9339,2.9339,2.8831,2.8457,2.8457,2.8312,2.8179,2.8179,2.8179,2.8179,2.8179,2.8179,2.7924,2.7336,2.7215,2.6894,2.64,2.6386,2.6146,2.5651,2.5558,2.5264,2.4733,2.4546,2.4466,2.4452,2.4195,2.4022,2.3915,2.3714,2.3514,2.3292,2.3292,2.3345,2.3487,2.3639,2.3537,2.3393,2.3894,2.4033,2.3812,2.2521,2.2426,2.2552,2.0835,1.9851,1.9334,1.9457,1.7982,1.6262,1.6195,1.6332,1.6479,1.6368,1.5065,1.3774,1.3673,1.3653,1.3612,1.3505,1.3471,1.3424,1.3275,1.3166,1.305,1.3009,1.2744,1.2556,1.2672,1.2718,1.2793,1.3043,1.32,1.3288,1.339,1.3403,1.3403,1.3403,1.3403,1.3403,1.3403,1.3403,1.3539,1.3788,1.3795,1.3944,1.4299,1.4299,1.4299,1.4299,1.4299,1.4299,1.4299,1.4299,1.4299,1.4299,1.4299,1.4299,1.4299,1.4299,1.4238,1.4129,1.3973,1.3781,1.3632,1.3471,1.3336,1.3254,2.998,2.9913,2.9913,2.9913,2.9913,2.9913,2.9913,2.9375,2.9001,2.9001,2.8511,2.8179,2.8179,2.8179,2.8179,2.8179,2.8179,2.8179,2.8179,2.8179,2.7911,2.7322,2.6987,2.6694,2.64,2.6386,2.6253,2.5959,2.5665,2.5358,2.5064,2.4476,2.4209,2.4195,2.395,2.3621,2.3305,2.3305,2.3305,2.327,2.327,2.3479,2.3799,2.4349,2.3227,2.1543,2.2516,2.1512,1.9764,2.0163,2.0505,2.073,2.0341,1.881,1.7171,1.7653,1.6043,1.4119,1.4119,1.4183,1.4224,1.3876,1.3802,1.3802,1.3802,1.3802,1.3761,1.3619,1.3592,1.3545,1.3431,1.3281,1.3173,1.303,1.3009,1.2915,1.272,1.299,1.3214,1.3214,1.3308,1.3403,1.3403,1.3403,1.3403,1.3403,1.3403,1.3403,1.3403,1.3403,1.3539,1.3788,1.3802,1.3944,1.4299,1.4299,1.4299,1.4299,1.4299,1.4299,1.4299,1.4299,1.4299,1.4299,1.4299,1.4299,1.4299,1.4299,1.4299,1.4285,1.4129,1.398,1.3761,1.3512,1.3403,1.3376,3.0207,3.006,2.998,3.0194,3.006,2.9913,2.9913,2.9375,2.9001,2.9001,2.8511,2.8179,2.8179,2.8179,2.8179,2.8179,2.8179,2.8098,2.7843,2.7442,2.7134,2.6961,2.7068,2.6894,2.64,2.6386,2.5517,2.368,2.4907,2.4583,2.2799,2.3959,2.4466,2.4466,2.4422,2.4292,2.4212,2.4212,2.3269,2.1836,2.1836,2.1107,2.0043,2.0186,2.0237,2.0247,2.056,2.057,2.0237,1.8712,1.8422,1.84,1.6629,1.5628,1.5177,1.5315,1.4831,1.4231,1.4231,1.4265,1.4251,1.4055,1.4082,1.4136,1.4027,1.4,1.396,1.3768,1.3734,1.372,1.3673,1.3632,1.3593,1.3451,1.3431,1.3376,1.322,1.3275,1.3336,1.3336,1.337,1.3403,1.3403,1.3403,1.3403,1.3403,1.3403,1.3403,1.3403,1.3505,1.3605,1.3795,1.3946,1.4102,1.4299,1.4299,1.4299,1.4299,1.4299,1.4299,1.4299,1.4299,1.4299,1.4299,1.4299,1.4299,1.4299,1.4299,1.4299,1.4285,1.4129,1.398,1.3774,1.3585,1.3492,1.3397,3.0154,3.0034,2.9967,3.0154,3.0034,2.9913,2.9913,2.9375,2.9001,2.9001,2.8511,2.8179,2.8179,2.8179,2.8179,2.8179,2.8072,2.7884,2.7549,2.7188,2.6894,2.6653,2.6934,2.6867,2.64,2.6386,2.5253,2.2866,2.4752,2.4495,2.2206,2.3957,2.481,2.481,2.4653,2.4532,2.4426,2.4426,2.3195,2.1189,2.1246,2.0201,1.8581,1.8752,1.8641,1.8422,1.8581,1.8433,1.7923,1.6589,1.6248,1.6166,1.4734,1.4299,1.4299,1.4299,1.4299,1.4285,1.4224,1.4251,1.4265,1.4109,1.419,1.4278,1.4183,1.4163,1.4116,1.396,1.3933,1.3869,1.3808,1.3795,1.3768,1.3687,1.3626,1.3558,1.3505,1.3437,1.3403,1.3403,1.3403,1.3403,1.3403,1.3403,1.3403,1.3403,1.3403,1.3403,1.3403,1.3546,1.3653,1.3795,1.3994,1.4143,1.4299,1.4299,1.4299,1.4299,1.4299,1.4299,1.4299,1.4299,1.4299,1.4299,1.4299,1.4299,1.4299,1.4299,1.4299,1.4292,1.4197,1.4068,1.3912,1.3727,1.3578,1.3485,2.9873,2.9873,2.9873,2.9873,2.99,2.99,2.9847,2.9335,2.8988,2.8961,2.8497,2.8179,2.8179,2.8179,2.8179,2.8179,2.7911,2.7575,2.7322,2.7282,2.7001,2.6373,2.66,2.6613,2.6319,2.636,2.533,2.31,2.4851,2.4672,2.2753,2.4138,2.4927,2.5101,2.4733,2.4452,2.4249,2.4249,2.2971,2.0978,2.1124,2.0006,1.8329,1.8749,1.7782,1.6221,1.6632,1.5653,1.4159,1.4251,1.4299,1.4299,1.4299,1.4299,1.4299,1.4299,1.4299,1.4272,1.4129,1.4197,1.4265,1.4173,1.4197,1.4299,1.4299,1.4299,1.4258,1.4122,1.4139,1.4048,1.3862,1.3835,1.3835,1.3822,1.37,1.3599,1.3592,1.3498,1.3403,1.3403,1.3403,1.3403,1.3403,1.341,1.3424,1.3424,1.3424,1.3424,1.3437,1.3531,1.3673,1.3815,1.4014,1.4156,1.4299,1.4299,1.4299,1.4299,1.4299,1.4299,1.4299,1.4299,1.4299,1.4299,1.4299,1.4299,1.4299,1.4299,1.4299,1.4299,1.4299,1.4204,1.4098,1.3869,1.372,1.3565,2.9579,2.9579,2.9579,2.9579,2.9766,2.9722,2.9255,2.9081,2.8908,2.8724,2.8419,2.8179,2.8179,2.8179,2.8179,2.8179,2.7911,2.7575,2.7322,2.7041,2.6653,2.6118,2.6145,2.5999,2.5705,2.6159,2.533,2.31,2.3329,2.3158,2.2713,2.2582,2.3455,2.5101,2.4733,2.4559,2.4506,2.4506,2.2423,1.9178,1.9193,1.7202,1.4256,1.4363,1.4411,1.438,1.4493,1.4404,1.4258,1.4292,1.4299,1.4299,1.4299,1.4299,1.4299,1.4299,1.4299,1.4292,1.4258,1.4278,1.4292,1.4258,1.4278,1.4299,1.4299,1.4299,1.4292,1.4258,1.4251,1.4238,1.4204,1.4204,1.4163,1.4041,1.3892,1.3714,1.3605,1.3498,1.3403,1.3403,1.3403,1.3403,1.3403,1.3512,1.358,1.358,1.358,1.3585,1.3693,1.3734,1.3822,1.4014,1.417,1.4265,1.4299,1.4299,1.4299,1.4299,1.4299,1.4299,1.4299,1.4299,1.4299,1.4299,1.4299,1.4299,1.4299,1.4299,1.4299,1.4299,1.4299,1.4204,1.4112,1.4034,1.3858,1.3565,2.9486,2.9366,2.9272,2.9272,2.9513,2.9553,2.9068,2.9001,2.8895,2.8644,2.8379,2.8179,2.8179,2.8179,2.8125,2.7991,2.7535,2.7215,2.7068,2.6774,2.6413,2.6011,2.5998,2.585,2.5518,2.5812,2.4893,2.2737,2.3894,2.3881,2.2713,2.3465,2.4329,2.5277,2.4983,2.4733,2.4525,2.3574,2.1403,1.8507,1.7626,1.554,1.3009,1.3077,1.339,1.3795,1.3795,1.4041,1.4299,1.4299,1.4299,1.4299,1.4299,1.4299,1.4299,1.4299,1.4299,1.4299,1.4299,1.4299,1.4299,1.4299,1.4299,1.4299,1.4299,1.4299,1.4299,1.4299,1.4299,1.4299,1.4299,1.4299,1.4251,1.4139,1.3939,1.3747,1.3605,1.3498,1.3403,1.3403,1.3403,1.3403,1.3403,1.3539,1.3585,1.3585,1.3653,1.372,1.3795,1.3912,1.3987,1.4112,1.4224,1.4299,1.4299,1.4299,1.4299,1.4299,1.4299,1.4299,1.4299,1.4299,1.4299,1.4299,1.4299,1.4299,1.4299,1.4299,1.4258,1.419,1.419,1.4095,1.396,1.396,1.3817,1.3565,2.9339,2.9138,2.8921,2.8921,2.9205,2.9285,2.8938,2.8895,2.8858,2.8564,2.8353,2.8179,2.8179,2.8138,2.8005,2.7722,2.7201,2.6881,2.6787,2.66,2.6293,2.5931,2.5917,2.5757,2.5333,2.5358,2.452,2.2853,2.4762,2.4667,2.2694,2.453,2.5204,2.4915,2.5033,2.4717,2.3994,2.2657,2.0564,1.8035,1.6805,1.4987,1.305,1.3166,1.3437,1.3761,1.3788,1.4041,1.4299,1.4299,1.4299,1.4299,1.4299,1.4299,1.4299,1.4299,1.4299,1.4299,1.4299,1.4299,1.4299,1.4299,1.4299,1.4299,1.4299,1.4299,1.4299,1.4299,1.4299,1.4299,1.4299,1.4278,1.4217,1.4139,1.3919,1.372,1.3605,1.3498,1.3403,1.3403,1.3403,1.3403,1.3403,1.3559,1.3626,1.3626,1.3754,1.3849,1.3876,1.4014,1.4125,1.4109,1.4231,1.4299,1.4299,1.4299,1.4299,1.4299,1.4299,1.4299,1.4299,1.4299,1.4299,1.4299,1.4299,1.4299,1.4299,1.4299,1.4211,1.4119,1.4119,1.398,1.3795,1.3774,1.3687,1.3565,2.8778,2.8698,2.8671,2.8671,2.8868,2.8911,2.8393,2.8497,2.8551,2.8286,2.8205,2.8179,2.8179,2.7951,2.7749,2.7696,2.7388,2.7094,2.68,2.6787,2.6413,2.5611,2.5571,2.5317,2.4733,2.4719,2.4847,2.5084,2.3583,2.2731,2.254,2.2707,2.268,2.2531,2.4324,2.3955,2.2087,2.3574,2.1079,1.6289,1.7778,1.6306,1.3186,1.3207,1.3376,1.3632,1.3754,1.4041,1.4299,1.4299,1.4299,1.4299,1.4299,1.4299,1.4299,1.4299,1.4299,1.4299,1.4299,1.4299,1.4299,1.4299,1.4299,1.4299,1.4299,1.4299,1.4299,1.4299,1.4299,1.4299,1.4299,1.419,1.4139,1.4119,1.3838,1.3605,1.3592,1.3498,1.3403,1.3403,1.3403,1.3403,1.3403,1.3648,1.3768,1.3768,1.3953,1.4095,1.4231,1.4136,1.4136,1.4265,1.4292,1.4299,1.4299,1.4299,1.4299,1.4299,1.4299,1.4299,1.4299,1.4299,1.4299,1.4299,1.4299,1.4299,1.4299,1.4299,1.4211,1.4119,1.4119,1.398,1.3781,1.366,1.3605,1.3565,2.8631,2.847,2.8393,2.8393,2.8604,2.8657,2.8259,2.8446,2.8497,2.8219,2.8179,2.8179,2.8179,2.7777,2.7388,2.7228,2.6947,2.672,2.6587,2.6587,2.6253,2.5545,2.5518,2.5237,2.4613,2.4599,2.4733,2.4986,2.3048,2.2083,2.198,2.1145,2.0593,2.0364,2.1292,2.1072,2.0022,1.9794,1.8231,1.5901,1.5673,1.4603,1.3207,1.3125,1.3295,1.3619,1.3885,1.4109,1.4299,1.4299,1.4299,1.4299,1.4299,1.4299,1.4299,1.4299,1.4299,1.4299,1.4299,1.4299,1.4299,1.4299,1.4299,1.4299,1.4299,1.4231,1.4197,1.4285,1.4231,1.417,1.417,1.4048,1.3919,1.3838,1.3715,1.3558,1.3512,1.3444,1.3403,1.3403,1.3403,1.3403,1.3403,1.3551,1.3714,1.3795,1.3987,1.4136,1.4292,1.4156,1.4143,1.4292,1.4217,1.4211,1.4299,1.4299,1.4299,1.4299,1.4299,1.4299,1.4299,1.4299,1.4299,1.4299,1.4299,1.4251,1.417,1.417,1.4034,1.3824,1.3824,1.3783,1.366,1.3553,1.3553,1.3565]},{"header":{"parameterUnit":"m.s-1","parameterCategory":1,"la1":30.6,"la2":28.766,"lo1":-90.7593,"lo2":-88.6598,"dy":0.0162,"dx":0.0183,"nx":116,"ny":114,"refTime":"2023-09-28T18:00:00:Z","depth":0,"parameterNumber":3,"parameterNumberName":"V-component_of_WINDS"},"data":[0.0,0.0,0.0,0.0,0.0,0.0,0.0,0.0,0.0,0.0,0.0,0.0,0.0,0.0,0.0,0.0,0.0,0.0,0.0,0.0,0.0,0.0,0.0,0.0,0.0,0.0,0.0,0.0,0.0,0.0,0.0,0.0,0.0,0.0,0.0,0.0,0.0,0.0,0.0,0.0,0.0,0.0,0.0,0.0,0.0,0.0,0.0,0.0,0.0,0.0,0.0,0.0,0.0,0.0,0.0,0.0,0.0,0.0,0.0,0.0,0.0,0.0,0.0,0.0,0.0,0.0,0.0,0.0,0.0,0.0,0.0,0.0,0.0,0.0,0.0,0.0,0.0,0.0,0.0,0.0,0.0,0.0,0.0,0.0,0.0,0.0,0.0,0.0,0.0,0.0,0.0,0.0,0.0,0.0,0.0,0.0,0.0,0.0,0.0,0.0,0.0,0.0,0.0,0.0,0.0,0.0,0.0,0.0,0.0,0.0,0.0,0.0,0.0,0.0,0.0,0.0,0.0,0.0,0.0,0.0,0.0,0.0,0.0,0.0,0.0,0.0,0.0,0.0,0.0,0.0,0.0,0.0,0.0,0.0,0.0,0.0,0.0,0.0,0.0,0.0,0.0,0.0,0.0,0.0,0.0,0.0,0.0,0.0,0.0,0.0,0.0,0.0,0.0,0.0,0.0,0.0,0.0,0.0,0.0,0.0,0.0,0.0,0.0,0.0,0.0,0.0,0.0,0.0,0.0,0.0,0.0,0.0,0.0,0.0,0.0,0.0,0.0,0.0,0.0,0.0,0.0,0.0,0.0,0.0,0.0,0.0,0.0,0.0,0.0,0.0,0.0,0.0,0.0,0.0,0.0,0.0,0.0,0.0,0.0,0.0,0.0,0.0,0.0,0.0,0.0,0.0,0.0,0.0,0.0,0.0,0.0,0.0,0.0,0.0,0.0,0.0,0.0,0.0,0.0,0.0,0.0,0.0,0.0,0.0,0.0,0.0,0.0,0.0,0.0,0.0,0.0,0.0,0.0,0.0,0.0,0.0,0.0,0.0,0.0,0.0,0.0,0.0,0.0,0.0,0.0,0.0,0.0,0.0,0.0,0.0,0.0,0.0,0.0,0.0,0.0,0.0,0.0,0.0,0.0,0.0,0.0,0.0,0.0,0.0,0.0,0.0,0.0,0.0,0.0,0.0,0.0,0.0,0.0,0.0,0.0,0.0,0.0,0.0,0.0,0.0,0.0,0.0,0.0,0.0,0.0,0.0,0.0,0.0,0.0,0.0,0.0,0.0,0.0,0.0,0.0,0.0,0.0,0.0,0.0,0.0,0.0,0.0,0.0,0.0,0.0,0.0,0.0,0.0,0.0,0.0,0.0,0.0,0.0,0.0,0.0,0.0,0.0,0.0,0.0,0.0,0.0,0.0,0.0,0.0,0.0,0.0,0.0,0.0,0.0,0.0,0.0,0.0,0.0,0.0,0.0,0.0,0.0,0.0,0.0,0.0,0.0,0.0,0.0,0.0,0.0,0.0,0.0,0.0,0.0,0.0,0.0,0.0,0.0,0.0,0.0,0.0,0.0,0.0,0.0,0.0,0.0,0.0,0.0,0.0,0.0,0.0,0.0,0.0,0.0,0.0,0.0,0.0,0.0,0.0,0.0,0.0,0.0,0.0,0.0,0.0,0.0,0.0,0.0,0.0,0.0,0.0,0.0,0.0,0.0,0.0,0.0,0.0,0.0,0.0,0.0,0.0,0.0,0.0,0.0,0.0,0.0,0.0,0.0,0.0,0.0,0.0,0.0,0.0,0.0,0.0,0.0,0.0,0.0,0.0,0.0,0.0,0.0,0.0,0.0,0.0,0.0,0.0,0.0,0.0,0.0,0.0,0.0,0.0,0.0,0.0,0.0,0.0,0.0,0.0,0.0,0.0,0.0,0.0,0.0,0.0,0.0,0.0,0.0,0.0,0.0,0.0,0.0,0.0,0.0,0.0,0.0,0.0,0.0,0.0,0.0,0.0,0.0,0.0,0.0,0.0,0.0,0.0,0.0,0.0,0.0,0.0,0.0,0.0,0.0,0.0,0.0,0.0,0.0,0.0,0.0,0.0,0.0,0.0,0.0,0.0,0.0,0.0,0.0,0.0,0.0,0.0,0.0,0.0,0.0,0.0,0.0,0.0,0.0,0.0,0.0,0.0,0.0,0.0,0.0,0.0,0.0,0.0,0.0,0.0,0.0,0.0,0.0,0.0,0.0,0.0,0.0,0.0,0.0,0.0,0.0,0.0,0.0,0.0,0.0,0.0,0.0,0.0,0.0,0.0,0.0,0.0,0.0,0.0,0.0,0.0,0.0,0.0,0.0,0.0,0.0,0.0,0.0,0.0,0.0,0.0,0.0,0.0,0.0,0.0,0.0,0.0,0.0,0.0,0.0,0.0,0.0,0.0,0.0,0.0,0.0,0.0,0.0,0.0,0.0,0.0,0.0,0.0,0.0,0.0,0.0,0.0,0.0,0.0,0.0,0.0,0.0,0.0,0.0,0.0,0.0,0.0,0.0,0.0,0.0,0.0,0.0,0.0,0.0,0.0,0.0,0.0,0.0,0.0,0.0,0.0,0.0,0.0,0.0,0.0,0.0,0.0,0.0,0.0,0.0,0.0,0.0,0.0,0.0,0.0,0.0,0.0,0.0,0.0,0.0,0.0,0.0,0.0,0.0,0.0,0.0,0.0,0.0,0.0,0.0,0.0,0.0,0.0,0.0,0.0,0.0,0.0,0.0,0.0,0.0,0.0,0.0,0.0,0.0,0.0,0.0,0.0,0.0,0.0,0.0,0.0,0.0,0.0,0.0,0.0,0.0,0.0,0.0,0.0,0.0,0.0,0.0,0.0,0.0,0.0,0.0,0.0,0.0,0.0,0.0,0.0,0.0,0.0,0.0,0.0,0.0,0.0,0.0,0.0,0.0,0.0,0.0,0.0,0.0,0.0,0.0,0.0,0.0,0.0,0.0,0.0,0.0,0.0,0.0,0.0,0.0,0.0,0.0,0.0,0.0,0.0,0.0,0.0,0.0,0.0,0.0,0.0,0.0,0.0,0.0,0.0,0.0,0.0,0.0,0.0,0.0,0.0,0.0,0.0,0.0,0.0,0.0,0.0,0.0,0.0,0.0,0.0,0.0,0.0,0.0,0.0,0.0,0.0,0.0,0.0,0.0,0.0,0.0,0.0,0.0,0.0,0.0,0.0,0.0,0.0,0.0,0.0,0.0,0.0,0.0,0.0,0.0,0.0,0.0,0.0,0.0,0.0,0.0,0.0,0.0,0.0,0.0,0.0,0.0,0.0,0.0,0.0,0.0,0.0,0.0,0.0,0.0,0.0,0.0,0.0,0.0,0.0,0.0,0.0,0.0,0.0,0.0,0.0,0.0,0.0,0.0,0.0,0.0,0.0,0.0,0.0,0.0,0.0,0.0,0.0,0.0,0.0,0.0,0.0,0.0,0.0,0.0,0.0,0.0,0.0,0.0,0.0,0.0,0.0,0.0,0.0,0.0,0.0,0.0,0.0,0.0,0.0,0.0,0.0,0.0,0.0,0.0,0.0,0.0,0.0,0.0,0.0,0.0,0.0,0.0,0.0,0.0,0.0,0.0,0.0,0.0,0.0,0.0,0.0,0.0,0.0,0.0,0.0,0.0,0.0,0.0,0.0,0.0,0.0,0.0,0.0,0.0,0.0,0.0,0.0,0.0,0.0,0.0,0.0,0.0,0.0,0.0,0.0,0.0,0.0,0.0,0.0,0.0,0.0,0.0,0.0,0.0,0.0,0.0,0.0,0.0,0.0,0.0,0.0,0.0,0.0,0.0,0.0,0.0,0.0,0.0,0.0,0.0,0.0,0.0,0.0,0.0,0.0,0.0,0.0,0.0,0.0,0.0,0.0,0.0,0.0,0.0,0.0,0.0,0.0,0.0,0.0,0.0,0.0,0.0,0.0,0.0,0.0,0.0,0.0,0.0,0.0,0.0,0.0,0.0,0.0,0.0,0.0,0.0,0.0,0.0,0.0,0.0,0.0,0.0,0.0,0.0,0.0,0.0,0.0,0.0,0.0,0.0,0.0,0.0,0.0,0.0,0.0,0.0,0.0,0.0,0.0,0.0,0.0,0.0,0.0,0.0,0.0,0.0,0.0,0.0,0.0,0.0,0.0,0.0,0.0,0.0,0.0,0.0,0.0,0.0,0.0,0.0,0.0,0.0,0.0,0.0,0.0,0.0,0.0,0.0,0.0,0.0,0.0,0.0,0.0,0.0,0.0,0.0,0.0,0.0,0.0,0.0,0.0,0.0,0.0,0.0,0.0,0.0,0.0,0.0,0.0,0.0,0.0,0.0,0.0,0.0,0.0,0.0,0.0,0.0,0.0,0.0,0.0,0.0,0.0,0.0,0.0,0.0,0.0,0.0,0.0,0.0,0.0,0.0,0.0,0.0,0.0,0.0,0.0,0.0,0.0,0.0,0.0,0.0,0.0,0.0,0.0,0.0,0.0,0.0,0.0,0.0,0.0,0.0,0.0,0.0,0.0,0.0,0.0,0.0,0.0,0.0,0.0,0.0,0.0,0.0,0.0,0.0,0.0,0.0,0.0,0.0,0.0,0.0,0.0,0.0,0.0,0.0,0.0,0.0,0.0,0.0,0.0,0.0,0.0,0.0,0.0,0.0,0.0,0.0,0.0,0.0,0.0,0.0,0.0,0.0,0.0,0.0,0.0,0.0,0.0,0.0,0.0,0.0,0.0,0.0,0.0,0.0,0.0,0.0,0.0,0.0,0.0,0.0,0.0,0.0,0.0,0.0,0.0,0.0,0.0,0.0,0.0,0.0,0.0,0.0,0.0,0.0,0.0,0.0,0.0,0.0,0.0,0.0,0.0,0.0,0.0,0.0,0.0,0.0,0.0,0.0,0.0,0.0,0.0,0.0,0.0,0.0,0.0,0.0,0.0,0.0,0.0,0.0,0.0,0.0,0.0,0.0,0.0,0.0,0.0,0.0,0.0,0.0,0.0,0.0,0.0,0.0,0.0,0.0,0.0,0.0,0.0,0.0,0.0,0.0,0.0,0.0,0.0,0.0,0.0,0.0,0.0,0.0,0.0,0.0,0.0,0.0,0.0,0.0,0.0,0.0,0.0,0.0,0.0,0.0,0.0,0.0,0.0,0.0,0.0,0.0,0.0,0.0,0.0,0.0,0.0,0.0,0.0,0.0,0.0,0.0,0.0,0.0,0.0,0.0,0.0,0.0,0.0,0.0,0.0,0.0,0.0,0.0,0.0,0.0,0.0,0.0,0.0,0.0,0.0,0.0,0.0,0.0,0.0,0.0,0.0,0.0,0.0,0.0,0.0,0.0,0.0,0.0,0.0,0.0,0.0,0.0,0.0,0.0,0.0,0.0,0.0,0.0,0.0,0.0,0.0,0.0,0.0,0.0,0.0,0.0,0.0,0.0,0.0,0.0,0.0,0.0,0.0,0.0,0.0,0.0,0.0,0.0,0.0,0.0,0.0,0.0,0.0,0.0,0.0,0.0,0.0,0.0,0.0,0.0,0.0,0.0,0.0,0.0,0.0,0.0,0.0,0.0,0.0,0.0,0.0,0.0,0.0,0.0,0.0,0.0,0.0,0.0,0.0,0.0,0.0,0.0,0.0,0.0,0.0,0.0,0.0,0.0,0.0,0.0,0.0,0.0,0.0,0.0,0.0,0.0,0.0,0.0,0.0,0.0,0.0,0.0,0.0,0.0,0.0,0.0,0.0,0.0,0.0,0.0,0.0,0.0,0.0,0.0,0.0,0.0,0.0,0.0,0.0,0.0,0.0,0.0,0.0,0.0,0.0,0.0,0.0,0.0,0.0,0.0,0.0,0.0,0.0,0.0,0.0,0.0,0.0,0.0,0.0,0.0,0.0,0.0,0.0,0.0,0.0,0.0,0.0,0.0,0.0,0.0,0.0,0.0,0.0,0.0,0.0,0.0,0.0,0.0,0.0,0.0,0.0,0.0,0.0,0.0,0.0,0.0,0.0,0.0,0.0,0.0,0.0,0.0,0.0,0.0,0.0,0.0,0.0,0.0,0.0,4.3983,0.0,0.0,0.0,0.0,0.0,0.0,0.0,0.0,0.0,0.0,0.0,0.0,0.0,0.0,0.0,0.0,0.0,0.0,0.0,0.0,0.0,0.0,0.0,0.0,0.0,0.0,0.0,0.0,0.0,0.0,0.0,0.0,0.0,0.0,0.0,0.0,0.0,0.0,4.3506,4.3241,4.2949,4.2703,4.3241,4.3506,4.3506,0.0,0.0,0.0,0.0,0.0,0.0,0.0,0.0,0.0,0.0,0.0,0.0,0.0,0.0,0.0,0.0,0.0,0.0,0.0,0.0,0.0,0.0,0.0,0.0,0.0,0.0,0.0,0.0,0.0,0.0,0.0,0.0,0.0,0.0,0.0,0.0,0.0,0.0,0.0,0.0,0.0,0.0,0.0,0.0,0.0,0.0,0.0,0.0,0.0,0.0,0.0,0.0,0.0,0.0,0.0,0.0,0.0,0.0,0.0,0.0,0.0,0.0,0.0,0.0,0.0,0.0,0.0,0.0,0.0,0.0,0.0,4.5002,0.0,0.0,0.0,0.0,0.0,0.0,0.0,0.0,0.0,0.0,0.0,0.0,0.0,0.0,0.0,0.0,0.0,0.0,0.0,0.0,0.0,0.0,0.0,4.1434,4.1801,4.2433,4.2506,4.2506,0.0,0.0,0.0,0.0,0.0,0.0,4.3506,4.3506,4.3506,4.3506,4.3094,4.2886,4.2836,4.3342,4.3538,4.3506,4.3506,0.0,0.0,0.0,0.0,0.0,0.0,0.0,0.0,0.0,0.0,0.0,0.0,0.0,0.0,0.0,0.0,0.0,0.0,0.0,0.0,0.0,0.0,0.0,0.0,0.0,0.0,0.0,0.0,0.0,0.0,0.0,0.0,0.0,0.0,0.0,0.0,0.0,0.0,0.0,0.0,0.0,0.0,0.0,0.0,0.0,0.0,0.0,0.0,0.0,0.0,0.0,0.0,0.0,0.0,0.0,0.0,0.0,0.0,0.0,0.0,0.0,0.0,0.0,5.0225,5.0655,5.1232,5.1232,5.1279,5.1316,4.9251,4.7672,4.6517,4.6067,0.0,0.0,0.0,0.0,0.0,0.0,0.0,0.0,0.0,0.0,0.0,0.0,0.0,0.0,0.0,0.0,0.0,0.0,0.0,4.2029,4.2139,4.2763,4.3212,4.3322,4.3322,4.3322,4.3322,0.0,0.0,0.0,0.0,0.0,4.3506,4.3506,4.3506,4.3506,4.3648,4.3629,4.3402,4.3713,4.3733,4.3506,4.3506,4.3506,4.3506,0.0,0.0,0.0,0.0,0.0,0.0,0.0,0.0,0.0,0.0,0.0,0.0,0.0,0.0,0.0,0.0,0.0,0.0,0.0,0.0,0.0,0.0,0.0,0.0,0.0,0.0,0.0,0.0,0.0,0.0,0.0,0.0,0.0,0.0,0.0,0.0,0.0,0.0,0.0,0.0,0.0,4.559,4.559,0.0,0.0,0.0,0.0,0.0,0.0,0.0,0.0,0.0,0.0,0.0,0.0,0.0,4.9454,5.0141,5.1636,5.215,5.1693,5.3078,5.3445,5.2884,5.2884,5.3251,5.3922,5.3592,0.0,4.8949,4.681,0.0,0.0,0.0,0.0,0.0,0.0,0.0,0.0,0.0,0.0,0.0,0.0,0.0,0.0,0.0,0.0,0.0,0.0,0.0,0.0,0.0,4.2616,4.3029,4.3469,4.3901,4.3975,4.3543,4.3901,0.0,0.0,0.0,4.3506,4.3506,4.3205,4.3328,4.3887,4.4367,4.4751,4.5079,4.513,4.5035,4.4864,4.4864,4.435,4.3506,4.3506,0.0,0.0,0.0,0.0,0.0,0.0,0.0,0.0,0.0,0.0,0.0,0.0,0.0,0.0,0.0,0.0,0.0,0.0,0.0,0.0,0.0,0.0,0.0,0.0,0.0,0.0,0.0,0.0,0.0,0.0,0.0,0.0,0.0,0.0,0.0,0.0,0.0,0.0,0.0,4.5544,4.6241,4.5324,4.6021,4.5911,0.0,0.0,0.0,0.0,0.0,0.0,0.0,0.0,0.0,5.0362,5.206,5.3125,5.3492,5.5097,5.5941,5.604,5.6774,5.7141,5.7251,5.7251,5.7435,5.774,5.6822,5.5868,5.473,5.1379,4.9187,4.7912,0.0,0.0,0.0,0.0,4.7361,4.7948,0.0,0.0,0.0,0.0,0.0,0.0,0.0,0.0,0.0,0.0,0.0,0.0,4.2837,4.3094,4.3461,4.4057,4.4672,4.4672,4.3873,4.4158,4.4121,4.3543,4.3506,4.3506,4.3506,4.333,4.3735,4.4725,4.5573,4.6282,4.6818,4.6721,4.6607,4.6507,4.6287,4.5296,4.38,4.38,4.369,4.3506,0.0,0.0,0.0,0.0,0.0,0.0,0.0,0.0,0.0,0.0,0.0,0.0,0.0,0.0,0.0,0.0,0.0,0.0,0.0,0.0,0.0,0.0,0.0,0.0,0.0,0.0,0.0,0.0,0.0,0.0,0.0,0.0,0.0,0.0,0.0,0.0,0.0,4.6755,4.7452,4.5801,4.7599,4.7929,0.0,0.0,0.0,0.0,0.0,0.0,5.1316,5.2758,5.3823,5.4447,5.6209,5.7237,5.7446,5.8621,5.9648,6.0444,6.0224,6.0554,6.1337,6.1117,6.0896,6.0639,5.9648,5.9465,5.949,5.5233,5.2564,5.1079,5.0445,4.9931,4.9581,4.9821,5.0188,5.0555,0.0,0.0,0.0,0.0,0.0,0.0,0.0,0.0,0.0,0.0,0.0,4.3681,4.448,4.5259,4.5736,4.5773,4.581,4.5516,4.47,4.3975,4.3543,4.3506,4.3506,4.3506,4.3506,4.4334,4.524,4.6199,4.7648,4.8335,4.8299,4.8237,4.8204,4.8159,4.7369,4.6168,4.4626,4.4626,4.4195,4.3506,4.3506,0.0,0.0,0.0,0.0,0.0,0.0,0.0,0.0,0.0,0.0,0.0,0.0,0.0,0.0,0.0,0.0,0.0,0.0,0.0,0.0,0.0,0.0,0.0,0.0,0.0,0.0,0.0,0.0,0.0,0.0,0.0,0.0,0.0,0.0,0.0,0.0,0.0,0.0,4.8333,5.161,0.0,0.0,0.0,0.0,5.162,5.2491,5.3985,5.6297,5.7226,5.8731,6.1043,6.1227,6.1667,6.2426,6.2536,6.2976,6.3846,6.3013,6.305,6.3882,6.3062,6.2254,6.1594,6.2254,6.2132,6.1117,5.6308,5.473,5.5071,5.2758,5.2307,5.2774,5.1279,5.1709,5.281,0.0,0.0,0.0,0.0,0.0,0.0,0.0,0.0,4.258,4.3396,4.3938,4.4599,4.5369,4.6205,4.6865,4.7388,4.7462,4.7085,4.6305,4.548,4.5039,4.5039,4.4562,4.4353,4.458,4.5882,4.7012,4.7984,4.9534,5.0432,5.0698,5.073,5.044,4.9911,4.9618,4.8857,4.7765,4.6718,4.5471,4.4268,4.4268,4.3975,0.0,0.0,0.0,0.0,0.0,0.0,0.0,0.0,0.0,0.0,0.0,0.0,0.0,0.0,0.0,0.0,0.0,0.0,0.0,0.0,0.0,0.0,0.0,0.0,0.0,0.0,0.0,0.0,0.0,0.0,0.0,0.0,0.0,0.0,0.0,0.0,0.0,5.3078,5.6124,0.0,5.4509,5.5416,5.6334,5.659,5.8352,6.0224,6.2169,6.3025,6.409,6.5498,6.6035,6.6182,6.5962,6.5962,6.5852,6.5632,6.4811,6.4554,6.4861,6.4554,6.4261,6.398,6.3723,6.3759,6.3833,6.1557,5.9869,5.8584,5.774,5.6969,5.6235,5.5647,5.5794,5.6198,0.0,0.0,0.0,0.0,0.0,0.0,0.0,4.269,4.2919,4.3433,4.4452,4.5397,4.6205,4.7526,4.8553,4.9104,4.8893,4.8379,4.7562,4.6241,4.5516,4.5516,4.5268,4.5384,4.5965,4.7505,4.8775,4.9664,5.1005,5.206,5.2849,5.2582,5.2461,5.2417,5.2123,5.172,5.1143,4.9728,4.7883,4.5874,4.5617,4.5369,4.4892,0.0,0.0,0.0,0.0,0.0,0.0,0.0,0.0,0.0,0.0,0.0,0.0,0.0,0.0,0.0,0.0,0.0,0.0,0.0,0.0,0.0,0.0,0.0,0.0,0.0,0.0,0.0,0.0,0.0,0.0,0.0,0.0,0.0,0.0,0.0,5.7604,5.7604,6.097,6.2328,5.9893,6.1104,6.2169,6.2462,6.4224,6.5985,6.7637,6.8238,6.8898,6.9683,6.9963,6.9853,6.9302,6.9045,6.8641,6.8128,6.732,6.6916,6.6916,6.6916,6.6769,6.6499,6.6219,6.6256,6.6463,6.5925,6.4604,6.2768,6.1961,6.1006,6.0015,5.9722,5.9465,5.9171,0.0,0.0,0.0,0.0,0.0,0.0,4.3249,4.3506,4.3506,4.3543,4.4975,4.6287,4.7076,4.9397,5.0875,5.0875,5.0115,4.927,4.8443,4.6094,4.4773,4.481,4.5681,4.6624,4.7636,4.9187,5.0403,5.1235,5.2031,5.3119,5.4464,5.37,5.4143,5.5585,5.4803,5.4436,5.4399,5.3618,5.1453,4.8443,4.7553,4.7599,4.8003,0.0,0.0,0.0,0.0,0.0,0.0,0.0,0.0,0.0,0.0,0.0,0.0,0.0,0.0,0.0,0.0,0.0,0.0,0.0,0.0,0.0,0.0,0.0,0.0,0.0,0.0,0.0,0.0,0.0,0.0,0.0,0.0,0.0,5.4766,5.8767,6.1826,6.1887,6.6145,6.8114,6.5802,6.699,6.8251,6.9009,6.9816,7.0954,7.2532,7.2606,7.2936,7.3758,7.2973,7.2569,7.2569,7.1784,7.138,7.138,7.055,7.0183,7.0183,7.0146,6.9706,6.9009,6.9779,6.9669,6.8935,6.8935,6.8495,6.7554,6.5131,6.4176,6.4029,6.316,6.2365,6.1557,0.0,0.0,0.0,0.0,0.0,0.0,4.3249,4.3506,4.3726,4.4305,4.6278,4.7976,4.883,5.1096,5.2553,5.2553,5.1279,5.0362,5.0141,4.7278,4.6094,4.7269,4.869,4.9928,5.0892,5.1888,5.2235,5.1995,5.3868,5.467,5.4514,5.5401,5.5736,5.5585,5.5365,5.5254,5.5254,5.5034,5.441,5.3309,5.0188,4.8306,4.7379,0.0,0.0,0.0,0.0,0.0,0.0,0.0,0.0,0.0,0.0,0.0,0.0,0.0,0.0,0.0,0.0,0.0,0.0,0.0,0.0,0.0,0.0,0.0,0.0,0.0,0.0,0.0,0.0,0.0,0.0,0.0,0.0,6.1459,6.0591,6.3686,6.6659,6.8408,7.0844,7.2129,7.1431,7.2312,7.2789,7.2422,7.312,7.4037,7.5065,7.4551,7.461,7.5395,7.4661,7.4243,7.4243,7.345,7.3046,7.3046,7.2239,7.1835,7.1835,7.1248,7.083,7.061,7.0257,6.9963,6.9779,6.9779,6.9633,6.9192,6.6769,6.5485,6.4861,6.4053,6.3576,6.3295,0.0,0.0,0.0,0.0,0.0,0.0,4.3322,4.3506,4.38,4.459,4.7131,4.905,4.949,5.205,5.3434,5.2747,5.1536,5.0508,4.9811,4.7697,4.7308,4.9227,5.0934,5.2256,5.3093,5.4217,5.4454,5.3713,5.5039,5.561,5.5518,5.6773,5.7264,5.7158,5.7807,5.7935,5.7604,5.7604,5.7409,5.6859,5.3812,5.183,5.0535,4.9544,4.9067,4.8857,4.8196,4.8049,4.8012,4.7205,0.0,0.0,0.0,0.0,0.0,0.0,0.0,0.0,0.0,0.0,0.0,0.0,0.0,0.0,0.0,0.0,0.0,0.0,0.0,0.0,0.0,0.0,0.0,0.0,6.3796,6.7026,6.8187,6.9412,7.1101,7.3546,7.4955,7.5873,7.6218,7.6387,7.6276,7.5799,7.5873,7.6114,7.6592,7.6151,7.6114,7.6607,7.6151,7.5894,7.5894,7.5102,7.4698,7.4698,7.3891,7.3509,7.3487,7.3032,7.2812,7.2775,7.2312,7.2129,7.2092,7.1762,7.1394,0.0,0.0,0.0,0.0,0.0,6.5888,6.5498,0.0,0.0,0.0,0.0,0.0,0.0,4.3396,4.3506,4.3836,4.4737,4.7618,4.9564,4.9527,5.2344,5.3665,5.2134,5.1242,5.0178,4.8663,4.8032,4.8784,5.1129,5.2911,5.4128,5.4804,5.6261,5.6586,5.5683,5.5788,5.628,5.7196,5.8007,5.8809,5.968,6.1114,6.1337,6.0676,6.0676,6.026,5.949,5.8058,5.6712,5.5365,5.3125,5.2674,5.2994,5.1563,5.0655,5.0004,4.915,0.0,0.0,0.0,0.0,0.0,0.0,0.0,0.0,0.0,0.0,0.0,0.0,0.0,0.0,0.0,0.0,0.0,0.0,0.0,0.0,0.0,0.0,0.0,0.0,6.9376,7.2386,7.624,7.5542,7.5395,7.7362,7.8332,7.914,7.989,7.9213,7.8772,7.8846,7.806,7.7546,7.7436,0.0,0.0,0.0,0.0,7.7289,7.7289,7.6607,7.624,7.624,7.5491,7.516,7.516,7.5087,7.505,7.5014,7.494,7.4903,7.483,7.4147,7.3413,7.2606,7.0807,7.011,7.0,6.9302,6.8531,6.7737,0.0,0.0,0.0,0.0,0.0,0.0,4.3396,4.3506,4.402,4.548,4.7948,4.961,4.9564,5.1903,5.3041,5.2097,5.1242,5.0655,5.0325,5.08,5.2128,5.4543,5.6231,5.7183,5.7373,5.7706,5.7164,5.5706,5.6308,5.7358,5.8863,5.9588,6.072,6.2128,6.2449,6.2462,6.2352,6.2352,6.2242,6.2095,6.1765,5.9208,5.5475,5.4363,5.3628,5.3177,5.2847,5.3041,5.3335,5.2517,5.259,5.2711,5.1096,4.9774,0.0,0.0,0.0,0.0,0.0,0.0,0.0,0.0,0.0,0.0,0.0,0.0,0.0,0.0,0.0,0.0,0.0,0.0,0.0,7.0697,7.4515,7.7892,8.0645,8.0755,8.0241,7.9412,8.0057,8.0608,8.0755,8.0021,7.9853,8.0498,7.9764,7.9029,7.8369,7.8369,7.8038,7.7326,7.7289,7.7289,7.7289,7.7142,7.7069,7.7069,0.0,0.0,7.6812,7.6151,7.5873,7.5836,7.516,7.4903,7.4903,7.472,7.4573,7.4133,7.1248,7.011,7.0073,6.9926,6.9376,6.8752,0.0,0.0,0.0,0.0,0.0,0.0,4.3433,4.3506,4.3947,4.5149,4.7425,4.8783,4.8379,5.0535,5.1342,4.9701,4.9554,5.0068,5.1316,5.2501,5.443,5.7241,5.852,5.9357,5.978,5.9799,5.9614,5.9259,5.9208,5.9843,6.1091,6.1846,6.2643,6.3434,6.4265,6.4444,6.4114,6.4897,6.4787,6.404,6.404,6.2365,5.9734,5.8474,5.774,5.7336,5.6957,5.6811,5.6664,5.5868,5.5317,5.473,5.3115,5.2013,5.1022,0.0,0.0,0.0,0.0,0.0,0.0,0.0,0.0,0.0,0.0,0.0,0.0,0.0,0.0,6.2389,0.0,0.0,7.2973,7.624,7.914,8.1562,8.3177,8.3398,8.2957,8.1746,8.1966,8.237,8.2774,8.2076,8.1782,8.217,8.1452,8.0645,7.9837,7.98,7.9433,7.8589,7.8552,7.8369,7.7949,7.7949,7.7729,7.7289,7.7289,7.7289,7.7289,7.6885,7.6702,7.6665,7.6261,7.6114,7.6078,7.5674,7.5506,7.5322,7.3303,7.2275,7.1908,7.1908,7.1138,7.0169,0.0,0.0,0.0,0.0,0.0,0.0,0.0,4.3506,4.38,4.459,4.6535,4.7599,4.6929,4.8773,4.9287,4.7259,4.8113,4.9884,5.2538,5.4309,5.6595,5.9668,6.0701,6.1392,6.173,6.1882,6.2304,6.3017,6.2374,6.263,6.3762,6.4426,6.4874,6.5264,6.6601,6.6843,6.6316,6.7627,6.743,6.6242,6.6242,6.5852,6.5094,6.3442,6.2401,6.1741,6.0933,6.0114,5.9306,5.851,5.7373,5.6051,5.4755,5.4242,5.3691,5.1353,5.2344,0.0,0.0,0.0,0.0,0.0,0.0,0.0,0.0,0.0,6.0603,6.2401,6.5472,6.8921,7.2334,7.5579,7.8736,8.1672,8.3381,8.4592,8.5416,8.5527,8.5289,8.4629,8.4298,8.4335,8.5013,8.4352,8.3858,8.3858,8.3104,8.226,8.1269,8.1232,8.0718,7.9596,7.9706,7.9412,7.8589,7.8772,7.8479,7.7803,7.7803,7.7803,7.7766,7.7619,7.7546,7.7546,7.7362,7.7289,7.7252,7.6592,7.635,7.6276,7.5601,7.4882,7.4147,7.4001,7.301,7.1784,0.0,0.0,0.0,0.0,0.0,0.0,0.0,0.0,4.38,4.459,4.5553,4.614,4.603,4.6938,4.7406,4.7113,4.9214,5.1867,5.4997,5.7369,5.9729,6.2177,6.3693,6.3878,6.2572,6.3206,6.3653,6.3859,6.378,6.491,6.7159,6.7231,6.8058,6.9425,6.9605,6.9633,6.9559,6.9743,6.9706,6.9559,6.9559,6.9522,6.9229,6.7627,6.5191,6.2572,6.1741,6.0933,6.015,5.9343,5.8939,5.8756,5.8609,5.8022,5.7116,5.5438,5.4179,5.3104,5.2013,5.3041,5.506,5.7728,5.8609,6.0297,0.0,0.0,6.8348,7.066,7.4331,7.7451,7.8641,8.1489,8.4242,8.604,8.7068,8.7949,8.8739,8.8849,8.8849,8.8739,8.7455,8.6611,8.6721,8.6004,8.5527,8.5527,8.4792,8.3654,8.215,8.2076,8.1048,7.8809,7.9449,7.9412,7.8589,7.9302,7.9633,7.9522,7.9522,7.9522,7.9522,7.8772,7.8442,7.8405,7.7656,7.7289,7.7289,7.7215,7.7179,7.7179,7.7069,7.6518,7.5726,7.5028,7.4221,7.3413,0.0,0.0,0.0,0.0,0.0,0.0,0.0,0.0,4.3616,4.3975,4.4709,4.5039,4.4571,4.4782,4.5186,4.5654,4.881,5.1945,5.4664,5.8838,6.1817,6.3183,6.4752,6.5505,6.5389,6.5214,6.5914,6.7555,6.7069,6.7629,6.9099,6.9099,6.9695,7.0807,7.0807,7.1064,7.1541,7.1982,7.1908,7.1541,7.2018,7.1615,7.066,6.9522,6.7357,6.4677,6.2401,6.108,0.0,5.949,5.8902,5.8572,5.9049,5.8033,5.6393,5.5244,5.5097,5.5526,5.6602,5.7703,5.9134,6.1484,6.415,6.7086,7.0279,7.2826,7.5102,7.7047,8.0314,8.303,8.3838,8.5857,8.7601,0.0,8.9069,8.9711,9.006,8.929,8.872,8.872,8.8133,8.7692,8.7692,8.6958,8.6518,8.6518,8.6187,8.549,8.4352,8.3838,8.292,8.1452,8.1269,8.0791,8.0021,8.0791,8.0734,7.9816,8.0277,8.0241,7.9779,7.8956,7.8332,7.7803,7.7472,7.7289,7.7289,7.7289,7.7289,7.7289,7.7289,7.7105,7.6628,7.538,7.4404,7.3634,0.0,0.0,0.0,0.0,0.0,0.0,0.0,0.0,0.0,0.0,4.4011,4.4158,4.3543,4.3506,4.3836,4.4626,4.8233,5.1561,5.4165,5.9374,6.2749,6.3581,6.5569,6.6967,6.7654,6.7478,6.8613,7.1101,7.0513,7.066,7.1431,7.1431,7.1711,7.2298,7.2298,7.2628,7.3193,7.378,7.3707,7.3193,7.356,7.2863,7.1454,7.0,6.7797,6.5154,6.2511,6.0786,5.9538,5.8315,5.7629,5.7409,5.7765,5.7116,5.6062,5.5023,5.5721,5.7288,5.9453,6.1153,6.2891,6.5448,6.9545,7.3289,7.4551,7.8002,8.1269,8.2406,8.5049,8.7288,8.7912,8.9143,9.006,9.006,9.0555,9.0849,9.0629,8.9417,8.839,8.7912,8.7472,8.7288,8.7509,8.7399,8.7234,8.7014,8.6978,8.6664,8.582,8.5233,8.4462,8.3418,8.3067,8.248,8.1672,8.2443,8.226,8.1138,8.1709,8.1562,8.0755,7.9507,7.8479,7.7656,7.7399,7.7289,7.7289,7.7289,7.7289,7.7289,7.7289,7.7289,7.7142,7.5747,7.4992,7.4551,0.0,0.0,0.0,0.0,0.0,0.0,0.0,0.0,0.0,0.0,0.0,4.3543,4.3506,4.3506,4.3836,4.4626,4.7728,5.0999,5.4192,5.8956,6.2245,6.3636,6.6689,6.8399,6.8573,6.9955,7.1641,7.3611,7.3575,7.3964,7.4757,7.4757,7.4757,7.4793,7.4793,7.4793,7.483,7.483,7.483,7.4757,7.4001,7.3193,7.2129,6.8985,6.5742,6.2793,6.1924,6.0089,5.7703,5.5354,5.506,5.5548,5.4766,5.6088,5.7629,5.6025,5.6161,5.7141,5.8792,6.1594,6.5154,6.9912,7.4133,7.7766,8.0204,8.3858,8.6757,8.6794,8.8757,9.0482,9.0482,9.1179,9.173,9.173,9.173,9.1473,9.0702,8.9877,8.8776,8.7198,8.5673,8.5013,0.0,8.7252,8.7839,8.7051,8.6978,8.6664,8.582,8.58,8.5049,8.3454,8.4132,8.4132,8.3344,8.4132,8.4499,8.4462,8.4499,8.4058,8.3197,8.0828,7.9339,7.8516,7.7656,7.7289,7.7289,7.7289,7.7289,7.7289,7.7289,7.7289,7.7215,7.6387,7.6518,7.6959,0.0,0.0,0.0,0.0,0.0,0.0,0.0,0.0,0.0,0.0,0.0,0.0,0.0,0.0,0.0,0.0,4.687,4.9309,5.2038,5.7183,6.0503,6.1257,6.583,6.867,6.9389,7.0859,7.2538,7.4515,7.4515,7.461,7.4903,7.4903,7.516,7.5689,7.5689,7.5968,7.6481,7.6481,7.6481,7.6335,7.4441,7.323,7.2092,6.8311,6.453,6.0896,0.0,5.6418,5.462,5.3261,5.2978,5.3272,5.3518,5.3775,5.4116,5.4656,5.6895,5.9905,6.3172,6.6806,7.0954,7.6371,7.9968,8.2774,8.5233,8.7655,8.9381,8.9381,8.8739,8.8189,8.8189,8.7986,8.7986,8.8536,8.9968,9.0922,9.0629,8.9913,8.8225,8.4996,8.4592,0.0,0.0,0.0,0.0,8.6904,8.6518,8.6334,8.6591,8.6077,8.5527,8.5013,8.4756,8.4462,8.4205,8.4976,8.5123,8.4609,8.4058,8.3087,8.1782,8.0388,7.9376,7.8552,7.7693,7.7289,7.7289,7.7289,7.7289,7.7289,7.7289,7.7289,7.7289,7.6995,7.7069,7.7069,0.0,0.0,0.0,0.0,0.0,0.0,0.0,0.0,0.0,0.0,0.0,0.0,0.0,0.0,0.0,0.0,0.0,4.7819,4.9756,5.4317,5.7285,5.8108,6.2057,6.4828,6.6055,6.7268,6.8926,7.1107,7.1918,7.2642,7.3193,7.4074,7.4735,7.5249,7.5542,7.5968,7.6408,7.6151,7.5674,7.494,7.2532,7.0748,6.9045,6.5007,6.1484,0.0,5.5023,5.3041,5.1793,5.0949,5.1059,5.161,5.183,5.2344,5.3335,5.5831,5.9208,6.3246,6.8164,7.2055,7.6056,8.1746,8.4535,8.6444,8.8573,9.0078,9.0776,8.9931,8.8059,8.6297,8.5453,8.4389,8.4001,8.5123,8.6371,8.7582,8.872,8.7692,8.606,8.4078,8.3765,8.3251,0.0,0.0,0.0,8.6407,8.6371,8.6591,8.7399,8.7215,8.7105,8.7105,8.6591,8.6187,8.5894,8.6407,8.6261,8.5453,8.4335,8.3287,8.226,8.0865,7.98,7.8993,7.8148,7.7582,7.7289,7.7289,7.7289,7.7289,7.7289,7.7289,7.7289,7.7289,7.7289,7.7105,0.0,0.0,0.0,0.0,0.0,0.0,0.0,0.0,0.0,0.0,0.0,0.0,0.0,0.0,0.0,0.0,0.0,0.0,4.7476,5.0497,5.29,5.4313,5.6003,5.7663,5.9271,5.9988,6.1599,6.412,6.6336,6.822,6.9774,7.2137,7.3252,7.3303,7.4074,7.439,7.4353,7.3597,7.2386,7.072,6.8311,6.5938,6.3478,5.9428,5.6907,5.5144,5.2013,5.0372,4.9527,4.871,4.9618,5.0986,5.0298,5.2317,5.5684,5.9685,6.3196,6.7233,7.3509,7.7084,8.0351,8.582,8.7766,8.872,9.0262,9.1143,9.0922,8.85,8.6554,8.4572,0.0,0.0,8.0147,8.1835,8.1672,8.248,8.56,8.4058,8.3141,0.0,0.0,0.0,0.0,0.0,0.0,8.5764,0.0,8.7325,8.8133,8.8959,8.94,8.94,8.94,8.9033,8.828,8.8206,8.7766,8.6904,8.5343,8.4572,8.4462,8.2076,8.0571,7.9816,7.8993,7.8185,7.7362,7.7362,7.7362,7.7289,7.7289,7.7289,7.7289,7.7289,7.7289,7.7179,0.0,0.0,0.0,0.0,0.0,0.0,0.0,0.0,0.0,0.0,0.0,0.0,0.0,0.0,0.0,0.0,0.0,0.0,4.5302,4.7697,4.9729,5.1182,5.4312,5.6557,5.7736,5.8996,6.0372,6.1774,6.2946,6.3971,6.4908,6.6066,6.691,6.7467,6.7637,6.7747,6.7747,6.7527,6.688,6.5705,6.3246,6.1887,6.097,5.7519,5.5585,5.4509,5.3104,5.1673,5.0472,5.0251,5.2454,5.5453,5.6444,5.8988,6.2291,6.5742,6.9889,7.4258,7.8332,8.2113,8.5637,8.8867,8.9858,9.0115,9.0519,8.9821,8.8426,8.6004,8.1819,7.8002,0.0,0.0,0.0,8.0036,8.3765,0.0,8.9087,8.8867,0.0,8.6537,0.0,8.5637,8.5233,8.4976,0.0,0.0,8.6664,8.6701,8.8133,8.8959,8.94,8.94,8.94,8.929,8.9106,8.85,8.7509,8.6077,8.5086,8.4278,8.3638,8.184,8.0901,8.0645,7.9837,7.9029,7.8259,7.8259,7.7876,7.7289,7.7289,7.7289,7.7289,7.7289,7.7289,7.7289,0.0,0.0,0.0,0.0,0.0,0.0,0.0,0.0,0.0,0.0,0.0,0.0,0.0,0.0,0.0,0.0,0.0,0.0,0.0,4.472,4.5974,4.7124,4.8883,5.0243,5.1119,5.2245,5.327,5.4223,5.6012,5.7284,5.8047,5.9776,6.0778,6.1209,6.1825,6.2279,6.2572,6.1875,6.1117,0.0,0.0,5.7042,5.6492,5.4326,5.3665,5.3728,5.2553,5.3141,5.4645,5.571,5.7336,5.9501,6.2903,6.5485,6.8128,7.2422,7.6093,7.9543,8.3177,8.6334,8.8996,9.0702,9.0849,9.0152,8.839,8.6995,8.4903,8.0681,7.6717,7.3377,7.1445,7.2386,0.0,0.0,0.0,0.0,8.8573,8.8426,8.7986,0.0,8.7748,0.0,8.6885,8.6848,8.7215,0.0,8.7692,8.7949,8.9197,9.0041,9.0427,9.0427,9.0427,9.0097,8.94,8.8225,8.7215,8.6334,8.5527,8.4719,8.3858,8.2627,8.1672,8.0975,0.0,7.9653,7.8589,7.8589,7.8112,7.7289,7.7289,7.7289,7.7289,7.7289,7.7289,7.7289,0.0,0.0,0.0,0.0,0.0,0.0,0.0,0.0,0.0,0.0,0.0,0.0,0.0,0.0,0.0,0.0,0.0,0.0,0.0,0.0,4.2489,4.322,4.2625,4.2591,4.3254,4.3825,4.4473,4.5255,4.8041,4.9868,5.0731,5.3495,5.4798,5.493,5.6164,5.7116,5.7655,5.626,5.528,5.452,5.3261,5.238,5.1767,0.0,5.1966,5.3177,5.1903,5.4719,5.9526,6.2572,6.3503,6.4273,6.9559,7.2018,7.3949,7.9323,8.1982,8.3985,8.7802,8.9858,9.1106,9.1803,9.1106,8.9271,8.5343,8.3398,8.0629,7.4368,7.1688,6.9802,6.7467,6.8641,7.1101,7.4647,0.0,8.1232,8.6995,8.6628,8.6811,8.9693,8.9344,8.8904,8.9014,8.8793,8.872,8.883,8.94,8.9987,9.0592,9.1363,9.1803,9.1803,9.1693,9.0922,8.94,8.7895,8.7088,8.6978,8.6187,8.538,8.4572,8.3748,8.2574,8.1158,8.1158,8.0241,7.8772,7.8772,7.8185,7.7289,7.7289,7.7289,7.7289,7.7289,7.7289,7.7289,0.0,0.0,0.0,0.0,0.0,0.0,0.0,0.0,0.0,0.0,4.3515,4.2827,0.0,0.0,0.0,0.0,0.0,0.0,0.0,0.0,0.0,4.2455,4.2367,4.2367,4.2489,4.2589,4.2736,4.2898,4.4509,4.5672,4.6424,4.8032,4.9078,4.9618,4.9881,5.0058,5.0168,4.9874,4.9701,4.9591,5.0041,5.0555,5.1059,5.1583,0.0,0.0,5.463,5.6235,5.9208,6.5655,6.9949,7.3105,7.6166,7.9066,8.2023,8.5673,8.7399,8.8739,9.151,9.2464,9.2721,9.2831,9.0739,8.7729,8.4372,8.0372,7.5909,7.0807,6.7931,6.5802,6.3967,6.6646,7.0793,7.6041,8.0078,8.4776,9.1143,9.1803,9.2097,0.0,9.2758,0.0,0.0,0.0,0.0,0.0,9.1693,9.1143,9.0629,9.1363,9.1803,9.1803,9.1143,9.0354,8.94,8.8463,8.7655,8.6978,8.6187,8.538,8.4572,8.3748,8.2884,8.2003,8.2003,0.0,7.9596,7.9596,7.8699,7.7289,7.7289,7.7289,7.7289,7.7289,7.7289,7.7289,0.0,0.0,0.0,0.0,0.0,0.0,0.0,4.3862,4.3942,4.4742,4.3734,4.3035,4.3294,4.2946,4.2478,0.0,0.0,0.0,0.0,0.0,0.0,4.1529,4.1588,4.1714,4.2041,4.2422,4.2422,4.2041,0.0,4.3535,4.3507,4.4473,4.5088,4.5408,4.5663,4.603,4.6425,4.6425,4.6691,4.7168,4.8416,4.9407,5.0325,5.1977,0.0,0.0,5.5941,5.807,6.119,6.5545,7.1087,7.6959,8.1509,8.4592,8.7088,8.9931,9.1033,9.1675,9.3308,9.3418,9.3088,9.3088,9.0335,8.6187,8.0828,7.6497,7.1982,6.6292,6.387,6.2609,6.2254,6.5191,6.8972,7.2885,7.6974,8.1856,8.839,8.9674,0.0,9.3382,9.3712,9.3712,0.0,0.0,0.0,0.0,9.2024,9.162,9.1253,9.1583,9.1803,9.1803,9.1033,9.0391,9.0024,8.883,8.8023,8.7619,8.6811,8.6004,8.5196,8.4389,8.3581,8.281,8.237,0.0,7.9816,7.9816,7.8809,7.7289,7.7289,7.7289,7.7289,7.7289,7.7289,7.7289,0.0,0.0,0.0,0.0,0.0,0.0,0.0,4.4185,4.4159,4.5127,4.428,4.3664,4.3763,4.3176,4.2491,0.0,0.0,0.0,0.0,0.0,0.0,0.0,0.0,0.0,4.1617,0.0,0.0,4.2069,4.2921,0.0,0.0,0.0,0.0,0.0,4.3376,4.4048,4.4957,4.4773,4.525,0.0,0.0,4.915,5.0325,0.0,0.0,0.0,0.0,5.9086,6.2169,6.4701,6.9876,7.6335,8.2647,8.6611,8.929,9.1436,9.2537,9.3272,9.4079,9.3822,9.3272,9.2905,8.9638,8.4665,7.7708,7.323,6.8825,6.2842,6.0823,6.0456,6.141,6.3833,6.6733,6.9853,7.3303,7.8038,8.5049,8.6921,8.9033,0.0,9.4189,0.0,9.3675,9.3308,0.0,9.2134,9.1913,9.1803,9.1803,9.1803,9.1803,9.1803,9.1033,9.0592,9.0592,8.9014,8.8206,8.8206,8.7399,8.6481,8.5527,8.4903,8.4058,8.3087,8.248,0.0,0.0,7.9816,7.8809,7.7289,7.7289,7.7289,7.7289,7.7289,7.7289,7.7289,0.0,0.0,0.0,0.0,0.0,0.0,0.0,4.4185,4.4339,4.5884,4.5423,4.4507,4.3474,4.3087,4.2586,0.0,0.0,0.0,0.0,0.0,0.0,0.0,0.0,0.0,0.0,0.0,0.0,4.2891,4.4232,0.0,0.0,0.0,0.0,0.0,0.0,4.435,4.5736,4.4993,0.0,0.0,0.0,0.0,0.0,0.0,0.0,0.0,0.0,5.8143,5.9245,6.4604,6.7357,6.9573,7.5285,8.1782,8.7418,8.839,9.0776,9.3272,9.4079,9.4226,9.3822,9.2281,8.8353,8.3287,7.7414,7.1908,6.6819,6.2487,6.0382,5.9783,6.13,6.2438,6.4921,7.0316,7.2716,7.6974,8.5673,8.8189,9.0684,9.4794,0.0,0.0,9.5272,9.3969,0.0,9.2978,9.2244,9.1803,9.1803,9.1803,9.1803,9.1803,9.1033,9.0592,9.0592,8.9014,8.8206,8.8206,8.7399,8.6224,8.4719,8.4646,8.3765,8.2296,8.2223,0.0,0.0,7.9816,7.8809,7.7289,7.7289,7.7289,7.7289,7.7289,7.7289,7.7289,0.0,0.0,0.0,0.0,0.0,0.0,4.4142,4.3662,4.3696,4.4941,4.4943,4.4721,4.4564,4.4365,4.3438,4.1413,0.0,0.0,0.0,0.0,0.0,0.0,0.0,0.0,0.0,0.0,4.4024,4.4024,4.5071,0.0,0.0,0.0,0.0,0.0,0.0,4.5296,4.592,4.6094,0.0,0.0,0.0,0.0,0.0,0.0,0.0,0.0,0.0,0.0,5.8976,6.0786,6.3221,6.5755,6.699,7.2055,7.8757,8.4939,8.8353,9.0849,9.4153,9.4666,9.4116,9.3455,8.8169,8.1929,7.7194,7.0991,6.5375,6.2218,6.0309,5.9673,6.13,6.1851,6.3135,6.6439,6.7907,7.1064,7.8038,8.0388,8.3801,9.0335,9.1969,0.0,0.0,0.0,9.4153,9.3161,9.2281,9.1803,9.1803,9.1803,9.1803,9.1803,9.1033,9.0592,9.0592,8.9014,8.8206,8.8206,8.7399,8.6407,8.5306,8.4829,8.3985,8.292,8.2406,0.0,0.0,8.0314,7.9234,7.7362,7.7876,7.7766,7.7289,7.7289,7.7289,7.7289,0.0,0.0,0.0,0.0,0.0,4.3351,4.3584,4.3087,4.2998,4.3965,4.4181,4.4456,4.5079,4.4902,4.4142,4.2644,4.1826,0.0,0.0,0.0,0.0,0.0,0.0,0.0,0.0,0.0,4.503,4.503,4.6104,4.6507,0.0,0.0,4.6241,4.625,0.0,0.0,0.0,0.0,0.0,0.0,0.0,0.0,0.0,0.0,0.0,0.0,0.0,0.0,0.0,0.0,0.0,6.2475,6.152,6.4567,7.0257,7.9507,8.4535,8.7986,9.1895,9.3455,9.3749,9.3015,8.7655,8.1342,7.679,7.0697,6.5228,6.2511,6.0664,6.004,6.1667,6.1741,6.2157,6.3846,6.4971,6.754,7.2936,7.5285,7.9029,8.5967,0.0,9.0115,0.0,9.4354,9.4317,9.3198,9.2281,9.1803,9.1803,9.1803,9.1803,9.1803,9.1253,9.0849,9.0592,8.9234,8.8426,8.8206,8.7399,8.6591,8.5764,8.4976,8.4168,8.3344,8.2553,0.0,0.0,8.0498,7.947,7.7729,7.8075,7.7839,7.7289,7.7289,7.7289,7.7289,0.0,0.0,0.0,0.0,0.0,0.0,4.2978,4.2485,4.241,4.3221,4.3381,4.37,4.4448,4.4214,4.4609,4.6111,4.4065,0.0,0.0,0.0,0.0,0.0,0.0,0.0,0.0,0.0,4.5883,4.5883,4.7489,4.7856,4.7076,4.7076,4.7076,4.7039,0.0,0.0,0.0,0.0,0.0,0.0,0.0,0.0,0.0,0.0,0.0,0.0,0.0,0.0,0.0,0.0,0.0,0.0,0.0,6.1006,6.3282,7.1431,7.8956,8.5013,8.6664,9.0024,9.2537,9.006,8.639,8.1913,7.6225,7.1174,6.6746,6.3453,6.1508,6.0884,6.2499,6.2144,6.2157,6.3846,6.5448,6.8164,7.3024,7.5747,7.883,0.0,0.0,8.593,8.9143,9.1675,9.3125,9.3088,9.2281,0.0,9.1803,9.1803,9.1803,9.1803,9.1803,9.14,9.0629,8.9803,8.8996,8.8206,8.7399,8.6591,8.5764,8.4976,8.4168,8.3344,0.0,0.0,0.0,8.0147,7.9339,7.8516,7.7656,7.7326,7.7289,7.7289,7.7289,7.7289,0.0,0.0,0.0,0.0,0.0,0.0,0.0,4.1395,4.1412,4.1805,4.2685,4.3554,4.4265,4.4492,4.5236,4.6826,4.4379,0.0,0.0,0.0,0.0,0.0,0.0,0.0,0.0,0.0,4.6177,4.6718,4.8379,4.9334,4.9618,4.9077,4.9114,4.9581,4.8793,4.8719,0.0,0.0,0.0,0.0,0.0,0.0,0.0,0.0,0.0,0.0,0.0,0.0,0.0,0.0,0.0,0.0,0.0,0.0,0.0,6.4347,7.0991,7.7855,8.1158,8.3434,8.4389,8.248,7.8956,7.5212,7.2275,6.8311,6.4787,6.3123,6.1961,6.1557,6.2609,6.2572,6.3319,6.6122,6.7003,6.8421,7.16,0.0,0.0,8.2904,8.8519,9.2446,0.0,0.0,9.3088,9.3088,9.2281,9.1803,9.1803,9.1803,9.1803,9.1803,9.1253,9.0592,8.9803,8.8959,8.8169,8.7399,8.7124,8.6591,8.5764,8.4976,8.4168,0.0,0.0,0.0,0.0,8.1305,8.0314,7.8626,7.8883,7.8332,7.7289,7.7289,7.7289,7.7289,0.0,0.0,0.0,0.0,0.0,0.0,0.0,4.1228,4.129,4.1411,4.2147,4.3162,4.446,4.4271,4.5023,4.7456,4.5101,0.0,0.0,0.0,0.0,0.0,0.0,0.0,4.3938,4.5223,4.6617,4.8039,4.938,5.0482,5.1242,5.1059,5.0912,5.0802,5.0592,5.0335,0.0,0.0,0.0,0.0,0.0,0.0,5.6884,0.0,0.0,0.0,0.0,0.0,0.0,0.0,0.0,0.0,0.0,0.0,0.0,0.0,6.4934,7.022,7.5212,7.8075,7.9271,7.7965,7.5065,7.2018,7.0073,6.699,6.4237,6.305,6.2401,6.2218,6.2719,6.2793,6.3453,6.5521,6.6366,6.765,7.0059,0.0,0.0,8.283,0.0,0.0,0.0,9.3418,9.3418,9.3125,9.2281,9.1803,9.1803,9.1803,9.1803,9.1803,9.1326,9.0519,8.94,8.8886,8.8096,8.6978,8.6978,8.6738,8.6224,8.5123,8.4352,0.0,0.0,0.0,0.0,8.1525,8.0498,7.8662,7.9155,7.8516,7.7289,7.7289,7.7289,7.7289,0.0,0.0,0.0,0.0,0.0,0.0,0.0,4.181,4.181,4.181,4.1842,4.2663,4.4714,4.3608,4.422,4.7818,0.0,0.0,0.0,0.0,0.0,0.0,0.0,0.0,4.4663,4.548,4.7141,4.961,5.0398,5.1242,5.2097,5.2784,5.2333,5.0986,5.1683,5.162,0.0,0.0,0.0,0.0,5.4997,5.6124,0.0,0.0,0.0,0.0,0.0,0.0,0.0,0.0,0.0,0.0,0.0,0.0,0.0,0.0,0.0,0.0,0.0,7.3289,7.6078,7.5212,7.334,7.1138,6.8811,6.6609,0.0,6.2976,6.2646,6.2646,6.2793,6.2719,6.2756,6.3086,6.4444,0.0,0.0,7.2848,0.0,0.0,8.7344,0.0,8.9436,9.2317,9.3859,9.3088,9.2244,9.1803,9.1803,9.1803,9.1803,9.1803,9.173,9.0959,8.9436,8.9326,8.8519,8.6978,8.6978,8.6978,8.6941,8.5343,8.4609,0.0,0.0,0.0,8.1012,8.1012,8.0057,7.8589,7.8589,7.806,7.7289,7.7289,7.7289,7.7289,0.0,0.0,0.0,0.0,0.0,0.0,0.0,0.0,0.0,0.0,4.2211,4.2701,4.3198,4.3296,4.4153,0.0,0.0,0.0,0.0,0.0,0.0,0.0,0.0,0.0,4.4663,4.548,4.7141,4.961,5.0398,5.1536,5.292,5.2491,5.2417,5.2627,5.2197,5.2234,0.0,0.0,0.0,0.0,5.5438,5.6466,0.0,0.0,0.0,0.0,5.7299,5.7483,0.0,0.0,0.0,0.0,0.0,0.0,0.0,0.0,5.9123,6.0114,6.1618,0.0,6.5875,6.4457,6.4127,6.3833,0.0,6.2438,6.2181,6.119,6.0958,6.1325,6.2572,6.1802,6.2181,6.5925,0.0,6.8201,7.1248,0.0,0.0,8.7528,9.1033,9.217,8.9657,9.1785,9.3015,9.217,9.1913,9.1803,9.1803,9.1803,9.1803,9.1803,9.1216,9.0408,8.94,8.8776,8.7986,8.6978,8.6978,8.6978,8.6941,8.5343,8.4609,0.0,0.0,8.1746,8.1012,8.1012,8.0057,7.8589,7.8589,7.806,7.7289,7.7289,7.7289,7.7289,0.0,0.0,0.0,0.0,0.0,0.0,0.0,0.0,0.0,0.0,0.0,0.0,0.0,0.0,0.0,0.0,0.0,0.0,0.0,0.0,0.0,0.0,0.0,4.4415,4.5214,4.6021,4.7865,5.0702,5.1143,5.2344,5.4289,5.3859,5.3702,5.3728,5.2931,5.2784,0.0,0.0,0.0,0.0,5.5831,0.0,0.0,0.0,0.0,0.0,5.7068,5.7336,0.0,5.7068,5.7336,5.7997,0.0,0.0,0.0,0.0,5.8327,5.8646,5.8646,6.0407,6.2034,6.119,6.1263,6.1496,6.1043,6.1006,6.0933,6.0493,6.0419,6.0676,6.1545,6.1582,6.2511,0.0,6.7297,0.0,0.0,0.0,8.4555,8.8886,9.0978,9.1803,0.0,9.2317,9.2758,9.1877,9.1803,9.1803,9.1803,9.1803,9.1803,9.1803,9.0665,8.984,8.94,8.861,8.7802,8.6978,8.6978,8.6811,8.6407,8.5159,8.4389,0.0,0.0,8.1525,8.0461,8.0865,7.9837,7.8023,7.8442,7.806,7.7289,7.7289,7.7289,7.7289,0.0,0.0,0.0,0.0,0.0,0.0,0.0,0.0,0.0,0.0,0.0,0.0,0.0,0.0,0.0,0.0,0.0,0.0,0.0,0.0,0.0,0.0,4.4847,4.5177,4.625,4.6682,4.8517,5.184,5.195,5.3125,5.5254,5.5475,5.5181,5.4363,5.3691,5.3398,0.0,0.0,0.0,0.0,5.6271,0.0,0.0,0.0,0.0,0.0,0.0,0.0,0.0,5.6859,5.7152,5.7813,5.7666,0.0,0.0,0.0,0.0,0.0,5.8107,5.9942,6.1667,6.1153,6.1153,6.119,6.1092,6.0529,6.0015,6.0015,6.0015,6.0199,6.0676,6.1765,0.0,0.0,0.0,0.0,7.8809,8.1085,8.3875,8.8629,8.9657,0.0,9.2207,9.2831,9.2758,9.1877,9.1693,9.162,9.162,9.151,9.1436,9.1436,8.9987,8.9216,8.9216,8.8426,8.7655,8.6978,8.6867,8.6444,8.5764,8.4829,8.4058,8.3344,0.0,0.0,7.9853,8.0534,7.9417,7.7362,7.8112,7.7949,7.7289,7.7289,7.7289,7.7289,0.0,0.0,0.0,0.0,0.0,0.0,0.0,0.0,0.0,0.0,0.0,0.0,0.0,0.0,0.0,0.0,0.0,0.0,0.0,0.0,0.0,4.6746,4.5434,4.5691,4.7902,4.6728,4.7682,5.0986,5.1693,5.2527,5.3581,5.495,5.5181,5.4399,5.4289,5.4216,5.4216,0.0,0.0,5.6444,5.6701,0.0,0.0,0.0,0.0,0.0,0.0,0.0,0.0,5.5842,5.6308,5.6859,5.6172,0.0,0.0,0.0,0.0,0.0,5.8646,6.0774,6.1949,5.9245,5.9061,5.938,5.8694,5.8474,5.8364,5.8364,5.8364,5.9208,6.1912,6.2071,6.3172,0.0,0.0,7.8023,0.0,0.0,8.7435,8.828,0.0,9.1583,8.9197,9.1473,9.2758,9.1877,9.1179,9.0776,9.0776,9.0134,8.9767,8.9767,8.8867,8.839,8.839,8.7582,8.7124,8.6978,8.6297,8.593,8.5764,8.4278,8.3528,8.3344,0.0,8.1285,7.9816,7.9926,7.8919,7.7326,7.7436,7.7436,7.7289,7.7289,7.7289,7.7289,0.0,0.0,0.0,0.0,0.0,0.0,0.0,0.0,0.0,0.0,0.0,0.0,0.0,0.0,0.0,0.0,0.0,0.0,0.0,0.0,4.8453,4.8453,4.7719,4.7609,4.8306,4.8453,4.9701,5.2113,5.2894,5.3922,5.5159,5.5904,5.5574,5.4436,5.484,5.4803,5.4473,5.5317,5.6113,5.6847,0.0,0.0,0.0,0.0,0.0,0.0,0.0,0.0,0.0,0.0,5.55,5.6088,5.5732,0.0,0.0,0.0,0.0,0.0,5.7042,5.8694,6.0052,5.9465,6.0566,6.152,6.0236,5.9954,5.9954,5.9954,6.0309,6.1325,6.371,0.0,6.8201,7.4441,0.0,8.1656,8.4719,8.5783,8.6738,0.0,0.0,9.0372,9.0152,9.151,9.2244,9.184,9.1069,9.0592,9.0592,8.984,8.94,8.94,8.861,8.8206,8.8206,8.6958,8.6334,8.6334,8.5527,8.4903,8.4499,8.3748,8.2941,8.206,0.0,8.0645,7.9155,7.9155,7.8405,7.7335,7.7695,7.7817,7.7875,7.8204,7.8132,7.7817,0.0,0.0,0.0,0.0,0.0,0.0,0.0,0.0,0.0,0.0,0.0,0.0,0.0,0.0,0.0,0.0,0.0,0.0,0.0,4.9013,4.961,4.961,4.9894,4.9821,4.9187,5.0251,5.1599,5.3214,5.4179,5.55,5.7079,5.7079,5.6235,5.473,5.5511,5.5427,5.4766,5.6198,5.6921,5.7152,0.0,0.0,0.0,0.0,0.0,0.0,0.0,0.0,0.0,0.0,0.0,0.0,0.0,0.0,0.0,5.5585,5.5585,5.5695,5.6062,5.7347,5.8841,6.0089,6.1704,6.2915,6.2781,6.2291,6.2108,6.2891,6.3503,6.4407,0.0,6.9229,0.0,8.0241,8.3104,8.4849,8.5857,8.6187,8.6958,8.883,8.905,8.9784,9.162,9.1803,9.173,9.1546,9.0776,9.0262,9.0041,8.929,8.8849,8.8849,8.8059,8.7619,8.7619,8.604,8.5416,8.5783,8.4792,8.4005,8.3381,8.3014,8.217,8.1012,8.0791,7.991,7.8589,7.8589,7.8112,7.7365,7.8044,7.8379,7.8588,7.9022,7.8889,7.8523,0.0,0.0,0.0,0.0,0.0,0.0,0.0,0.0,0.0,0.0,0.0,0.0,0.0,0.0,0.0,0.0,0.0,0.0,0.0,4.8719,4.961,4.961,5.1032,5.1803,5.173,5.1132,5.1599,5.3214,5.473,5.6356,5.7923,5.7923,5.7053,5.5548,5.6345,5.6271,5.5585,5.6418,5.7226,5.7923,5.796,0.0,0.0,0.0,0.0,0.0,0.0,0.0,0.0,0.0,0.0,0.0,0.0,0.0,5.5585,5.5585,5.5585,5.5915,5.7421,5.8988,6.0272,6.0382,5.9967,6.0701,6.5154,6.4383,6.3576,6.6636,6.7297,0.0,0.0,7.3105,7.7949,8.1525,8.5343,8.839,8.9968,0.0,9.1363,9.151,9.1546,9.162,9.1767,9.1803,9.1473,9.0739,8.995,8.9143,8.8426,8.7619,8.7161,8.7161,8.6371,8.5984,8.5984,8.4389,8.4315,8.58,8.4242,8.3454,8.3344,8.184,8.1122,8.0975,8.0204,7.9412,7.8589,7.8589,7.8112,7.7365,7.8044,7.8628,7.914,7.9187,7.9175,7.914,0.0,0.0,0.0,0.0,0.0,0.0,0.0,0.0,0.0,0.0,0.0,0.0,0.0,0.0,0.0,0.0,0.0,0.0,0.0,4.915,5.0372,5.0372,5.1903,5.2747,5.2747,5.3445,5.4326,5.5453,5.6565,5.7666,5.8719,5.7728,5.6675,5.5622,5.6455,5.6345,5.5695,5.7005,5.7703,5.7997,5.7997,5.7997,0.0,0.0,0.0,0.0,0.0,0.0,0.0,0.0,5.4252,5.4363,5.4179,5.4436,5.4766,5.4252,5.4106,5.4252,5.484,5.7288,5.9636,5.9636,6.0958,6.3135,6.6489,6.7687,6.8701,7.0954,7.3046,0.0,0.0,0.0,8.184,8.4058,8.7399,9.0078,9.1179,9.162,9.1803,9.1803,9.1803,9.1803,9.1803,9.1363,9.0922,9.0629,8.9381,8.8316,8.7509,8.6701,8.6004,8.5527,8.5196,8.5049,8.5049,8.3471,8.2957,8.3544,8.2957,8.2406,8.1893,8.1269,8.0461,7.9507,7.9176,7.8589,7.7812,7.8234,7.8214,7.8007,7.9022,7.9806,8.039,8.039,8.0115,7.9775,0.0,0.0,0.0,0.0,0.0,0.0,0.0,0.0,0.0,0.0,0.0,0.0,0.0,0.0,0.0,0.0,0.0,0.0,4.7039,4.892,5.0251,5.0765,5.2333,5.3324,5.3581,5.517,5.6235,5.6811,5.785,5.8547,5.8792,5.7691,5.6748,5.6014,5.6822,5.6748,5.6062,5.7409,5.7997,5.7997,5.7997,5.7997,0.0,0.0,0.0,0.0,0.0,0.0,0.0,0.0,5.4106,5.4693,5.4142,5.4509,5.4987,5.4179,5.4132,5.4278,5.4032,5.615,5.8572,5.9086,6.1667,6.5131,6.9096,7.1064,7.2899,7.5799,7.7561,7.8809,7.958,0.0,0.0,0.0,8.872,9.1179,9.173,9.1803,9.1693,9.1436,9.1436,9.1326,9.1069,9.0555,8.9987,8.9491,8.8463,8.7362,8.628,8.571,8.5159,8.4609,8.4095,8.3838,8.3838,8.226,8.1415,8.1415,8.1415,8.1158,8.0608,8.0351,7.9653,7.8589,7.8295,7.7956,7.7636,7.809,7.8536,7.8963,7.9785,8.0499,8.1093,8.1093,8.0822,8.0436,0.0,0.0,0.0,0.0,0.0,0.0,0.0,0.0,0.0,0.0,0.0,0.0,0.0,0.0,0.0,0.0,0.0,0.0,4.7003,4.7856,4.903,5.0729,5.2333,5.3544,5.4363,5.5967,5.6811,5.6811,5.8389,5.8792,5.7997,5.7997,5.7556,5.6811,5.7629,5.7556,5.6847,5.7666,5.7997,5.7997,5.7997,5.7997,5.7997,0.0,0.0,0.0,0.0,0.0,0.0,0.0,5.4961,5.5622,5.5585,5.6161,5.6675,5.5842,5.6161,5.6627,5.5805,5.6198,5.7214,5.8829,6.1704,6.6035,7.3252,7.4294,7.5374,8.1048,8.0314,7.9396,8.1782,8.2223,0.0,8.5433,8.916,9.1767,9.1803,9.1767,9.1473,9.0702,9.0592,9.028,8.9473,8.94,8.8702,8.7124,8.6978,8.628,8.4646,8.4572,8.4572,8.4535,8.2994,8.2186,8.2186,8.0587,7.9779,7.9779,7.9779,7.9779,7.9779,7.8956,7.8589,7.8552,7.7671,7.768,7.8309,7.8322,7.9048,8.0125,8.0125,8.0508,8.1093,8.1093,8.1093,8.1093,0.0,0.0,0.0,0.0,0.0,0.0,0.0,0.0,0.0,0.0,0.0,0.0,0.0,0.0,0.0,0.0,0.0,0.0,4.7039,4.7856,4.8783,4.9894,5.1499,5.2454,5.2711,5.4851,5.6785,5.8499,5.7838,5.7985,5.8792,5.7116,5.6492,5.6811,5.7042,5.7042,5.6811,5.7042,5.7483,5.796,5.7373,5.7483,5.7997,0.0,0.0,0.0,0.0,0.0,0.0,0.0,0.0,0.0,5.5768,5.6932,5.7985,5.55,5.5721,5.637,5.4436,5.615,5.8756,5.9783,6.4237,6.9633,7.4625,7.6004,7.8023,8.4278,8.4095,8.3214,8.4499,0.0,0.0,8.6518,8.861,9.0317,9.0886,9.0464,9.0024,8.9767,8.9271,8.905,8.9363,8.8372,8.7491,8.7014,8.595,8.4609,8.2994,8.237,8.1819,8.1248,8.0771,8.0514,8.0514,7.9486,7.8956,7.8956,7.8332,7.8369,7.8956,7.8699,7.8259,7.7687,7.7922,7.8104,7.8389,7.921,8.0056,8.0783,8.0783,8.0904,8.1093,8.1093,8.1093,8.1093,0.0,0.0,0.0,0.0,0.0,0.0,0.0,0.0,0.0,0.0,4.3901,4.4635,0.0,0.0,0.0,0.0,0.0,0.0,0.0,4.7269,4.8012,4.9537,5.0849,5.1977,5.2931,5.4704,5.6308,5.7776,5.7104,5.7288,5.8205,5.7079,5.6969,5.7765,5.8437,5.818,5.7336,5.796,5.796,5.7556,5.7691,5.785,5.8033,0.0,0.0,0.0,0.0,0.0,0.0,0.0,0.0,0.0,5.5952,5.6822,5.7875,5.5941,5.5794,5.6235,5.571,5.7581,6.0187,6.2291,6.699,7.2275,7.6974,0.0,0.0,0.0,8.7142,8.582,8.6591,8.6885,0.0,8.6978,8.8629,8.9913,9.0097,8.9693,8.929,8.8959,8.8206,8.7802,8.7932,8.65,8.5436,8.5123,8.3911,8.2627,8.1321,8.0791,8.0277,7.9816,7.9486,7.9339,7.9339,7.8516,7.8075,7.8075,7.7546,7.7582,7.8075,7.8075,7.7803,7.735,7.8258,7.8804,7.9081,8.0086,8.0741,8.1093,8.1093,8.1093,8.1093,8.1093,8.1093,8.1093,0.0,0.0,0.0,0.0,0.0,0.0,0.0,0.0,0.0,0.0,4.3506,4.4093,0.0,0.0,0.0,0.0,0.0,0.0,0.0,4.6461,4.7067,4.95,5.0508,5.2123,5.4473,5.5144,5.5475,5.5475,5.6235,5.6664,5.6811,5.7556,5.8352,5.9269,6.075,6.0126,5.807,5.9391,5.8719,5.6921,5.8315,5.8499,5.807,5.8792,0.0,0.0,0.0,0.0,0.0,0.0,0.0,0.0,5.6282,5.6418,5.7068,5.6847,5.6381,5.6429,5.8609,5.982,6.1557,6.5852,7.0257,7.4882,8.0241,8.4939,8.8793,9.0922,0.0,8.7545,8.828,8.7766,8.7198,8.7198,8.9014,9.0115,8.929,8.9106,8.8776,8.7986,8.7178,8.6371,8.5637,8.4205,8.2957,8.215,8.1342,8.0534,7.9743,7.9633,7.9559,7.9559,7.8846,7.8479,7.8479,7.7693,7.7289,7.7289,7.7289,7.7289,7.7289,7.7289,7.732,7.745,7.8654,7.9535,8.0154,8.0838,8.1093,8.1093,8.1093,8.1093,8.1093,8.1093,8.1093,8.1093,0.0,0.0,0.0,0.0,0.0,0.0,0.0,0.0,0.0,0.0,0.0,0.0,0.0,0.0,0.0,0.0,0.0,0.0,0.0,4.7305,4.7682,4.9537,5.1573,5.3518,5.5291,5.4887,5.4656,5.4656,5.484,5.5563,5.6811,5.6957,5.7802,5.9221,5.9563,5.9098,5.7923,5.7017,5.6712,5.6774,5.6492,5.7042,5.8033,5.818,5.8143,0.0,0.0,0.0,0.0,0.0,0.0,0.0,5.7593,5.8474,5.9233,5.7361,5.7581,5.8535,5.9049,6.026,6.2768,6.8775,7.5711,8.1693,8.4205,8.6554,8.8169,8.8059,8.9014,8.9895,9.0041,8.9436,8.8886,8.8886,8.8793,8.8426,8.7638,8.6958,8.6261,8.5453,8.4665,8.4115,8.3931,8.303,8.2113,8.1342,8.0498,7.9706,7.8883,7.8222,7.7839,7.7839,7.7656,7.7582,7.7582,7.7399,7.7289,7.7289,7.7289,7.7289,7.7289,7.7289,7.7599,7.8118,7.8865,7.9535,8.0154,8.0838,8.1093,8.1093,8.1093,8.1093,8.1093,8.1093,8.1093,8.1016,0.0,0.0,0.0,0.0,0.0,0.0,0.0,0.0,0.0,0.0,0.0,0.0,0.0,0.0,0.0,0.0,0.0,0.0,0.0,0.0,4.8186,5.0629,5.3041,5.4546,5.5023,5.4987,5.4583,5.3838,5.3838,5.4656,5.6235,5.6638,5.7655,5.9233,6.0003,5.9281,5.7446,5.7776,5.7262,5.6271,5.7042,5.7593,5.7997,5.7997,5.7997,5.796,5.7556,0.0,0.0,0.0,0.0,0.0,0.0,0.0,5.8572,5.8095,5.7985,5.8572,6.0921,6.2732,6.5705,7.2973,7.9124,8.3711,8.4939,8.6775,8.8096,8.7655,8.8886,8.9913,8.9528,8.9124,8.8556,8.7802,8.6995,8.6187,8.5399,8.4572,8.4058,8.4022,8.2977,8.239,8.281,8.1415,8.0314,7.9874,7.9066,7.8442,7.7986,7.7546,7.7289,7.7289,7.7289,7.7289,7.7289,7.7289,7.7289,7.7289,7.7289,7.7289,7.7289,7.7289,7.7817,7.8754,7.9058,7.9733,8.0608,8.0959,8.1093,8.1093,8.1093,8.0823,8.0477,8.0477,8.0477,8.04,0.0,0.0,0.0,0.0,0.0,0.0,0.0,0.0,0.0,0.0,0.0,0.0,0.0,0.0,0.0,0.0,0.0,0.0,0.0,0.0,0.0,5.2087,5.4263,5.5207,5.484,5.5181,5.473,5.3398,5.3287,5.4106,5.5805,5.6492,5.7655,5.9269,6.0603,5.9538,5.6921,5.8767,5.796,5.5585,5.7581,5.8132,5.7776,5.7776,5.7776,5.7703,5.7189,5.7336,5.7813,5.796,0.0,0.0,0.0,0.0,5.7251,5.8609,5.8058,5.7997,6.245,6.5558,6.9302,7.6754,8.0938,8.3381,8.4205,8.604,8.7582,8.7582,8.8335,8.8776,8.8133,8.7766,8.7105,8.56,8.4829,8.4058,8.3124,8.2406,8.2186,8.2737,8.1599,8.1012,8.1525,7.9764,7.8552,7.8405,7.7693,7.7289,7.7289,7.7289,7.7289,7.7289,7.7289,7.7252,7.7105,7.7105,7.7032,7.6885,7.6885,7.6885,7.6885,7.6885,7.7677,7.9046,7.9001,7.9657,8.072,8.083,8.09,8.09,8.09,8.0439,7.9777,7.9631,7.9669,7.9738,0.0,0.0,0.0,0.0,0.0,0.0,0.0,0.0,0.0,0.0,4.47,0.0,0.0,0.0,0.0,0.0,0.0,0.0,4.6902,0.0,0.0,5.2957,5.4032,5.517,5.6444,5.5207,5.4436,5.4252,5.3544,5.4388,5.6638,5.6737,5.7655,5.9196,5.9416,5.8499,5.6774,5.6393,5.5585,5.4583,5.4913,5.5831,5.6957,5.6957,5.6957,5.7031,5.7629,5.7446,5.7068,5.7776,5.7997,0.0,0.0,0.0,5.7886,5.8107,5.7997,5.8437,6.1202,6.6696,7.2826,7.7451,8.0498,8.2553,8.3381,0.0,8.5086,0.0,8.6297,8.7271,8.7161,8.604,8.4792,8.3858,8.3638,8.3051,8.1509,8.1232,8.0938,8.0367,8.011,7.9743,7.914,7.8772,7.8295,7.7546,7.7362,7.7289,7.7289,7.7289,7.7289,7.7289,7.7289,7.6959,7.6276,7.6276,7.5909,7.5234,7.5234,7.5234,7.5234,7.5234,7.6394,7.8407,7.8186,7.8506,7.9227,7.975,7.9969,7.9969,7.9969,7.9892,7.97,7.8938,7.9131,7.9585,0.0,0.0,0.0,0.0,0.0,0.0,0.0,0.0,0.0,0.0,0.0,4.5369,0.0,0.0,0.0,4.4085,4.4745,4.5764,4.7003,4.9434,5.1316,5.2491,5.3739,5.473,5.5427,5.4766,5.4179,5.3728,5.3361,5.4682,5.7483,5.7912,5.8756,5.9857,5.9416,5.8572,5.7409,5.6602,5.5794,5.5071,5.5071,5.5757,5.6737,5.6308,5.6675,5.7409,5.687,0.0,5.7446,5.7373,5.7629,5.7997,5.7997,0.0,0.0,0.0,5.8327,5.9612,6.3882,6.8348,7.2812,7.6848,7.9727,8.1636,8.195,8.3014,8.3931,8.3931,8.3748,8.4042,8.5416,8.4352,8.3141,8.281,8.1599,8.0461,7.9764,7.9234,7.8993,7.9103,7.8699,7.8442,7.8589,7.8148,7.7693,7.7326,7.7289,7.7289,7.7289,7.7289,7.7105,7.6628,7.6628,7.6225,7.5432,7.5417,7.5234,7.4903,7.4903,7.4903,7.4903,7.4903,7.565,7.6983,7.7147,7.7602,7.8312,7.938,7.9815,7.9815,7.9815,7.9515,7.8977,7.8138,7.8061,7.8361,0.0,0.0,0.0,0.0,0.0,0.0,0.0,0.0,0.0,0.0,0.0,0.0,0.0,0.0,0.0,0.0,4.4158,4.5067,4.6682,4.9114,5.0949,5.195,5.3151,5.3995,5.4399,5.4216,5.3801,5.3214,5.3398,5.528,5.8621,5.9416,6.0664,6.2218,6.0994,5.9636,5.8253,5.7446,5.6638,5.5842,5.5244,5.5464,5.6161,5.5768,5.6209,5.7005,5.6429,0.0,0.0,0.0,0.0,0.0,5.7997,5.7997,0.0,0.0,0.0,5.9967,6.4837,6.7907,7.0793,7.5014,7.7913,7.991,8.0534,8.1636,8.248,0.0,8.1525,8.1232,8.303,8.2406,8.1525,8.1305,7.9764,7.8516,7.8295,7.7693,7.7546,7.8185,7.7693,7.7546,7.8222,7.7693,7.7289,7.7289,7.7105,7.7069,7.7289,7.6922,7.6518,7.613,7.5909,7.5432,7.461,7.439,7.4382,7.4534,7.4346,7.4447,7.4728,7.4582,7.4893,7.5521,7.6126,7.6852,7.7691,7.8737,7.9169,7.9169,7.9169,7.8784,7.8099,7.7292,7.7099,7.7369,0.0,0.0,0.0,0.0,0.0,0.0,0.0,0.0,0.0,0.0,0.0,0.0,4.6966,4.5654,4.4663,4.4626,4.3975,4.424,4.5847,4.8279,5.0372,5.1914,5.2097,0.0,5.4363,5.3654,5.3251,5.3214,5.3959,5.6381,6.0309,6.108,6.3589,6.7223,6.4874,6.2108,5.9086,5.829,5.7483,5.6554,5.4242,5.3812,5.4583,5.5328,0.0,0.0,0.0,0.0,0.0,0.0,0.0,0.0,0.0,0.0,5.7997,0.0,0.0,0.0,6.1239,6.3723,6.6756,7.1541,7.4588,7.6974,7.9339,7.9926,8.0,8.0,7.9926,7.989,8.0036,8.0,7.9669,7.8919,7.8662,7.8295,7.7472,7.7326,7.7326,7.7362,7.7326,7.7326,7.7362,7.7326,7.7289,7.7289,7.6592,7.6497,7.7252,7.5858,7.5344,7.6093,7.5359,7.4588,7.378,7.301,7.2899,7.3452,7.2909,7.3228,7.4296,7.3752,7.3824,7.4438,7.5214,7.6226,7.7339,7.7392,7.7445,7.7445,7.7445,7.7407,7.7253,7.6399,7.6592,7.7176,0.0,0.0,0.0,0.0,0.0,0.0,0.0,0.0,0.0,0.0,0.0,0.0,0.0,4.581,4.525,4.4737,4.536,4.6058,4.6645,4.8453,5.0041,5.1169,5.172,5.2491,5.3618,5.3361,5.3214,5.3214,5.3471,5.5159,5.8132,5.9453,6.1117,6.3025,6.3209,6.2609,6.1288,5.7886,5.6282,0.0,0.0,0.0,0.0,0.0,0.0,0.0,0.0,0.0,0.0,0.0,0.0,0.0,0.0,0.0,0.0,0.0,5.7997,5.851,6.0945,6.2254,6.398,6.8311,7.1615,7.4037,7.4918,7.7157,7.8883,7.8332,7.8206,7.8369,7.8919,7.9045,7.8919,7.8662,7.8148,7.7656,7.7362,7.7289,7.7289,7.7289,7.7289,7.7289,7.7289,7.7289,7.7105,7.6555,7.6276,7.6019,7.5784,7.5197,7.4793,7.4551,7.378,7.2716,7.1394,7.1101,7.1239,7.1802,7.1587,7.2174,7.3468,7.3222,7.3765,7.4828,7.5132,7.5493,7.5952,7.6917,7.7292,7.7292,7.7292,7.7292,7.7176,7.6322,7.6207,7.6515,0.0,0.0,0.0,0.0,0.0,0.0,0.0,0.0,0.0,4.625,0.0,0.0,0.0,0.0,4.5984,4.5177,4.6315,4.7113,4.7113,4.8333,4.9627,5.0765,5.1316,5.2087,5.3177,5.292,5.2821,5.2821,5.3067,5.4425,5.6847,5.8462,6.0077,6.163,6.1618,6.1875,6.2169,5.8694,0.0,5.6602,0.0,0.0,5.4876,0.0,0.0,0.0,0.0,0.0,0.0,0.0,0.0,0.0,0.0,0.0,0.0,0.0,0.0,5.8364,5.9942,6.0786,6.2181,6.6269,6.8715,7.0587,7.2459,7.4588,7.624,7.6445,7.6702,7.7069,7.7635,7.7745,7.7745,7.7745,7.7252,7.6812,7.6518,7.6481,7.6481,7.6481,7.6481,7.6481,7.6481,7.6481,7.6371,7.613,7.5616,0.0,7.5322,7.4536,7.3744,7.2936,7.2129,7.1174,7.011,7.011,7.0473,7.1193,7.1005,7.1711,7.3175,7.2962,7.3392,7.4279,7.4771,7.5136,7.5476,7.6448,7.6868,7.6868,7.6868,7.6868,7.6784,7.6207,7.6015,7.6092,0.0,0.0,0.0,0.0,0.0,0.0,0.0,0.0,4.7149,4.7149,0.0,0.0,0.0,0.0,0.0,4.603,4.6718,4.7186,4.7149,4.7893,4.9067,5.0729,5.0839,5.1563,5.3177,5.2417,5.2024,5.2024,5.2821,5.4388,5.6737,5.8315,6.0774,6.3699,6.0554,6.0003,6.141,0.0,5.982,5.8902,0.0,5.4913,5.5879,0.0,0.0,0.0,6.0382,6.0027,0.0,0.0,0.0,0.0,0.0,0.0,0.0,0.0,0.0,0.0,0.0,0.0,0.0,6.5264,6.5742,6.6659,7.2129,7.2239,7.1857,7.428,7.5395,7.5983,7.6056,7.6056,7.6056,7.6019,7.6056,7.5799,7.5014,7.4903,7.4903,7.4903,7.4903,7.4903,7.4903,7.4903,7.5197,7.5983,7.4588,7.4368,7.5909,7.3744,7.2078,7.127,7.0477,7.0036,7.0036,7.0036,7.0596,7.1706,7.1095,7.1738,7.3402,7.2838,7.2574,7.2711,7.4083,7.5168,7.5976,7.5976,7.6015,7.6015,7.6015,7.6015,7.6015,7.6015,7.6015,7.6015,0.0,0.0,0.0,0.0,0.0,0.0,4.815,4.7966,4.7966,0.0,0.0,0.0,4.8333,4.8636,4.8526,4.7709,4.8967,4.9251,4.8039,4.8783,4.9711,5.0765,5.1353,5.216,5.3177,5.2994,5.2847,5.2847,5.3104,5.3544,5.4205,5.5233,5.6528,5.7935,5.7629,5.7691,5.8033,5.6638,0.0,5.8107,5.5464,5.5244,0.0,0.0,0.0,0.0,0.0,5.9685,6.0419,0.0,5.9501,6.0126,0.0,0.0,0.0,0.0,0.0,0.0,5.6576,0.0,0.0,0.0,0.0,0.0,6.5472,6.732,6.9229,7.1064,7.2092,7.3142,7.4903,7.5234,7.5028,7.4441,7.4845,7.516,7.494,7.4903,7.4903,7.4903,7.4903,7.4903,7.4903,7.4903,7.4757,0.0,7.3942,7.3634,7.3487,7.2298,7.1013,6.9619,6.9339,6.8935,6.8361,6.8361,6.8736,6.9412,6.9227,7.0164,7.1997,7.1795,7.2294,7.3284,7.3656,7.4315,7.513,7.5745,7.6015,7.6015,7.6015,7.6015,7.6015,7.6015,7.6015,7.6015,0.0,0.0,0.0,0.0,0.0,5.0692,4.9507,4.9627,4.9738,0.0,0.0,0.0,4.9407,5.0068,5.0215,4.9397,4.9921,4.9884,4.8893,4.8976,4.9601,5.0765,5.1242,5.2013,5.3177,5.2847,5.2711,5.2711,5.2711,5.2711,5.2711,5.3518,5.4326,5.5108,5.5244,5.5673,5.6235,0.0,0.0,0.0,5.6345,0.0,0.0,5.8926,5.9942,0.0,0.0,0.0,6.3356,6.1361,6.0884,0.0,0.0,0.0,0.0,0.0,0.0,0.0,0.0,0.0,0.0,0.0,0.0,0.0,6.2879,6.4016,6.5411,0.0,6.9229,7.033,7.2078,7.2679,7.2753,7.2275,7.2606,7.3105,7.3802,7.3619,7.3509,7.3839,7.3582,7.3399,7.3399,7.3399,7.3325,7.3193,7.2765,7.2425,7.2182,7.1207,7.0212,6.9265,6.8693,6.8275,6.8058,6.8021,6.8135,6.8349,6.8527,6.9047,6.9845,7.0399,7.1015,7.159,7.252,7.3113,7.3438,7.4872,7.5668,7.6015,7.6015,7.6207,7.6553,7.6553,7.6746,7.6976,0.0,0.0,5.2994,5.238,5.2784,5.2737,5.1389,5.172,5.1903,0.0,5.1206,5.1242,5.1316,5.1877,5.194,5.1132,5.0408,4.9931,4.9747,4.9077,4.937,5.0875,5.1022,5.1746,5.3177,5.2491,5.2123,5.2123,5.2123,5.2123,5.2171,5.2847,5.3581,5.4252,5.3508,5.3995,5.5291,0.0,0.0,5.6748,5.774,5.9098,0.0,0.0,6.453,0.0,6.6219,6.6549,6.6256,6.3894,6.1875,0.0,0.0,0.0,0.0,0.0,5.7373,0.0,0.0,0.0,0.0,0.0,0.0,0.0,6.2365,6.1777,6.1447,0.0,6.6439,6.7333,6.8311,6.9082,6.9559,6.9559,6.9706,7.044,7.2129,7.1674,7.1417,7.2165,7.16,7.116,7.116,7.116,7.1454,7.2165,7.1407,7.1062,7.1471,7.0359,6.9654,6.9579,6.8364,6.788,6.8293,6.8327,6.8156,6.7776,6.827,6.8138,6.7537,6.8816,6.913,6.888,7.0911,7.1589,7.1502,7.3491,7.4899,7.5861,7.5976,7.6515,7.7292,7.7292,7.7792,7.8407,0.0,5.2637,5.3361,5.3849,5.3508,5.3324,5.3665,5.3287,5.3141,5.3628,5.3702,5.3922,5.4594,5.4226,5.3628,5.281,5.259,5.194,5.0655,5.1022,5.1426,5.1756,5.238,5.2884,5.3177,5.3067,5.2957,5.2957,5.2957,5.2957,5.2957,5.3141,5.3287,5.3434,5.3287,5.3361,5.3728,0.0,0.0,5.6025,5.8132,0.0,6.1484,6.2622,6.4004,6.5398,6.6219,6.6916,6.7187,0.0,6.2829,6.0309,0.0,0.0,0.0,0.0,0.0,0.0,0.0,0.0,0.0,0.0,0.0,0.0,5.8621,5.9343,6.0639,6.1447,6.2218,6.3429,6.5632,6.6132,6.6242,6.6242,6.732,6.8972,7.1233,7.0844,7.0403,7.055,7.044,7.033,7.033,7.033,7.0403,7.055,7.0791,7.0659,7.0119,6.9837,6.9405,6.8735,6.8068,6.7437,6.6905,6.7258,6.691,6.5854,6.6332,6.6702,6.6985,6.723,6.7787,6.852,6.8941,6.9857,7.1024,7.1448,7.2937,7.5007,7.5745,7.6515,7.7292,7.7292,7.7792,7.8484,5.2601,5.3261,5.3922,5.4326,5.4399,5.4509,5.495,5.4987,5.5012,5.4997,5.5354,5.5611,5.5585,5.5254,5.4656,5.3885,5.3434,5.27,5.1463,5.1767,5.1987,5.1987,5.238,5.2968,5.3775,5.3398,5.3398,5.3801,5.3398,5.3214,5.3214,5.3214,5.2994,5.2637,5.3031,5.2994,5.2747,0.0,5.5585,5.5842,5.8657,0.0,6.2328,6.3563,6.5545,6.765,6.7247,6.737,6.7407,6.5375,6.3613,0.0,0.0,6.0126,5.9575,0.0,5.8572,5.8767,0.0,0.0,0.0,5.8095,0.0,0.0,0.0,5.7997,5.8364,5.9563,5.949,5.9832,6.1875,6.2572,6.3123,6.393,6.5081,6.6489,6.8077,6.9009,6.9917,7.0954,7.0146,6.9623,6.9871,6.9653,6.9452,6.9316,6.9905,7.0175,6.9913,6.9644,6.9153,6.8339,6.8182,6.7518,6.6297,6.7146,6.688,6.5456,6.6219,6.6353,6.5992,6.6641,6.7232,6.7782,6.8199,6.9122,7.0321,7.0744,7.1898,7.3591,7.4861,7.5861,7.6707,7.7138,7.7792,7.8446,5.3214,5.3838,5.4436,5.4583,5.5291,5.5879,5.6025,5.6492,5.6565,5.5915,5.6675,5.6994,5.6345,5.6136,5.5989,5.5794,5.4352,5.3398,0.0,0.0,5.2234,5.2234,5.2234,5.2758,5.3922,5.3434,5.3508,5.4179,5.3508,5.3214,5.3214,5.3214,5.2847,5.227,5.292,5.2931,5.2611,0.0,0.0,5.6319,0.0,6.1178,6.2536,6.4554,6.7026,6.9265,6.8288,6.7921,6.7554,6.5118,0.0,6.3699,6.1374,6.108,0.0,0.0,0.0,0.0,0.0,0.0,0.0,0.0,0.0,5.8095,0.0,0.0,0.0,5.8425,5.7691,5.7214,0.0,0.0,0.0,6.1178,0.0,0.0,0.0,6.6279,0.0,7.0438,6.917,6.8367,6.9052,6.8593,6.8332,6.8476,6.8903,6.9402,7.0061,6.9598,6.9061,6.8508,6.8447,6.7726,6.6253,6.7092,6.6813,6.5379,6.6208,6.6,6.4995,6.6099,6.6622,6.6767,6.7452,6.8408,6.9513,7.0167,7.1129,7.2367,7.4053,7.5245,7.6092,7.6984,7.7792,7.8407,5.3324,5.3838,5.462,5.5328,5.6124,5.6895,5.7629,5.7189,5.6774,5.6664,5.7985,5.8902,5.8792,0.0,0.0,0.0,0.0,0.0,5.8205,0.0,5.3067,5.3067,5.3067,5.2821,5.2281,5.2894,5.3251,5.3324,5.3251,5.3214,5.3214,5.3214,5.3141,5.3067,5.3177,5.3544,5.4179,0.0,5.6429,0.0,5.9685,6.0529,0.0,6.4114,6.5962,6.7063,6.8311,6.8752,6.8385,0.0,6.4677,6.3809,0.0,6.152,0.0,0.0,0.0,0.0,0.0,0.0,0.0,0.0,6.0664,0.0,0.0,0.0,5.9318,5.7471,0.0,0.0,0.0,0.0,0.0,0.0,0.0,0.0,6.0848,6.2426,6.4033,6.5477,6.5403,6.5743,6.7009,6.6377,6.6609,6.836,6.7653,6.7978,7.0002,6.9598,6.9493,6.9865,6.8697,6.7628,6.6734,6.617,6.5407,6.4539,6.4651,6.464,6.4472,6.464,6.4934,6.5329,6.5444,6.6641,6.8545,6.866,7.0052,7.2367,7.4053,7.5245,7.6092,7.6984,7.7792,7.8484,5.3287,5.4216,5.5071,5.4913,5.5978,5.6921,5.7262,5.8217,5.8719,5.8242,5.9196,6.026,0.0,0.0,0.0,0.0,0.0,5.8547,0.0,0.0,0.0,5.462,0.0,0.0,5.408,5.3508,5.3434,5.3922,5.3434,5.3214,5.3214,5.3214,5.3214,5.3214,5.3214,0.0,5.4436,0.0,5.6271,0.0,0.0,0.0,0.0,6.3857,6.6109,6.737,6.8495,6.8605,6.7907,0.0,6.5068,0.0,0.0,0.0,0.0,0.0,0.0,0.0,0.0,0.0,0.0,0.0,0.0,0.0,0.0,0.0,5.8168,0.0,0.0,0.0,0.0,0.0,0.0,0.0,5.6859,0.0,0.0,0.0,6.1556,0.0,0.0,0.0,6.5205,6.4943,6.5118,6.5955,6.6011,6.6672,6.8101,6.8715,6.9008,6.8953,6.9122,6.8224,6.6115,6.6529,6.6103,6.4799,6.5129,6.5284,6.5284,6.5284,6.5374,6.5563,6.5563,6.665,6.8391,6.8391,6.9898,7.2329,7.3514,7.4507,7.5361,7.6207,7.6746,7.7053,5.3214,0.0,0.0,5.4803,5.5868,5.6847,5.7116,5.8621,5.96,0.0,0.0,0.0,6.2939,6.2316,0.0,0.0,0.0,6.1961,0.0,0.0,5.7519,0.0,0.0,0.0,0.0,0.0,5.3691,5.4069,5.3471,5.3324,5.3544,5.3544,5.3654,5.3885,5.4095,5.4499,5.5133,0.0,5.7042,5.7912,5.9306,6.026,6.1178,6.393,6.5962,6.748,6.8274,6.8201,6.748,6.6109,6.5618,0.0,6.5362,0.0,0.0,0.0,0.0,0.0,6.1508,0.0,0.0,0.0,0.0,0.0,0.0,0.0,0.0,0.0,0.0,0.0,0.0,0.0,0.0,0.0,0.0,5.6455,0.0,5.7302,0.0,0.0,0.0,0.0,0.0,6.3332,6.3671,6.4219,6.452,6.536,6.6948,6.7946,6.8531,6.8622,6.9527,6.884,6.6377,6.6975,6.6596,6.5313,6.5563,6.5683,6.5683,6.5683,6.5683,6.5683,6.5945,6.6921,6.843,6.866,7.0129,7.229,7.3168,7.4007,7.4815,7.5668,7.6015,7.6015,5.3214,5.3885,0.0,0.0,5.6235,5.7068,5.785,0.0,0.0,0.0,0.0,0.0,0.0,0.0,0.0,0.0,0.0,6.5485,6.6182,0.0,5.8095,0.0,0.0,5.484,0.0,0.0,5.3995,5.3251,5.3214,5.3581,5.4363,5.4363,5.4766,5.5548,5.6345,5.6701,5.6811,5.8425,5.9563,6.0346,6.119,6.2952,6.5031,0.0,6.5118,6.6623,6.7444,0.0,0.0,6.6733,6.6476,0.0,0.0,0.0,0.0,0.0,0.0,0.0,0.0,0.0,0.0,6.1006,0.0,0.0,0.0,0.0,5.8902,0.0,0.0,0.0,0.0,0.0,0.0,0.0,0.0,0.0,0.0,0.0,0.0,0.0,0.0,0.0,0.0,6.1111,6.2289,6.4266,6.3268,6.4067,6.7414,6.7621,6.84,7.001,6.9841,6.9256,6.832,6.7049,6.6253,6.5878,6.5381,6.5122,6.5122,6.5122,6.5122,6.5161,6.6038,6.714,6.8468,6.9321,7.0667,7.229,7.3168,7.4007,7.4815,7.5668,7.6015,7.6015,0.0,0.0,0.0,0.0,0.0,0.0,0.0,5.8914,0.0,0.0,0.0,0.0,0.0,0.0,7.0844,0.0,0.0,6.9522,6.8201,6.5031,0.0,0.0,0.0,5.7728,0.0,0.0,0.0,0.0,5.4803,5.4913,5.5181,5.4656,5.5097,5.6345,5.5574,5.6088,0.0,0.0,0.0,0.0,0.0,6.3099,6.5325,0.0,0.0,6.7333,6.759,6.77,0.0,6.7407,6.6953,6.6549,6.6806,6.6145,6.5362,6.5595,6.5521,0.0,0.0,0.0,6.5081,6.2609,0.0,0.0,0.0,0.0,0.0,0.0,0.0,0.0,0.0,0.0,0.0,0.0,0.0,0.0,0.0,0.0,0.0,0.0,0.0,0.0,0.0,0.0,5.9926,6.1443,6.121,6.1926,6.4129,6.6176,6.7622,6.8409,6.9778,6.9821,6.8391,6.7969,6.7124,6.5897,6.5703,6.5649,6.5649,6.5649,6.5649,6.5688,6.6493,6.7445,6.8468,6.936,7.0706,7.2213,7.2514,7.3476,7.4815,7.5668,7.6015,7.6015,5.4876,0.0,0.0,0.0,0.0,0.0,0.0,0.0,0.0,0.0,6.7504,0.0,7.3707,0.0,7.378,0.0,7.4258,7.2386,6.9105,6.7967,0.0,6.3759,6.2169,0.0,0.0,0.0,0.0,0.0,0.0,5.6014,5.6025,5.55,5.5978,5.7189,5.6444,5.6822,5.807,5.8914,5.9428,0.0,0.0,6.3172,0.0,0.0,6.6329,6.726,0.0,6.6843,6.688,6.7187,6.6916,6.6623,6.7444,6.6769,6.5852,6.6366,6.6145,6.5655,6.5362,6.5888,0.0,6.3796,6.2658,0.0,6.0003,0.0,0.0,0.0,0.0,0.0,0.0,0.0,0.0,0.0,0.0,0.0,0.0,5.3434,0.0,0.0,0.0,0.0,0.0,0.0,5.8154,5.8722,5.9376,6.0364,6.1744,6.49,6.6961,6.757,6.974,7.009,6.843,6.8391,6.7552,6.5904,6.5904,6.5904,6.5904,6.5904,6.5904,6.5936,6.675,6.759,6.8468,6.936,7.0514,7.179,7.2437,7.3322,7.4392,7.5245,7.5745,7.6015,0.0,0.0,0.0,0.0,5.8132,0.0,0.0,0.0,6.5618,0.0,6.9596,7.2481,7.494,7.516,7.5711,7.7179,7.6592,0.0,6.9545,7.061,0.0,0.0,6.4701,6.4004,6.0896,0.0,0.0,0.0,0.0,5.6884,5.6921,5.6811,5.7189,5.8033,5.8756,5.8682,5.8143,6.0529,6.1117,6.0603,6.2169,6.3356,6.4139,6.4066,6.5057,6.6329,6.5582,6.5288,6.5398,6.6182,6.6476,6.6623,6.7407,6.715,6.6549,6.6549,6.6549,6.6402,6.5618,6.5962,6.6109,6.4543,0.0,0.0,0.0,0.0,6.0187,0.0,0.0,0.0,0.0,0.0,0.0,0.0,0.0,0.0,0.0,0.0,0.0,0.0,0.0,0.0,0.0,5.7111,5.7064,5.6367,5.7856,5.93,0.0,6.3891,6.6333,6.7488,6.9671,7.0052,6.843,6.8391,6.7552,6.5904,6.5904,6.5904,6.5904,6.5904,6.5904,6.5936,6.675,6.759,6.8468,6.936,7.0167,7.1052,7.2699,7.343,7.3584,7.443,7.5284,7.6015,5.6638,5.7483,5.8352,0.0,5.7948,5.8022,0.0,0.0,0.0,0.0,7.3597,7.6019,7.9103,7.8883,7.8222,7.7362,7.7105,0.0,0.0,0.0,0.0,7.0954,6.9009,6.7564,6.6733,6.3747,0.0,6.0958,0.0,5.7997,5.8535,5.6748,5.665,5.7997,5.7581,5.7629,5.8107,5.9942,6.0933,6.1374,6.2389,6.3673,0.0,0.0,6.415,6.5582,6.5362,6.5288,6.5325,6.5545,6.5999,6.6549,6.6733,6.7076,6.7407,6.7407,6.7407,6.737,6.715,6.6806,6.6256,6.5228,6.3429,6.1814,0.0,0.0,0.0,0.0,0.0,0.0,0.0,0.0,0.0,0.0,0.0,0.0,0.0,0.0,0.0,5.5144,0.0,0.0,0.0,5.5495,5.5511,5.6227,5.6724,5.7649,5.9254,0.0,6.5018,6.6291,6.8736,6.9475,6.8391,6.8391,6.7552,6.5904,6.5904,6.5904,6.5904,6.5904,6.5904,6.5936,6.675,6.759,6.8468,6.936,7.0167,7.0937,7.1398,7.2353,7.3661,7.513,7.5822,7.6015,5.7948,0.0,0.0,6.0774,0.0,0.0,6.3429,0.0,0.0,7.2987,7.5395,0.0,7.9161,7.9947,7.98,7.8516,7.806,0.0,7.5175,0.0,0.0,7.323,7.1762,7.033,6.8921,6.5618,0.0,6.1765,0.0,5.8572,5.8646,5.7299,5.7127,5.796,5.7519,5.7593,5.807,5.9343,6.0737,6.2144,6.2218,6.305,0.0,6.316,6.338,6.4224,6.4224,6.4224,6.4261,6.464,6.5081,6.5558,6.6292,6.6806,6.726,6.759,6.7444,6.7187,6.7187,6.6586,6.5888,6.5398,6.398,6.2597,6.2218,6.1484,6.0823,0.0,0.0,0.0,0.0,0.0,0.0,0.0,0.0,0.0,0.0,0.0,0.0,0.0,5.4473,0.0,5.5034,5.4656,5.4685,5.5434,5.6305,5.734,0.0,0.0,6.4692,6.5314,6.8513,6.9629,6.8391,6.8776,6.8321,6.6974,6.6244,6.6096,6.6404,6.6051,6.5904,6.5942,6.6365,6.7282,6.843,6.893,6.9821,7.0975,7.1745,7.2853,7.4199,7.5515,7.6015,7.6015,0.0,0.0,0.0,0.0,0.0,0.0,0.0,6.8985,0.0,7.4147,0.0,7.8206,7.8096,7.9931,8.0755,7.9743,0.0,7.7341,7.4368,7.6151,7.6041,7.3266,7.3597,7.2532,6.9729,6.6793,0.0,0.0,0.0,5.8756,5.8143,5.7923,5.7886,5.7997,5.7997,5.7997,0.0,5.8866,6.0407,6.2279,6.1667,6.1924,6.2646,6.2536,6.2499,6.2499,6.2609,6.2719,6.2903,6.3686,6.4029,6.436,6.5742,6.6256,6.6476,6.7187,6.6946,6.6423,6.6423,6.5834,6.5233,6.5233,6.4594,6.3723,6.2976,6.2181,6.141,6.0713,5.982,5.9159,0.0,0.0,0.0,0.0,0.0,0.0,0.0,0.0,0.0,0.0,0.0,0.0,0.0,5.4621,5.4664,5.4664,5.6486,0.0,0.0,0.0,6.4557,6.441,6.8313,6.9801,6.8478,6.9294,6.9321,6.8545,6.6974,6.6519,6.7096,6.6365,6.6013,6.5904,6.6019,6.6936,6.8391,6.8507,6.9552,7.1245,7.2853,7.4007,7.4815,7.5668,7.6015,7.6015,0.0,0.0,0.0,0.0,0.0,7.0954,7.4147,7.5799,7.7414,7.947,8.1819,8.3067,8.239,8.215,8.1122,7.8993,7.8662,0.0,0.0,0.0,0.0,7.6481,7.5307,7.4426,7.3839,6.8224,6.5338,0.0,0.0,0.0,5.8976,5.7618,5.7373,5.7997,5.7997,5.7997,5.8033,5.8866,0.0,5.9893,6.0419,6.108,6.1741,6.108,6.0811,6.0921,6.1557,6.2254,6.2829,6.2976,6.3503,6.4139,6.4433,6.4971,6.5545,6.5692,6.5903,6.6091,6.6091,6.5496,6.4902,6.4902,6.397,6.2976,6.2829,6.2181,6.1557,6.141,6.0224,5.9013,5.8327,0.0,0.0,0.0,0.0,0.0,0.0,0.0,0.0,0.0,0.0,5.5401,0.0,0.0,0.0,0.0,0.0,0.0,0.0,0.0,6.2436,0.0,6.622,0.0,0.0,0.0,6.9629,6.9475,6.843,6.7667,6.7096,6.6942,6.6519,6.5936,6.6596,6.7475,6.8468,6.9161,7.0475,7.2052,7.3091,7.4007,7.4815,7.5668,7.6015,7.6015,0.0,0.0,0.0,0.0,0.0,0.0,0.0,8.1122,0.0,8.1746,8.1893,8.1782,8.1012,8.2039,8.1856,7.9433,7.9213,7.8662,7.7399,7.7289,7.7289,7.7289,7.6151,0.0,7.4294,6.9192,6.6109,6.5277,0.0,0.0,5.8547,5.7776,5.7629,5.796,5.7556,5.7838,0.0,0.0,0.0,5.982,5.9783,6.0272,6.0933,6.0566,6.0419,6.0456,6.086,6.1227,6.1692,6.2536,6.2805,6.2964,6.3846,6.4347,6.4751,6.5178,6.5349,6.5328,6.5087,6.461,6.4101,6.3817,6.3284,6.2793,6.2793,6.2499,6.1998,6.1153,6.037,5.9306,5.7703,5.6748,0.0,0.0,0.0,0.0,0.0,0.0,0.0,0.0,0.0,0.0,0.0,0.0,0.0,0.0,0.0,0.0,0.0,0.0,6.189,0.0,0.0,0.0,6.8213,0.0,7.0047,7.0321,6.9007,6.816,6.7744,6.7321,6.6904,6.6558,6.6942,6.7859,6.9161,7.0475,7.1206,7.1706,7.3437,7.4084,7.4238,7.5515,7.6015,7.6015,0.0,6.9022,0.0,0.0,7.5968,0.0,8.1179,8.4629,8.6114,8.3544,8.2113,8.0954,7.9984,8.2003,8.2443,8.0,7.9633,7.8919,7.7399,7.7289,7.7289,7.7289,7.6387,7.5249,7.3964,6.9867,6.6526,0.0,0.0,0.0,0.0,5.7923,5.7923,5.7703,0.0,0.0,0.0,0.0,5.7985,5.9832,5.9196,5.9416,6.0114,5.9979,5.9905,5.9942,6.0272,6.0309,6.037,6.1985,6.1998,6.1594,6.3111,6.3589,6.3735,6.4517,6.4547,6.4227,6.386,6.3567,6.3245,6.2734,6.2804,6.2965,6.2863,6.2804,6.2303,6.0878,6.022,5.9281,5.7178,5.6921,0.0,0.0,0.0,0.0,0.0,0.0,0.0,0.0,0.0,0.0,0.0,0.0,0.0,0.0,0.0,0.0,5.8825,0.0,0.0,0.0,0.0,6.7532,6.7869,0.0,7.0563,7.1168,6.9667,6.8853,6.866,6.7975,6.7558,6.7398,6.7558,6.8513,7.0052,7.1598,7.179,7.1398,7.3783,7.4315,7.393,7.5438,7.6015,7.6015,0.0,0.0,0.0,0.0,0.0,0.0,8.3014,8.5326,8.6867,8.6574,8.6444,8.5747,8.4205,8.3638,8.2443,8.0,7.914,7.8295,7.7362,7.7289,7.7289,7.7289,7.5821,7.494,7.4793,7.011,6.6526,0.0,0.0,0.0,0.0,0.0,0.0,0.0,0.0,0.0,0.0,5.6554,5.7373,5.8217,5.8143,5.8584,5.9233,5.851,5.8217,5.8437,5.9869,5.993,5.9563,6.1153,6.119,6.0676,6.1557,6.1826,6.1998,6.2793,6.2859,6.2636,6.2571,6.2529,6.2417,6.208,6.2759,6.3451,6.315,6.2722,6.2188,6.1305,5.9583,5.7923,5.6957,5.7409,5.7629,0.0,0.0,0.0,0.0,0.0,0.0,0.0,0.0,0.0,0.0,5.575,0.0,0.0,5.8338,0.0,0.0,0.0,0.0,6.1249,6.4681,6.7243,6.8755,7.0147,7.1248,7.2059,7.1129,7.0283,6.959,6.9475,6.9052,6.8314,6.9129,6.9975,7.086,7.1828,7.2136,7.2245,7.4014,7.4661,7.47,7.5668,7.6015,7.6015,0.0,0.0,0.0,0.0,0.0,0.0,0.0,8.6811,8.7545,8.7051,8.6591,8.5673,8.4058,8.3177,8.1893,7.9963,7.9082,7.8222,7.7362,7.7289,7.7289,7.7289,7.6225,7.5395,7.4903,7.1101,6.7724,0.0,0.0,0.0,0.0,0.0,0.0,0.0,0.0,5.6895,5.7042,5.6859,5.7262,5.8033,5.8547,5.8609,5.851,5.8646,5.8437,5.8143,5.9269,5.949,5.938,6.0493,6.1006,6.108,6.0933,6.1557,6.2291,6.2144,6.2563,6.307,6.2746,6.2869,6.3089,6.2963,6.3037,6.3162,6.3376,6.2989,6.2419,6.1618,6.0376,5.9276,5.875,5.8915,5.8889,0.0,0.0,0.0,0.0,0.0,0.0,0.0,0.0,0.0,0.0,0.0,0.0,0.0,0.0,0.0,0.0,0.0,0.0,6.1187,0.0,6.6388,6.8098,6.9634,7.0754,7.1398,7.1052,7.0475,6.9706,6.9706,6.9513,6.9237,7.0052,7.0898,7.1752,7.2629,7.2976,7.3168,7.4822,7.5168,7.4815,7.5668,7.6015,7.6015,8.0571,0.0,8.1232,0.0,8.4629,8.5399,8.7105,8.7619,8.7545,8.6738,8.5747,8.4646,8.3528,8.248,8.1195,7.9596,7.8699,7.7949,7.7362,7.7289,7.7289,7.7289,7.6298,0.0,7.4903,7.1762,6.8641,6.5655,6.3429,0.0,0.0,0.0,0.0,0.0,5.7251,5.7483,5.796,5.7152,5.7398,5.84,5.8719,5.8646,5.84,5.8719,5.8499,5.8143,5.9196,5.9563,5.9673,6.0493,6.13,6.1814,6.1006,6.152,6.2389,6.2034,6.2471,6.2937,6.2561,6.2729,6.3,6.2895,6.3146,6.339,6.343,6.3408,6.3039,6.1863,6.097,6.0388,6.0311,6.0157,5.9972,5.9696,0.0,0.0,0.0,0.0,0.0,0.0,5.6413,5.586,5.614,5.5248,0.0,0.0,0.0,0.0,0.0,0.0,0.0,0.0,0.0,0.0,6.8319,6.9663,7.0632,7.1283,7.1014,7.0591,7.0052,7.0052,7.0052,7.009,7.0667,7.1398,7.229,7.3122,7.3507,7.3661,7.5361,7.5476,7.4815,7.5668,7.6015,7.6015,8.272,8.3985,8.5049,8.6647,8.7619,8.8133,8.8169,8.7509,8.6738,8.593,8.4425,8.3418,8.3381,8.195,8.0388,7.8736,7.7803,7.7326,7.7289,7.7289,7.7289,0.0,0.0,7.4903,7.4903,7.1762,6.8898,6.6476,0.0,0.0,5.9196,0.0,5.9159,5.9159,5.8327,5.7997,5.796,5.7152,5.7728,5.9123,5.8327,5.8474,5.9086,5.8327,5.7997,5.8217,5.9795,6.037,6.0529,6.13,6.2108,6.2646,6.1851,6.1606,6.1777,6.2572,6.2218,6.1606,6.1606,6.1606,6.153,6.1224,6.2965,6.4496,6.3351,6.3965,6.4185,6.2034,6.097,6.0572,6.1087,6.0751,6.0728,6.1713,0.0,0.0,0.0,0.0,0.0,0.0,5.7221,5.6541,5.7409,5.5276,0.0,0.0,0.0,0.0,0.0,0.0,0.0,6.3003,6.4766,0.0,7.0027,7.063,7.1321,7.2175,7.1321,7.0898,7.0898,7.0898,7.0898,7.0898,7.0898,7.1398,7.229,7.3122,7.3507,7.3661,7.5361,7.5476,7.4815,7.5668,7.6015,7.6015,8.5436,8.6518,8.7031,8.7014,8.8115,8.8629,8.7545,8.7178,8.6701,8.5911,8.3911,8.237,8.1803,8.0351,7.9176,0.0,7.7803,7.7289,0.0,7.7289,7.7289,7.7289,7.5747,7.4903,7.4903,7.2261,6.9743,6.7333,0.0,0.0,0.0,6.1398,6.1068,6.004,6.0309,5.9832,5.8792,5.8535,5.8425,5.84,5.8682,5.8646,5.84,5.8719,5.8474,5.8143,5.9196,5.96,5.971,6.0529,6.1337,6.1924,6.1679,6.1998,6.2352,6.2071,6.2181,6.2426,6.2426,6.2426,6.2622,6.3427,6.3973,6.4313,6.4272,6.4112,6.3909,6.3572,6.3324,6.311,6.3003,6.2845,6.2467,6.1679,6.0928,0.0,0.0,0.0,0.0,0.0,5.7148,5.6498,0.0,5.6024,0.0,0.0,0.0,0.0,0.0,0.0,0.0,0.0,6.5992,0.0,7.0103,7.1213,7.2206,7.3091,7.2206,7.1783,7.179,7.1168,7.0898,7.0898,7.0898,7.1398,7.229,7.3122,7.3815,7.443,7.5553,7.5822,7.563,7.5899,7.6015,7.6015,8.6684,8.7655,8.7949,8.7124,8.8078,8.8409,8.6811,8.6554,8.6151,8.5049,8.3324,8.1782,8.0681,7.9396,0.0,7.8148,7.7619,7.7289,7.7289,7.7289,7.7289,7.7289,7.5747,7.4903,7.4903,7.2555,0.0,6.9045,6.732,6.5301,6.2989,6.3209,6.2768,6.1814,6.1961,6.1141,5.9636,5.9343,5.8902,5.8462,5.8682,5.8609,5.8462,5.8682,5.8437,5.8107,5.8902,5.9196,5.9306,6.0114,6.0933,6.1606,6.1606,6.2365,6.3135,6.2291,6.2389,6.2866,6.3209,6.3282,6.3628,6.4936,6.5292,6.542,6.5928,6.5432,6.4861,6.485,6.4841,6.4754,6.4372,6.4125,6.3821,6.3193,6.2147,6.1212,6.0681,0.0,0.0,0.0,0.0,0.0,0.0,5.7519,5.7919,0.0,0.0,0.0,0.0,0.0,0.0,6.3258,6.7013,0.0,7.1161,7.2479,7.3399,7.393,7.3091,7.2706,7.2668,7.1783,7.1398,7.1398,7.1398,7.186,7.2745,7.3584,7.443,7.5245,7.5784,7.6015,7.5976,7.563,7.5707,7.5938,8.6684,8.7619,8.7876,0.0,8.7619,0.0,8.604,8.5764,8.5159,8.3601,8.259,8.1505,8.0036,7.9066,7.8222,7.7472,0.0,0.0,0.0,7.7289,7.7289,7.7289,7.5747,7.4903,7.4903,7.2591,7.1344,7.1307,6.8201,6.6292,6.5508,6.4714,6.4286,6.4139,6.3356,6.2059,6.0419,5.9673,5.9306,5.9159,5.8437,5.8572,5.9123,5.8437,5.818,5.8253,5.9013,5.9269,5.9416,6.015,6.0933,6.1606,6.1667,6.2818,6.3956,6.3123,6.2977,6.3198,6.4019,6.4277,6.4623,6.5981,6.6889,6.7595,6.8113,6.7561,6.6749,6.5965,6.5776,6.5686,6.5304,6.4896,6.485,6.5601,6.3939,6.2574,6.2482,0.0,0.0,0.0,0.0,0.0,0.0,5.95,5.9239,0.0,0.0,0.0,0.0,0.0,6.247,6.4718,6.7998,7.0776,7.3047,7.4158,7.47,7.47,7.393,7.3584,7.3546,7.2706,7.229,7.229,7.229,7.2745,7.3546,7.4353,7.5168,7.5938,7.5976,7.6015,7.5899,7.5007,7.5245,7.5861,0.0,0.0,8.7215,8.7014,8.7178,8.6958,8.593,8.527,8.4535,8.3528,8.1636,8.0477,8.0681,7.8867,7.7803,7.8259,7.7693,7.7289,7.7289,7.7289,7.7289,7.7289,7.5747,7.4903,7.4903,7.3142,7.1931,7.1307,6.9288,6.8238,6.8054,6.721,6.6195,6.5007,6.4811,6.3417,6.13,6.1117,6.0309,5.9233,5.9673,5.9563,5.9269,5.9673,5.9832,5.9869,6.004,6.0114,6.015,6.0346,6.0933,6.1716,6.2328,6.3246,6.4066,6.3833,6.4512,6.5348,6.5571,6.5922,6.6633,6.8234,6.8755,6.9038,6.9536,6.851,6.7499,6.7691,6.775,6.7511,6.6765,6.6556,6.5897,6.4174,6.318,6.2273,6.1365,6.0266,0.0,0.0,6.0179,6.0333,6.0522,6.0707,6.1202,0.0,0.0,0.0,6.3266,6.4358,6.5188,6.5736,7.0353,7.3105,7.3696,7.435,7.47,7.47,7.4507,7.443,7.4392,7.3584,7.3199,7.3199,7.3199,7.3315,7.3546,7.4353,7.4815,7.5084,7.5745,7.6015,7.5899,7.5007,7.5245,7.5861,8.6848,8.6978,8.6978,8.6978,8.6701,8.6187,8.538,8.4572,8.3765,8.2957,8.1379,8.0351,8.0424,7.8919,7.7913,7.7986,7.7582,7.7289,7.7289,7.7289,7.7289,7.7289,7.6114,7.527,7.4903,7.367,7.2459,7.1307,6.9692,6.8885,6.8898,6.8091,6.6843,6.5288,6.5288,6.3943,6.1606,6.1606,6.0896,5.9783,6.0224,6.015,5.9783,6.0236,6.0419,6.0419,6.0419,6.0419,6.0419,6.0419,6.119,6.2291,6.3135,6.4494,6.5828,6.6182,6.6269,6.6346,6.6716,6.7303,6.8144,6.9539,7.0079,7.0296,7.0453,6.9751,6.9082,6.9012,6.9007,6.8737,6.7859,6.7366,6.6519,6.4782,6.359,6.2572,6.1533,6.0626,0.0,6.145,6.1762,6.2216,6.2986,6.3638,6.3927,6.3794,6.4124,0.0,6.4713,6.7486,6.8806,6.8179,7.2633,7.5051,7.5042,7.5625,7.5899,7.5899,7.5899,7.5668,7.5284,7.443,7.4046,7.4046,7.4046,7.4046,7.4123,7.493,7.5284,7.5361,7.5822,7.5745,7.5284,7.4469,7.443,7.4745,8.6848,8.6978,8.6978,8.6978,8.6444,8.5673,8.4756,8.4005,8.3234,8.2333,8.1379,8.0608,8.0036,7.9029,7.8148,7.7546,7.7399,7.7289,7.7289,7.7289,7.7252,7.7142,7.635,7.5542,7.472,7.3927,7.2789,7.1307,6.9802,6.9009,6.8898,6.8091,6.6916,6.5472,6.5362,6.4053,6.1973,6.1851,6.13,6.0603,6.0701,6.0701,6.0603,6.0701,6.0774,6.0786,6.0896,6.097,6.097,6.1117,6.2132,6.349,6.4347,6.6122,6.8031,6.8862,6.8201,6.7347,6.8004,6.8847,6.9752,7.0669,7.119,7.146,7.1381,7.1203,7.0937,7.0398,7.0167,6.9821,6.893,6.7975,6.6942,6.5859,6.4359,6.2974,6.2056,0.0,6.155,6.3121,6.3622,6.4512,6.6128,6.7013,6.6955,6.5705,6.7615,6.8074,6.6327,7.0302,7.2229,7.1455,7.474,7.6609,7.6735,7.723,7.7484,7.7484,7.7484,7.7099,7.6361,7.563,7.5284,7.5284,7.5168,7.5091,7.513,7.5745,7.6015,7.6015,7.6015,7.5553,7.4776,7.3853,7.3584,7.3546,8.6848,8.6978,8.6978,8.6978,8.6904,8.6334,8.4829,8.4499,8.3875,8.237,8.0918,8.0204,8.0755,7.883,7.7729,7.8369,7.7729,7.7289,7.7289,7.7289,7.6995,7.6313,7.5542,7.4698,7.3891,7.3083,7.2239,7.1307,7.0367,6.9559,6.8898,6.8091,6.7187,6.6292,6.5582,6.4714,6.3662,6.2952,6.2144,6.1484,6.2132,6.2034,6.1484,6.2169,6.2426,6.2536,6.3246,6.3552,6.3613,6.4297,6.5154,6.6072,6.6893,6.7871,6.8862,6.9669,7.022,7.0528,7.0447,7.1347,7.2421,7.2558,7.2518,7.2574,7.3263,7.2694,7.2168,7.2776,7.2322,7.1552,7.0667,6.9237,6.743,6.5166,6.3968,6.2775,6.1204,0.0,6.2249,6.3198,6.5205,6.6898,6.7891,6.8783,6.9575,7.0296,6.9428,6.9624,7.1332,7.2236,7.3458,7.5104,7.6479,7.7508,7.8162,7.8262,7.8292,7.8292,7.8292,7.8253,7.8099,7.7984,7.7907,7.7869,7.7169,7.6899,7.6861,7.6245,7.6015,7.6015,7.6015,7.5938,7.563,7.4084,7.393,7.4284,8.571,8.639,8.6721,8.5857,8.571,8.5306,8.4115,8.3581,8.303,8.2296,8.0807,7.9926,8.0314,7.8537,7.7472,7.7839,7.7546,7.7289,7.7289,7.7289,7.7142,7.6775,7.5968,7.4955,7.3722,7.2496,7.1674,7.1307,7.0073,6.9265,6.8898,6.8091,6.726,6.6476,6.5655,6.4861,6.4029,6.3172,6.2572,6.2291,6.2646,6.2572,6.2291,6.2646,6.2793,6.2903,6.3796,6.4383,6.4861,6.5668,6.6769,6.7944,6.8752,6.9522,7.0353,7.1174,7.1651,7.2002,7.23,7.3116,7.3841,7.3683,7.3466,7.3351,7.3642,7.3268,7.3014,7.343,7.3161,7.2629,7.1745,7.0244,6.8545,6.6891,6.4775,0.0,0.0,6.2781,6.3589,6.5776,6.7513,6.9206,7.0968,7.1507,7.1783,7.1843,7.1567,7.1682,7.2364,7.3261,7.4267,7.5277,7.7015,7.86,7.99,7.9438,7.9208,7.9208,7.9208,7.8938,7.8484,7.8484,7.8484,7.8484,7.8099,7.7946,7.7907,7.7522,7.7099,7.6707,7.6707,7.613,7.5207,7.443,7.3822,7.3322,8.4719,8.56,8.604,8.4829,8.4609,8.4352,8.3528,8.2737,8.2113,8.1929,8.0514,7.9522,7.9522,7.8185,7.7289,7.7289,7.7289,7.7289,7.7289,7.7289,7.7215,7.7032,7.6056,7.4882,7.345,7.2202,7.138,7.1013,6.9765,6.9009,6.8605,6.7797,6.71,6.6439,6.5448,6.4677,6.4029,6.3172,6.2793,6.2793,6.2793,6.2793,6.2829,6.3013,6.3086,6.327,6.4494,6.5338,6.5999,6.699,6.8421,6.9816,7.0257,7.1211,7.2231,7.2599,7.3075,7.3503,7.3581,7.4222,7.4697,7.4327,7.4045,7.3882,7.3875,7.3827,7.3853,7.4046,7.393,7.3584,7.2899,7.1245,6.9629,6.8584,0.0,0.0,0.0,6.4545,6.5545,6.8353,6.9821,7.143,7.3584,7.3969,7.3822,7.3137,7.3707,7.3783,7.3137,7.4284,7.5161,7.5592,7.7484,7.9331,8.1093,8.0439,8.0085,8.0085,8.0085,7.9746,7.91,7.91,7.91,7.91,7.8907,7.8792,7.8792,7.86,7.8138,7.7561,7.7369,7.6476,7.5245,7.4623,7.3745,7.2822,8.4609,8.4719,8.4756,8.4609,8.4609,8.4352,8.3528,8.2737,8.1929,8.1195,7.969,7.8699,7.8699,7.7839,7.7289,7.7289,7.7289,7.7289,7.7289,7.7289,7.6959,7.624,7.4698,7.345,7.2606,7.2459,7.1688,7.0183,7.0073,6.9242,6.7774,6.6953,6.6549,6.6439,6.4861,6.4176,6.4029,6.3172,6.2793,6.2793,6.2793,6.2793,6.2903,6.3686,6.3992,6.4323,6.6599,6.748,6.7774,6.9302,7.0917,7.2129,7.1417,7.2775,7.4463,7.358,7.4771,7.5955,7.3939,7.4419,7.5241,7.4471,7.4103,7.4108,7.4839,7.4779,7.4853,7.5668,7.5168,7.4584,7.4546,7.2476,7.0283,6.866,0.0,0.0,6.482,6.6583,6.843,6.9475,7.1738,7.3584,7.4507,7.5361,7.5784,7.5707,7.5784,7.5784,7.5707,7.5822,7.663,7.8176,7.8407,7.9331,8.1093,8.1054,8.1016,8.1016,8.1016,8.0977,8.09,8.09,8.09,8.0862,8.0054,7.97,7.9631,7.8823,7.8484,7.833,7.7599,7.7215,7.6823,7.4476,7.3969,7.4322,8.3858,8.4278,8.4462,8.3931,8.3858,8.3564,8.2774,8.1966,8.1342,8.1048,7.9617,7.8589,7.8589,7.7803,7.7289,7.7289,7.7289,7.7289,7.7289,7.7289,7.6738,7.5432,7.4771,7.3854,7.2532,7.2496,7.1725,7.011,7.011,6.9279,6.77,6.7407,6.726,6.7187,6.6085,6.5595,6.5521,6.4701,6.404,6.3613,6.3613,6.3613,6.3649,6.3992,6.4727,6.5778,6.7187,6.8641,7.0142,7.1638,7.3228,7.463,7.4674,7.5334,7.6007,7.5624,7.6727,7.7751,7.6445,7.6804,7.7554,7.725,7.6946,7.6714,7.6522,7.6371,7.6245,7.6053,7.5745,7.5361,7.4815,7.3507,7.2315,7.1661,0.0,6.8859,6.9244,6.9667,7.0475,7.1892,7.3353,7.4584,7.5438,7.5822,7.6015,7.6015,7.6015,7.6015,7.6015,7.6015,7.6784,7.8446,7.8484,7.9331,8.1093,8.1093,8.1093,8.1093,8.1093,8.1093,8.1093,8.1093,8.1093,8.1093,8.0746,8.0592,8.0592,8.0246,7.9785,7.9208,7.8369,7.7753,7.7138,7.563,7.4892,7.4707,8.3067,8.3471,8.3654,8.3124,8.303,8.2847,8.226,8.1305,8.0608,8.0608,7.9213,7.8185,7.8185,7.7656,7.7289,7.7289,7.7289,7.7289,7.7289,7.7289,7.6592,7.4977,7.4647,7.3891,7.2532,7.2496,7.1835,7.0477,7.022,6.9412,6.8068,6.7554,6.7333,6.7297,6.6476,6.5999,6.5705,6.5154,6.4604,6.4103,6.4103,6.4249,6.453,6.5057,6.6007,6.7341,6.8904,7.0674,7.2478,7.3951,7.5408,7.6593,7.6753,7.6933,7.7186,7.7678,7.8474,7.9048,7.8503,7.8953,7.9442,7.8906,7.8648,7.8369,7.7792,7.7676,7.7445,7.6592,7.6399,7.613,7.5284,7.443,7.3776,7.3546,7.2045,7.1206,7.2098,7.2129,7.2552,7.3738,7.4623,7.5361,7.5938,7.6015,7.6015,7.6015,7.6015,7.6015,7.6015,7.6015,7.6784,7.8446,7.8484,7.9331,8.1093,8.1093,8.1093,8.1093,8.1093,8.1093,8.1093,8.1093,8.1093,8.1093,8.1093,8.1093,8.1093,8.1093,8.0746,8.0131,7.9246,7.8407,7.7561,7.6399,7.563,7.5168,8.237,8.2186,8.2186,8.2186,8.2186,8.2186,8.2186,8.0844,7.9816,7.9816,7.8332,7.7289,7.7289,7.7289,7.7289,7.7289,7.7289,7.7289,7.7289,7.7289,7.6555,7.494,7.4147,7.334,7.2532,7.2496,7.2129,7.1321,7.0513,6.9669,6.8862,6.7247,6.6512,6.6476,6.5692,6.4897,6.4139,6.4139,6.4139,6.4152,6.4152,6.4617,6.5498,6.7126,6.806,6.898,7.2236,7.3804,7.4574,7.6246,7.7368,7.7874,7.7088,7.7234,7.8055,7.9629,7.9969,7.9815,7.9815,8.0439,8.0669,7.8946,7.8523,7.8523,7.8523,7.8523,7.8292,7.7484,7.733,7.7061,7.6169,7.5322,7.4469,7.3661,7.3546,7.3245,7.2367,7.3668,7.47,7.47,7.5476,7.6015,7.6015,7.6015,7.6015,7.6015,7.6015,7.6015,7.6015,7.6015,7.6784,7.8446,7.8523,7.9331,8.1093,8.1093,8.1093,8.1093,8.1093,8.1093,8.1093,8.1093,8.1093,8.1093,8.1093,8.1093,8.1093,8.1093,8.1093,8.1016,8.0131,7.9285,7.8292,7.663,7.6015,7.5861,8.2994,8.259,8.237,8.2957,8.259,8.2186,8.2186,8.0844,7.9816,7.9816,7.8332,7.7289,7.7289,7.7289,7.7289,7.7289,7.7289,7.7069,7.6497,7.5395,7.4551,7.4074,7.4368,7.3891,7.2532,7.2496,7.2309,7.1945,7.0702,6.9905,6.9521,6.8012,6.7333,6.7333,6.71,6.6856,6.6636,6.6636,6.6516,6.6342,6.6342,6.707,6.821,6.8697,7.0431,7.2702,7.3669,7.5287,7.7035,7.7941,7.8813,7.95,7.9729,7.9932,8.0178,8.0668,8.0759,8.0708,8.0708,8.09,8.0823,7.9708,7.9862,8.0169,7.9554,7.94,7.9169,7.833,7.8138,7.8061,7.7792,7.7561,7.7092,7.6284,7.6169,7.5861,7.4976,7.5284,7.563,7.563,7.5822,7.6015,7.6015,7.6015,7.6015,7.6015,7.6015,7.6015,7.6015,7.6592,7.7407,7.8484,7.9092,7.9977,8.1093,8.1093,8.1093,8.1093,8.1093,8.1093,8.1093,8.1093,8.1093,8.1093,8.1093,8.1093,8.1093,8.1093,8.1093,8.1016,8.0131,7.9285,7.8369,7.7292,7.6515,7.5976,8.2847,8.2517,8.2333,8.2847,8.2517,8.2186,8.2186,8.0844,7.9816,7.9816,7.8332,7.7289,7.7289,7.7289,7.7289,7.7289,7.6995,7.6481,7.5689,7.4698,7.3891,7.323,7.4001,7.3817,7.2532,7.2496,7.2567,7.2659,7.1253,7.0639,7.0696,6.8965,6.8164,6.8164,6.7847,6.7517,6.7223,6.7223,6.7245,6.733,6.764,6.8611,6.9957,7.0599,7.2404,7.4756,7.54,7.6964,7.8808,7.9538,8.0087,8.0582,8.0975,8.1093,8.1093,8.1093,8.1093,8.1016,8.0669,8.0823,8.09,8.0015,8.0477,8.0977,8.0439,8.0323,8.0054,7.9169,7.9015,7.8907,7.8561,7.8484,7.833,7.7869,7.7522,7.7138,7.6592,7.6207,7.6015,7.6015,7.6015,7.6015,7.6015,7.6015,7.6015,7.6015,7.6015,7.6015,7.6015,7.6823,7.7676,7.8484,7.9361,8.0208,8.1093,8.1093,8.1093,8.1093,8.1093,8.1093,8.1093,8.1093,8.1093,8.1093,8.1093,8.1093,8.1093,8.1093,8.1093,8.1054,8.0516,7.9785,7.89,7.8099,7.7253,7.6476,8.2076,8.2076,8.2076,8.2076,8.215,8.215,8.2003,8.0734,7.9779,7.9706,7.8295,7.7289,7.7289,7.7289,7.7289,7.7289,7.6555,7.5763,7.494,7.483,7.4059,7.2459,7.3083,7.312,7.2312,7.2422,7.2789,7.3404,7.2045,7.1652,7.2162,6.9977,6.8953,6.8848,6.8068,6.7297,6.6623,6.6623,6.695,6.756,6.8292,6.9482,7.1033,7.2497,7.4067,7.5703,7.7213,7.8693,8.0046,8.0823,8.1093,8.1093,8.1093,8.1093,8.1093,8.1093,8.1093,8.0939,8.0131,8.0516,8.09,8.0123,8.0516,8.1093,8.1093,8.1093,8.0862,8.0092,7.9931,7.9669,7.8869,7.8715,7.8715,7.8638,7.7946,7.7369,7.733,7.6553,7.6015,7.6015,7.6015,7.6015,7.6015,7.6053,7.613,7.613,7.613,7.613,7.6207,7.6984,7.7792,7.86,7.9477,8.0285,8.1093,8.1093,8.1093,8.1093,8.1093,8.1093,8.1093,8.1093,8.1093,8.1093,8.1093,8.1093,8.1093,8.1093,8.1093,8.1093,8.1093,8.0554,7.97,7.8907,7.8061,7.7176,8.1269,8.1269,8.1269,8.1269,8.1782,8.1799,8.0514,8.0036,7.9559,7.8919,7.7949,7.7289,7.7289,7.7289,7.7289,7.7289,7.6555,7.5763,7.494,7.4294,7.323,7.1637,7.1711,7.1431,7.0624,7.1872,7.2789,7.3404,7.247,7.2074,7.2174,7.0413,6.9344,6.8848,6.8068,6.759,6.7444,6.7444,6.8,6.8863,6.9062,7.0631,7.2916,7.3253,7.5234,7.7823,7.8199,7.9407,8.0862,8.1054,8.1093,8.1093,8.1093,8.1093,8.1093,8.1093,8.1093,8.1054,8.0862,8.0977,8.1054,8.0862,8.0977,8.1093,8.1093,8.1093,8.1054,8.0862,8.0823,8.0746,8.0554,8.0554,8.0323,7.9631,7.8784,7.8023,7.7407,7.6553,7.6015,7.6015,7.6015,7.6015,7.6015,7.663,7.7015,7.7015,7.7015,7.7292,7.7907,7.8138,7.8638,7.9477,8.0362,8.09,8.1093,8.1093,8.1093,8.1093,8.1093,8.1093,8.1093,8.1093,8.1093,8.1093,8.1093,8.1093,8.1093,8.1093,8.1093,8.1093,8.1093,8.0554,7.9777,7.9592,7.8592,7.7176,8.1012,8.0681,8.0424,8.0424,8.1085,8.1195,8.0,7.9816,7.9522,7.8699,7.7839,7.7289,7.7289,7.7289,7.7142,7.6775,7.5652,7.4771,7.4368,7.356,7.2569,7.1344,7.1307,7.0903,7.011,7.0917,7.1659,7.2249,7.2327,7.229,7.2174,7.1029,7.0159,6.9449,6.8641,6.8068,6.7727,6.7982,6.8532,6.9371,7.0043,7.1574,7.3546,7.393,7.5938,7.8484,7.8484,7.9631,8.1093,8.1093,8.1093,8.1093,8.1093,8.1093,8.1093,8.1093,8.1093,8.1093,8.1093,8.1093,8.1093,8.1093,8.1093,8.1093,8.1093,8.1093,8.1093,8.1093,8.1093,8.1093,8.1093,8.1093,8.0823,7.9931,7.9054,7.8215,7.7407,7.6553,7.6015,7.6015,7.6015,7.6015,7.6015,7.6784,7.7292,7.7292,7.7676,7.8061,7.8484,7.89,7.9323,7.9777,8.0669,8.1093,8.1093,8.1093,8.1093,8.1093,8.1093,8.1093,8.1093,8.1093,8.1093,8.1093,8.1093,8.1093,8.1093,8.1093,8.0862,8.0477,8.0477,7.9939,7.9169,7.9169,7.8361,7.7176,8.0608,8.0057,7.9596,7.9596,8.0241,8.0461,7.9507,7.9522,7.9286,7.8479,7.7766,7.7289,7.7289,7.7179,7.6812,7.6166,7.4735,7.3854,7.3722,7.3083,7.2239,7.1123,7.1087,7.0646,6.972,6.9669,7.0092,7.0859,7.1787,7.215,7.1976,7.1495,7.0804,6.9994,6.9247,6.8489,6.7876,6.821,6.887,6.9737,7.0847,7.2251,7.3776,7.443,7.6207,7.8292,7.8446,7.9631,8.1093,8.1093,8.1093,8.1093,8.1093,8.1093,8.1093,8.1093,8.1093,8.1093,8.1093,8.1093,8.1093,8.1093,8.1093,8.1093,8.1093,8.1093,8.1093,8.1093,8.1093,8.1093,8.1093,8.0977,8.0631,7.9931,7.8938,7.8061,7.7407,7.6553,7.6015,7.6015,7.6015,7.6015,7.6015,7.6899,7.7522,7.7522,7.8253,7.8792,7.8946,7.9477,7.9854,8.0015,8.0708,8.1093,8.1093,8.1093,8.1093,8.1093,8.1093,8.1093,8.1093,8.1093,8.1093,8.1093,8.1093,8.1093,8.1093,8.1093,8.0592,7.9815,7.9815,7.9285,7.8484,7.8369,7.7869,7.7176,7.9066,7.8846,7.8772,7.8772,7.9449,7.9433,7.7876,7.8295,7.8442,7.7582,7.7362,7.7289,7.7289,7.6665,7.624,7.6093,7.5249,7.4441,7.3758,7.3597,7.2569,7.0367,7.0257,6.9559,6.8068,6.8031,6.8733,7.0225,7.0866,7.1144,7.1082,7.107,7.0586,6.9731,6.9168,6.8718,6.8356,6.7982,6.9082,7.1087,7.081,7.2245,7.4546,7.4661,7.5861,7.7561,7.8253,7.9631,8.1093,8.1093,8.1093,8.1093,8.1093,8.1093,8.1093,8.1093,8.1093,8.1093,8.1093,8.1093,8.1093,8.1093,8.1093,8.1093,8.1093,8.1093,8.1093,8.1093,8.1093,8.1093,8.1093,8.0477,7.9931,7.9815,7.8477,7.7407,7.733,7.6553,7.6015,7.6015,7.6015,7.6015,7.6015,7.74,7.833,7.833,7.9131,7.9939,8.0708,8.0169,8.0169,8.09,8.1054,8.1093,8.1093,8.1093,8.1093,8.1093,8.1093,8.1093,8.1093,8.1093,8.1093,8.1093,8.1093,8.1093,8.1093,8.1093,8.0592,7.9815,7.9815,7.9285,7.8407,7.7715,7.7407,7.7176,7.8662,7.8222,7.7876,7.7876,7.8589,7.8736,7.7509,7.8023,7.8295,7.7399,7.7289,7.7289,7.7289,7.6188,7.5249,7.4808,7.4037,7.3413,7.3046,7.3046,7.2129,7.0183,7.011,6.9339,6.7737,6.77,6.8068,6.8765,6.9768,7.0038,6.9579,7.0817,7.0939,7.0151,6.9916,6.9737,6.968,6.9746,7.0654,7.2095,7.2185,7.3206,7.4661,7.4199,7.5399,7.7484,7.8746,8.0015,8.1093,8.1093,8.1093,8.1093,8.1093,8.1093,8.1093,8.1093,8.1093,8.1093,8.1093,8.1093,8.1093,8.1093,8.1093,8.1093,8.1093,8.0708,8.0516,8.1016,8.0708,8.0362,8.0362,7.9669,7.8938,7.8477,7.7784,7.7138,7.663,7.6245,7.6015,7.6015,7.6015,7.6015,7.6015,7.7099,7.8023,7.8484,7.9323,8.0169,8.1054,8.0285,8.0208,8.1054,8.0631,8.0592,8.1093,8.1093,8.1093,8.1093,8.1093,8.1093,8.1093,8.1093,8.1093,8.1093,8.1093,8.0823,8.0362,8.0362,7.9592,7.84,7.84,7.8169,7.7715,7.6861,7.6861,7.7176]}]]